ECMWFNIL_prec_precacc_069.txt.gz
Total_Precipitation_Accumulation
0.00 0.00 0.00 0.00 0.00 0.00 0.00 0.00 0.00 0.00 0.00 0.00 0.00 0.00 0.00 0.02 0.00 0.00 0.00 0.00 0.00 0.00 0.00 0.00 0.00 0.01 0.01 0.02 0.02 0.02 0.01 0.01 0.01 0.01 0.01 0.01 0.01 0.01 0.01 0.01 0.00 0.00
0.00 0.00 0.00 0.00 0.01 0.00 0.00 0.00 0.00 0.00 0.00 0.00 0.00 0.01 0.00 0.01 0.00 0.00 0.00 0.00 0.00 0.00 0.00 0.00 0.00 0.01 0.01 0.01 0.01 0.02 0.01 0.01 0.01 0.00 0.00 0.01 0.01 0.01 0.01 0.01 0.00 0.00
0.00 0.00 0.00 0.00 0.00 0.00 0.00 0.01 0.01 0.00 0.01 0.00 0.00 0.00 0.00 0.00 0.00 0.00 0.00 0.00 0.00 0.01 0.00 0.00 0.00 0.00 0.01 0.00 0.01 0.01 0.02 0.01 0.00 0.01 0.00 0.00 0.01 0.01 0.00 0.00 0.00 0.00
0.00 0.00 0.00 0.00 0.00 0.00 0.00 0.01 0.01 0.00 0.01 0.00 0.00 0.00 0.00 0.01 0.00 0.00 0.00 0.00 0.00 0.00 0.00 0.00 0.00 0.01 0.01 0.01 0.01 0.01 0.01 0.01 0.01 0.01 0.00 0.00 0.00 0.00 0.01 0.00 0.00 0.00
0.00 0.00 0.00 0.00 0.00 0.00 0.00 0.00 0.00 0.00 0.00 0.01 0.00 0.00 0.00 0.00 0.00 0.00 0.00 0.00 0.00 0.00 0.00 0.00 0.00 0.00 0.00 0.01 0.01 0.01 0.00 0.01 0.00 0.00 0.00 0.00 0.00 0.00 0.00 0.00 0.00 0.00
0.00 0.00 0.00 0.00 0.00 0.00 0.00 0.00 0.00 0.05 0.00 0.01 0.00 0.00 0.00 0.00 0.00 0.00 0.00 0.00 0.00 0.00 0.00 0.00 0.00 0.00 0.01 0.01 0.01 0.00 0.00 0.00 0.00 0.00 0.00 0.00 0.00 0.00 0.00 0.00 0.00 0.00
0.00 0.00 0.00 0.00 0.00 0.00 0.03 0.00 0.00 0.03 0.03 0.05 0.02 0.00 0.00 0.00 0.00 0.00 0.00 0.00 0.00 0.00 0.00 0.00 0.00 0.00 0.00 0.00 0.00 0.00 0.00 0.00 0.00 0.00 0.00 0.00 0.00 0.00 0.00 0.00 0.00 0.00
0.00 0.00 0.00 0.00 0.00 0.00 0.00 0.00 0.00 0.04 0.01 0.00 0.00 0.01 0.00 0.00 0.00 0.00 0.01 0.00 0.00 0.00 0.01 0.00 0.00 0.00 0.00 0.00 0.00 0.00 0.00 0.00 0.00 0.00 0.00 0.00 0.00 0.00 0.00 0.00 0.00 0.00
0.00 0.00 0.00 0.00 0.00 0.00 0.02 0.02 0.00 0.00 0.00 0.00 0.01 0.05 0.02 0.02 0.02 0.02 0.01 0.00 0.01 0.01 0.00 0.00 0.00 0.00 0.00 0.00 0.00 0.00 0.00 0.00 0.00 0.00 0.00 0.00 0.00 0.00 0.00 0.00 0.00 0.00
0.00 0.00 0.00 0.00 0.00 0.00 0.00 0.00 0.00 0.00 0.00 0.01 0.00 0.01 0.01 0.02 0.02 0.02 0.02 0.03 0.03 0.02 0.02 0.02 0.02 0.01 0.00 0.00 0.00 0.00 0.00 0.00 0.00 0.00 0.00 0.00 0.00 0.00 0.00 0.00 0.00 0.00
0.00 0.00 0.01 0.01 0.01 0.00 0.00 0.00 0.00 0.00 0.00 0.00 0.00 0.00 0.00 0.03 0.05 0.06 0.05 0.02 0.01 0.02 0.04 0.05 0.03 0.01 0.00 0.00 0.00 0.00 0.00 0.00 0.00 0.00 0.00 0.00 0.00 0.00 0.00 0.00 0.00 0.00
0.00 0.01 0.01 0.01 0.00 0.00 0.00 0.00 0.00 0.00 0.00 0.00 0.01 0.03 0.05 0.07 0.07 0.04 0.01 0.00 0.01 0.02 0.03 0.03 0.01 0.00 0.00 0.00 0.00 0.00 0.00 0.00 0.00 0.00 0.00 0.00 0.00 0.00 0.00 0.00 0.00 0.00
0.01 0.00 0.00 0.00 0.02 0.03 0.19 0.01 0.01 0.00 0.00 0.01 0.03 0.02 0.01 0.02 0.01 0.00 0.00 0.00 0.01 0.00 0.00 0.01 0.00 0.00 0.00 0.00 0.00 0.01 0.00 0.00 0.00 0.00 0.00 0.00 0.00 0.01 0.01 0.00 0.01 0.00
0.00 0.00 0.00 0.00 0.00 0.00 0.00 0.00 0.00 0.00 0.00 0.02 0.02 0.01 0.00 0.00 0.00 0.00 0.00 0.00 0.00 0.00 0.00 0.00 0.00 0.00 0.00 0.00 0.00 0.00 0.00 0.00 0.00 0.00 0.00 0.00 0.00 0.00 0.00 0.00 0.00 0.00
0.01 0.00 0.00 0.00 0.00 0.08 0.18 0.01 0.00 0.00 0.00 0.00 0.01 0.01 0.00 0.00 0.00 0.00 0.00 0.00 0.00 0.00 0.00 0.00 0.00 0.00 0.00 0.00 0.00 0.00 0.00 0.00 0.00 0.00 0.00 0.00 0.00 0.00 0.00 0.01 0.02 0.01
0.00 0.00 0.00 0.00 0.00 0.00 0.00 0.00 0.00 0.00 0.00 0.00 0.00 0.00 0.00 0.00 0.00 0.00 0.00 0.00 0.00 0.00 0.00 0.00 0.00 0.00 0.00 0.00 0.00 0.00 0.00 0.02 0.00 0.00 0.00 0.00 0.01 0.01 0.03 0.04 0.02 0.02
0.00 0.00 0.00 0.00 0.00 0.00 0.00 0.00 0.00 0.00 0.00 0.00 0.00 0.00 0.00 0.00 0.00 0.00 0.01 0.01 0.00 0.00 0.00 0.00 0.00 0.00 0.00 0.00 0.00 0.00 0.04 0.02 0.03 0.02 0.01 0.00 0.03 0.07 0.13 0.02 0.02 0.00
0.00 0.00 0.00 0.00 0.00 0.00 0.00 0.00 0.00 0.00 0.00 0.00 0.00 0.00 0.00 0.00 0.01 0.03 0.02 0.00 0.01 0.00 0.02 0.01 0.00 0.00 0.00 0.00 0.00 0.02 0.02 0.08 0.07 0.01 0.09 0.05 0.13 0.10 0.03 0.01 0.01 0.03
0.00 0.00 0.00 0.00 0.00 0.00 0.00 0.00 0.00 0.00 0.00 0.00 0.00 0.00 0.00 0.00 0.00 0.00 0.00 0.00 0.00 0.00 0.00 0.02 0.01 0.00 0.00 0.00 0.00 0.04 0.10 0.16 0.37 0.54 0.28 0.22 0.03 0.06 0.18 0.03 0.03 0.03
0.00 0.00 0.00 0.00 0.00 0.00 0.00 0.00 0.00 0.00 0.00 0.00 0.00 0.00 0.00 0.00 0.00 0.00 0.00 0.00 0.00 0.00 0.00 0.00 0.00 0.00 0.00 0.02 0.06 0.25 0.26 0.18 2.18 1.18 0.34 0.05 0.05 0.06 0.02 0.03 0.05 0.04
0.00 0.00 0.00 0.00 0.00 0.00 0.00 0.00 0.00 0.00 0.00 0.00 0.00 0.00 0.00 0.00 0.01 0.03 0.00 0.00 0.00 0.03 0.00 0.00 0.00 0.00 0.00 0.00 0.02 0.34 0.08 0.22 1.62 2.35 0.54 0.19 0.18 0.05 0.02 0.01 0.01 0.02
0.00 0.00 0.00 0.00 0.00 0.00 0.00 0.00 0.00 0.00 0.00 0.00 0.00 0.00 0.12 0.31 0.00 0.00 0.00 0.02 0.00 0.00 0.01 0.01 0.00 0.00 0.00 0.00 0.09 0.09 0.14 0.37 0.59 1.68 0.45 0.21 0.41 0.61 0.46 0.13 0.06 0.11
0.00 0.00 0.00 0.00 0.00 0.00 0.00 0.00 0.00 0.00 0.00 0.00 0.02 0.16 0.04 0.03 0.00 0.00 0.00 0.00 0.00 0.00 0.00 0.01 0.00 0.00 0.00 0.00 0.00 0.00 0.02 0.21 1.33 0.21 0.41 0.68 0.45 0.46 0.30 0.34 0.29 0.18
0.00 0.00 0.00 0.00 0.00 0.00 0.00 0.00 0.00 0.00 0.00 0.01 0.01 0.01 0.01 0.00 0.01 0.02 0.01 0.00 0.01 0.01 0.01 0.00 0.00 0.00 0.00 0.00 0.00 0.00 0.38 0.97 0.09 0.08 0.13 0.45 1.36 0.86 0.56 0.40 0.18 0.16
0.00 0.00 0.00 0.00 0.00 0.00 0.00 0.00 0.00 0.00 0.00 0.00 0.00 0.00 0.00 0.00 0.02 0.01 0.01 0.01 0.02 0.03 0.01 0.01 0.04 0.03 0.00 0.00 0.00 0.01 0.47 0.85 0.90 0.12 0.08 0.09 0.19 0.16 0.06 0.07 0.04 0.02
0.02 0.01 0.01 0.00 0.00 0.00 0.00 0.00 0.00 0.00 0.00 0.00 0.00 0.00 0.00 0.02 0.03 0.01 0.01 0.01 0.02 0.01 0.01 0.01 0.02 0.05 0.01 0.00 0.00 0.01 0.03 0.64 1.32 0.50 0.18 0.08 0.03 0.01 0.02 0.02 0.03 0.03

ECMWFNIL_prec_precacc_072.txt.gz
Total_Precipitation_Accumulation
0.00 0.00 0.00 0.00 0.00 0.00 0.00 0.00 0.00 0.00 0.00 0.00 0.00 0.00 0.00 0.02 0.00 0.00 0.00 0.00 0.00 0.00 0.00 0.00 0.01 0.01 0.02 0.02 0.02 0.02 0.02 0.02 0.01 0.01 0.01 0.01 0.01 0.01 0.01 0.01 0.00 0.00
0.00 0.00 0.00 0.00 0.01 0.00 0.00 0.00 0.00 0.00 0.00 0.00 0.00 0.01 0.00 0.01 0.00 0.00 0.00 0.00 0.00 0.00 0.00 0.00 0.01 0.01 0.01 0.02 0.02 0.02 0.01 0.01 0.01 0.00 0.01 0.01 0.01 0.01 0.01 0.01 0.00 0.00
0.00 0.00 0.00 0.00 0.00 0.00 0.00 0.01 0.01 0.00 0.01 0.00 0.00 0.00 0.00 0.00 0.00 0.00 0.00 0.00 0.00 0.01 0.00 0.00 0.00 0.00 0.01 0.01 0.01 0.01 0.02 0.01 0.01 0.01 0.00 0.01 0.01 0.01 0.01 0.00 0.01 0.00
0.00 0.00 0.00 0.00 0.00 0.00 0.00 0.01 0.01 0.00 0.01 0.00 0.00 0.00 0.00 0.01 0.00 0.00 0.00 0.00 0.00 0.00 0.00 0.00 0.00 0.01 0.01 0.01 0.01 0.01 0.01 0.01 0.01 0.01 0.01 0.00 0.00 0.00 0.01 0.00 0.00 0.00
0.00 0.00 0.00 0.00 0.00 0.00 0.00 0.00 0.00 0.00 0.00 0.01 0.00 0.00 0.00 0.00 0.00 0.00 0.00 0.00 0.00 0.00 0.00 0.00 0.00 0.00 0.00 0.01 0.01 0.01 0.00 0.01 0.00 0.00 0.00 0.00 0.00 0.00 0.00 0.00 0.00 0.00
0.00 0.00 0.00 0.00 0.00 0.00 0.00 0.00 0.00 0.05 0.00 0.01 0.00 0.00 0.00 0.00 0.00 0.00 0.00 0.00 0.00 0.00 0.00 0.00 0.00 0.00 0.01 0.01 0.01 0.00 0.00 0.00 0.00 0.00 0.00 0.00 0.00 0.00 0.00 0.00 0.00 0.00
0.00 0.00 0.00 0.00 0.00 0.00 0.03 0.00 0.00 0.03 0.03 0.05 0.02 0.00 0.00 0.00 0.00 0.00 0.00 0.00 0.00 0.00 0.00 0.00 0.00 0.00 0.00 0.00 0.00 0.00 0.00 0.00 0.00 0.00 0.00 0.00 0.00 0.00 0.00 0.00 0.00 0.00
0.00 0.00 0.00 0.00 0.00 0.00 0.00 0.00 0.00 0.04 0.01 0.00 0.00 0.01 0.00 0.00 0.00 0.00 0.01 0.00 0.00 0.00 0.01 0.00 0.00 0.00 0.00 0.00 0.00 0.00 0.00 0.00 0.00 0.00 0.00 0.00 0.00 0.00 0.00 0.00 0.00 0.00
0.00 0.00 0.00 0.00 0.00 0.00 0.02 0.02 0.00 0.00 0.00 0.00 0.01 0.05 0.02 0.02 0.02 0.02 0.01 0.00 0.01 0.01 0.00 0.00 0.00 0.00 0.00 0.00 0.00 0.00 0.00 0.00 0.00 0.00 0.00 0.00 0.00 0.00 0.00 0.00 0.00 0.00
0.00 0.00 0.00 0.00 0.00 0.00 0.00 0.00 0.00 0.00 0.00 0.01 0.00 0.01 0.01 0.02 0.02 0.02 0.02 0.03 0.03 0.02 0.02 0.02 0.02 0.01 0.00 0.00 0.00 0.00 0.00 0.00 0.00 0.00 0.00 0.00 0.00 0.00 0.00 0.00 0.00 0.00
0.00 0.00 0.01 0.01 0.01 0.00 0.00 0.00 0.00 0.00 0.00 0.00 0.00 0.00 0.00 0.03 0.05 0.06 0.05 0.02 0.01 0.02 0.04 0.05 0.03 0.01 0.00 0.00 0.00 0.00 0.00 0.00 0.00 0.00 0.00 0.00 0.00 0.00 0.00 0.00 0.00 0.00
0.00 0.01 0.01 0.01 0.00 0.00 0.00 0.00 0.00 0.00 0.00 0.00 0.01 0.03 0.05 0.07 0.07 0.04 0.01 0.00 0.01 0.02 0.03 0.03 0.01 0.00 0.00 0.00 0.00 0.00 0.00 0.00 0.00 0.00 0.00 0.00 0.00 0.00 0.00 0.00 0.00 0.00
0.01 0.00 0.00 0.00 0.02 0.03 0.19 0.01 0.01 0.00 0.00 0.01 0.03 0.02 0.01 0.02 0.01 0.00 0.00 0.00 0.01 0.00 0.00 0.01 0.00 0.00 0.00 0.00 0.00 0.01 0.00 0.00 0.00 0.00 0.00 0.00 0.00 0.01 0.01 0.00 0.01 0.00
0.00 0.00 0.00 0.00 0.00 0.00 0.00 0.00 0.00 0.00 0.00 0.02 0.02 0.01 0.00 0.00 0.00 0.00 0.00 0.00 0.00 0.00 0.00 0.00 0.00 0.00 0.00 0.00 0.00 0.00 0.00 0.00 0.00 0.00 0.00 0.00 0.00 0.00 0.00 0.00 0.00 0.00
0.01 0.01 0.00 0.00 0.00 0.08 0.18 0.01 0.00 0.00 0.00 0.00 0.01 0.01 0.00 0.00 0.00 0.00 0.00 0.00 0.00 0.00 0.00 0.00 0.00 0.00 0.00 0.00 0.00 0.00 0.00 0.00 0.00 0.00 0.00 0.00 0.00 0.00 0.00 0.01 0.02 0.01
0.00 0.00 0.00 0.00 0.00 0.00 0.00 0.00 0.00 0.00 0.00 0.00 0.00 0.00 0.00 0.00 0.00 0.00 0.00 0.00 0.00 0.00 0.00 0.00 0.00 0.00 0.00 0.00 0.00 0.00 0.00 0.02 0.00 0.00 0.00 0.00 0.01 0.01 0.03 0.04 0.02 0.02
0.00 0.00 0.00 0.00 0.00 0.00 0.00 0.00 0.00 0.00 0.00 0.00 0.00 0.00 0.00 0.00 0.00 0.00 0.01 0.01 0.00 0.00 0.00 0.00 0.00 0.00 0.00 0.00 0.00 0.00 0.04 0.02 0.03 0.02 0.01 0.00 0.03 0.07 0.13 0.02 0.02 0.00
0.00 0.00 0.00 0.00 0.00 0.00 0.00 0.00 0.00 0.00 0.00 0.00 0.00 0.00 0.00 0.00 0.01 0.03 0.02 0.00 0.01 0.00 0.02 0.01 0.00 0.00 0.00 0.00 0.00 0.02 0.02 0.08 0.07 0.01 0.09 0.05 0.13 0.10 0.03 0.01 0.01 0.03
0.00 0.00 0.00 0.00 0.00 0.00 0.00 0.00 0.00 0.00 0.00 0.00 0.00 0.00 0.00 0.00 0.00 0.00 0.00 0.00 0.00 0.00 0.00 0.02 0.01 0.00 0.00 0.00 0.00 0.04 0.10 0.16 0.37 0.54 0.28 0.22 0.03 0.06 0.18 0.03 0.03 0.03
0.05 0.02 0.00 0.00 0.00 0.02 0.00 0.00 0.00 0.00 0.00 0.00 0.00 0.00 0.00 0.00 0.00 0.00 0.00 0.00 0.00 0.00 0.00 0.00 0.00 0.00 0.00 0.02 0.06 0.25 0.26 0.18 2.18 1.18 0.34 0.05 0.05 0.06 0.02 0.03 0.05 0.04
0.05 0.04 0.03 0.00 0.00 0.00 0.00 0.00 0.00 0.00 0.00 0.00 0.00 0.00 0.00 0.00 0.01 0.03 0.00 0.00 0.00 0.03 0.00 0.00 0.00 0.00 0.00 0.00 0.02 0.34 0.08 0.22 1.62 2.35 0.54 0.19 0.18 0.05 0.02 0.01 0.01 0.02
0.00 0.00 0.03 0.04 0.03 0.01 0.01 0.01 0.00 0.00 0.00 0.00 0.00 0.00 0.12 0.31 0.00 0.00 0.00 0.02 0.00 0.00 0.01 0.01 0.00 0.00 0.00 0.00 0.09 0.09 0.14 0.37 0.59 1.68 0.45 0.21 0.41 0.61 0.46 0.13 0.06 0.11
0.00 0.00 0.00 0.01 0.04 0.09 0.02 0.02 0.01 0.00 0.00 0.00 0.02 0.16 0.04 0.03 0.00 0.00 0.00 0.00 0.00 0.00 0.00 0.01 0.00 0.00 0.00 0.00 0.00 0.00 0.02 0.21 1.33 0.21 0.41 0.68 0.45 0.46 0.30 0.34 0.29 0.18
0.19 0.07 0.00 0.00 0.01 0.05 0.05 0.10 0.08 0.00 0.03 0.01 0.01 0.01 0.01 0.00 0.01 0.02 0.01 0.00 0.01 0.01 0.01 0.00 0.00 0.00 0.00 0.00 0.00 0.00 0.38 0.97 0.09 0.08 0.13 0.45 1.36 0.86 0.56 0.40 0.18 0.16
0.07 0.21 0.15 0.01 0.00 0.00 0.04 0.33 0.41 0.32 0.21 0.28 0.09 0.06 0.06 0.01 0.02 0.01 0.01 0.01 0.02 0.03 0.01 0.01 0.04 0.03 0.00 0.00 0.00 0.01 0.47 0.85 0.90 0.12 0.08 0.09 0.19 0.16 0.06 0.07 0.04 0.02
0.04 0.03 0.03 0.07 0.02 0.00 0.03 0.05 0.31 0.39 0.44 0.37 0.33 0.20 0.08 0.14 0.06 0.03 0.01 0.01 0.02 0.01 0.01 0.01 0.02 0.05 0.01 0.00 0.00 0.01 0.03 0.64 1.32 0.50 0.18 0.08 0.03 0.01 0.02 0.02 0.03 0.03

ECMWFNIL_prec_precacc_075.txt.gz
Total_Precipitation_Accumulation
0.00 0.00 0.00 0.00 0.00 0.00 0.00 0.00 0.00 0.00 0.00 0.00 0.00 0.00 0.00 0.02 0.00 0.00 0.00 0.00 0.00 0.00 0.00 0.00 0.01 0.01 0.02 0.02 0.03 0.02 0.02 0.02 0.02 0.01 0.01 0.01 0.02 0.01 0.01 0.01 0.00 0.00
0.00 0.00 0.00 0.00 0.01 0.00 0.00 0.00 0.00 0.00 0.00 0.00 0.00 0.01 0.00 0.01 0.00 0.00 0.00 0.00 0.00 0.00 0.00 0.00 0.01 0.01 0.01 0.02 0.02 0.04 0.02 0.02 0.02 0.01 0.01 0.01 0.02 0.01 0.01 0.01 0.01 0.00
0.00 0.00 0.00 0.00 0.00 0.00 0.00 0.01 0.01 0.00 0.01 0.00 0.00 0.00 0.00 0.00 0.00 0.00 0.00 0.00 0.00 0.01 0.00 0.00 0.00 0.00 0.01 0.01 0.01 0.04 0.02 0.02 0.01 0.01 0.00 0.01 0.01 0.01 0.01 0.01 0.01 0.01
0.00 0.00 0.00 0.00 0.00 0.00 0.00 0.01 0.01 0.00 0.01 0.00 0.00 0.00 0.00 0.01 0.00 0.00 0.00 0.00 0.00 0.00 0.00 0.00 0.00 0.01 0.01 0.01 0.01 0.03 0.05 0.02 0.01 0.01 0.01 0.01 0.00 0.00 0.01 0.00 0.00 0.01
0.00 0.00 0.00 0.00 0.00 0.00 0.00 0.00 0.00 0.00 0.00 0.01 0.00 0.00 0.00 0.00 0.00 0.00 0.00 0.00 0.00 0.00 0.00 0.00 0.00 0.00 0.00 0.01 0.01 0.02 0.01 0.03 0.01 0.01 0.00 0.00 0.00 0.00 0.00 0.00 0.00 0.00
0.00 0.00 0.00 0.00 0.00 0.00 0.00 0.00 0.00 0.05 0.00 0.01 0.00 0.00 0.00 0.00 0.00 0.00 0.00 0.00 0.00 0.00 0.00 0.00 0.00 0.00 0.01 0.01 0.01 0.00 0.00 0.00 0.00 0.00 0.00 0.00 0.00 0.00 0.00 0.00 0.00 0.00
0.00 0.00 0.00 0.00 0.00 0.00 0.03 0.00 0.00 0.03 0.03 0.05 0.02 0.00 0.00 0.00 0.00 0.00 0.00 0.00 0.00 0.00 0.00 0.00 0.00 0.00 0.00 0.00 0.00 0.00 0.00 0.00 0.00 0.00 0.00 0.00 0.00 0.00 0.00 0.00 0.00 0.00
0.00 0.00 0.00 0.00 0.00 0.00 0.00 0.00 0.00 0.04 0.01 0.00 0.00 0.01 0.00 0.00 0.00 0.00 0.01 0.00 0.00 0.00 0.01 0.00 0.00 0.00 0.00 0.00 0.00 0.00 0.00 0.00 0.00 0.00 0.00 0.00 0.00 0.00 0.00 0.00 0.00 0.00
0.00 0.03 0.00 0.00 0.00 0.00 0.02 0.02 0.00 0.00 0.00 0.00 0.01 0.05 0.02 0.02 0.02 0.02 0.01 0.00 0.01 0.01 0.00 0.00 0.00 0.00 0.00 0.00 0.00 0.00 0.00 0.00 0.00 0.00 0.00 0.00 0.00 0.00 0.00 0.00 0.00 0.00
0.01 0.03 0.04 0.00 0.00 0.00 0.00 0.00 0.00 0.00 0.00 0.01 0.00 0.01 0.01 0.02 0.02 0.02 0.02 0.03 0.03 0.02 0.02 0.02 0.02 0.01 0.00 0.00 0.00 0.00 0.00 0.00 0.00 0.00 0.00 0.00 0.00 0.00 0.00 0.00 0.00 0.00
0.00 0.06 0.03 0.03 0.05 0.00 0.00 0.00 0.00 0.00 0.00 0.00 0.00 0.00 0.00 0.03 0.05 0.06 0.05 0.02 0.01 0.02 0.04 0.05 0.03 0.01 0.00 0.00 0.00 0.00 0.00 0.00 0.00 0.00 0.00 0.00 0.00 0.00 0.00 0.00 0.00 0.00
0.01 0.01 0.02 0.05 0.02 0.01 0.00 0.00 0.00 0.00 0.00 0.00 0.01 0.03 0.05 0.07 0.07 0.04 0.01 0.00 0.01 0.02 0.03 0.03 0.01 0.00 0.00 0.00 0.00 0.00 0.00 0.00 0.00 0.00 0.00 0.00 0.00 0.00 0.00 0.00 0.00 0.00
0.02 0.01 0.01 0.03 0.04 0.06 0.20 0.01 0.01 0.00 0.00 0.01 0.03 0.02 0.01 0.02 0.01 0.00 0.00 0.00 0.01 0.00 0.00 0.01 0.00 0.00 0.00 0.00 0.00 0.01 0.00 0.00 0.00 0.00 0.00 0.00 0.00 0.01 0.01 0.00 0.01 0.00
0.02 0.02 0.01 0.01 0.02 0.02 0.01 0.00 0.00 0.00 0.00 0.02 0.02 0.01 0.00 0.00 0.00 0.00 0.00 0.00 0.00 0.00 0.00 0.00 0.00 0.00 0.00 0.00 0.00 0.00 0.00 0.00 0.00 0.00 0.00 0.00 0.00 0.00 0.00 0.00 0.00 0.00
0.02 0.02 0.01 0.02 0.01 0.10 0.18 0.01 0.00 0.00 0.00 0.00 0.01 0.01 0.00 0.00 0.00 0.00 0.00 0.00 0.00 0.00 0.00 0.00 0.00 0.00 0.00 0.00 0.00 0.00 0.00 0.00 0.00 0.00 0.00 0.00 0.00 0.00 0.00 0.01 0.02 0.01
0.01 0.05 0.06 0.03 0.01 0.00 0.02 0.01 0.00 0.00 0.00 0.00 0.00 0.00 0.00 0.00 0.00 0.00 0.00 0.00 0.00 0.00 0.00 0.00 0.00 0.00 0.00 0.00 0.00 0.00 0.00 0.02 0.00 0.00 0.00 0.00 0.01 0.01 0.03 0.04 0.02 0.02
0.01 0.02 0.01 0.03 0.04 0.00 0.00 0.00 0.00 0.00 0.00 0.00 0.00 0.00 0.00 0.00 0.00 0.00 0.01 0.01 0.00 0.00 0.00 0.00 0.00 0.00 0.00 0.00 0.00 0.00 0.04 0.02 0.03 0.02 0.01 0.00 0.03 0.07 0.13 0.02 0.02 0.00
0.03 0.02 0.02 0.02 0.02 0.02 0.02 0.14 0.08 0.00 0.01 0.00 0.00 0.00 0.00 0.00 0.01 0.03 0.02 0.00 0.01 0.00 0.02 0.01 0.00 0.00 0.00 0.00 0.00 0.02 0.02 0.08 0.07 0.01 0.09 0.05 0.13 0.10 0.03 0.01 0.01 0.03
0.16 0.07 0.14 0.08 0.06 0.06 0.03 0.26 0.22 0.33 0.15 0.02 0.00 0.00 0.00 0.00 0.00 0.00 0.00 0.00 0.00 0.00 0.00 0.02 0.01 0.00 0.00 0.00 0.00 0.04 0.10 0.16 0.37 0.54 0.28 0.22 0.03 0.06 0.18 0.03 0.03 0.03
0.12 0.38 0.19 0.14 0.11 0.22 0.27 0.33 0.27 0.18 0.30 0.25 0.13 0.01 0.00 0.00 0.00 0.00 0.00 0.00 0.00 0.00 0.00 0.00 0.00 0.00 0.00 0.02 0.06 0.25 0.26 0.18 2.18 1.18 0.34 0.05 0.05 0.06 0.02 0.03 0.05 0.04
0.07 0.05 0.17 0.30 0.38 0.30 0.34 0.34 0.33 0.27 0.18 0.27 0.33 0.42 0.09 0.00 0.02 0.04 0.00 0.00 0.00 0.03 0.00 0.00 0.00 0.00 0.00 0.00 0.02 0.34 0.08 0.22 1.62 2.35 0.54 0.19 0.18 0.05 0.02 0.01 0.01 0.02
0.00 0.01 0.04 0.07 0.50 0.30 0.13 0.21 0.29 0.37 0.48 0.39 0.55 0.58 0.66 0.64 0.23 0.25 0.09 0.04 0.01 0.00 0.01 0.01 0.00 0.00 0.00 0.00 0.09 0.09 0.14 0.37 0.59 1.68 0.45 0.21 0.41 0.61 0.46 0.13 0.06 0.11
0.08 0.08 0.04 0.03 0.21 0.31 0.17 0.23 0.24 0.46 0.38 0.56 0.67 0.57 0.27 0.34 0.35 0.23 0.14 0.03 0.01 0.00 0.00 0.01 0.00 0.00 0.00 0.00 0.00 0.00 0.02 0.21 1.33 0.21 0.41 0.68 0.45 0.46 0.30 0.34 0.29 0.18
0.26 0.23 0.22 0.12 0.31 0.22 0.32 0.50 0.84 0.79 0.63 0.93 1.07 0.64 0.40 0.32 0.33 0.13 0.05 0.01 0.02 0.01 0.01 0.00 0.00 0.00 0.00 0.00 0.00 0.00 0.38 0.97 0.09 0.08 0.13 0.45 1.36 0.86 0.56 0.40 0.18 0.16
0.08 0.21 0.16 0.16 0.11 0.23 0.32 0.90 0.95 0.65 0.39 0.64 0.62 0.31 0.37 0.22 0.24 0.18 0.11 0.04 0.04 0.05 0.02 0.01 0.04 0.03 0.00 0.00 0.00 0.01 0.47 0.85 0.90 0.12 0.08 0.09 0.19 0.16 0.06 0.07 0.04 0.02
0.10 0.05 0.10 0.25 0.28 0.10 0.26 0.42 0.62 0.41 0.46 0.39 0.35 0.25 0.10 0.15 0.11 0.07 0.03 0.03 0.06 0.04 0.02 0.02 0.03 0.05 0.01 0.00 0.00 0.01 0.03 0.64 1.32 0.50 0.18 0.08 0.03 0.01 0.02 0.02 0.03 0.03

ECMWFNIL_prec_precacc_078.txt.gz
Total_Precipitation_Accumulation
0.00 0.00 0.00 0.00 0.00 0.00 0.00 0.00 0.00 0.00 0.00 0.00 0.00 0.00 0.00 0.02 0.02 0.00 0.00 0.00 0.00 0.00 0.00 0.00 0.01 0.01 0.02 0.03 0.03 0.03 0.06 0.02 0.02 0.01 0.01 0.01 0.05 0.03 0.01 0.01 0.02 0.01
0.00 0.00 0.00 0.00 0.01 0.00 0.00 0.00 0.00 0.00 0.00 0.00 0.00 0.01 0.00 0.01 0.00 0.01 0.00 0.00 0.00 0.00 0.00 0.00 0.01 0.01 0.01 0.02 0.02 0.05 0.02 0.03 0.04 0.02 0.01 0.01 0.02 0.04 0.01 0.01 0.01 0.03
0.00 0.00 0.00 0.00 0.00 0.00 0.00 0.01 0.01 0.00 0.01 0.00 0.00 0.00 0.00 0.00 0.00 0.00 0.00 0.00 0.00 0.01 0.00 0.00 0.00 0.00 0.01 0.01 0.03 0.05 0.02 0.02 0.03 0.02 0.01 0.01 0.01 0.03 0.03 0.01 0.01 0.01
0.00 0.00 0.00 0.00 0.00 0.00 0.00 0.01 0.01 0.00 0.01 0.00 0.00 0.00 0.00 0.01 0.00 0.00 0.00 0.00 0.00 0.00 0.00 0.00 0.00 0.01 0.01 0.01 0.02 0.06 0.06 0.05 0.05 0.02 0.02 0.04 0.02 0.01 0.03 0.00 0.01 0.01
0.00 0.00 0.00 0.00 0.00 0.00 0.00 0.00 0.00 0.00 0.00 0.01 0.00 0.00 0.00 0.00 0.00 0.00 0.00 0.00 0.00 0.00 0.00 0.00 0.00 0.00 0.00 0.01 0.01 0.02 0.02 0.04 0.01 0.01 0.02 0.02 0.04 0.00 0.00 0.01 0.01 0.00
0.00 0.00 0.00 0.00 0.00 0.00 0.00 0.00 0.00 0.05 0.00 0.01 0.00 0.00 0.00 0.00 0.00 0.00 0.00 0.00 0.00 0.00 0.00 0.00 0.00 0.00 0.01 0.01 0.01 0.01 0.00 0.01 0.00 0.00 0.00 0.01 0.01 0.00 0.00 0.00 0.01 0.00
0.04 0.00 0.00 0.00 0.00 0.00 0.03 0.00 0.00 0.03 0.03 0.05 0.02 0.00 0.00 0.00 0.00 0.00 0.00 0.00 0.00 0.00 0.00 0.00 0.00 0.00 0.00 0.00 0.00 0.00 0.00 0.00 0.00 0.01 0.00 0.00 0.00 0.00 0.00 0.00 0.00 0.00
0.32 0.20 0.00 0.00 0.00 0.00 0.00 0.00 0.00 0.04 0.01 0.00 0.00 0.01 0.00 0.00 0.00 0.00 0.01 0.00 0.00 0.00 0.01 0.00 0.00 0.00 0.00 0.00 0.00 0.00 0.00 0.00 0.00 0.00 0.00 0.00 0.00 0.00 0.00 0.00 0.00 0.00
0.11 0.18 0.03 0.01 0.00 0.00 0.02 0.02 0.00 0.00 0.00 0.00 0.01 0.05 0.02 0.02 0.02 0.02 0.01 0.00 0.01 0.01 0.00 0.00 0.00 0.00 0.00 0.00 0.00 0.00 0.00 0.00 0.00 0.00 0.00 0.00 0.00 0.00 0.00 0.00 0.00 0.00
0.04 0.06 0.05 0.04 0.00 0.00 0.00 0.00 0.00 0.00 0.00 0.01 0.00 0.01 0.01 0.02 0.02 0.02 0.02 0.03 0.03 0.02 0.02 0.02 0.02 0.01 0.00 0.00 0.00 0.00 0.00 0.00 0.00 0.00 0.00 0.00 0.00 0.00 0.00 0.00 0.00 0.00
0.01 0.16 0.08 0.08 0.07 0.01 0.00 0.00 0.00 0.00 0.00 0.00 0.00 0.00 0.00 0.03 0.05 0.06 0.05 0.02 0.01 0.02 0.04 0.05 0.03 0.01 0.00 0.00 0.00 0.00 0.00 0.00 0.00 0.00 0.00 0.00 0.00 0.00 0.00 0.00 0.00 0.00
0.05 0.03 0.07 0.08 0.03 0.02 0.02 0.00 0.00 0.00 0.00 0.00 0.01 0.03 0.05 0.07 0.07 0.04 0.01 0.00 0.01 0.02 0.03 0.03 0.01 0.00 0.00 0.00 0.00 0.00 0.00 0.00 0.00 0.00 0.00 0.00 0.00 0.00 0.00 0.00 0.00 0.00
0.13 0.13 0.04 0.06 0.05 0.06 0.21 0.02 0.01 0.00 0.00 0.01 0.03 0.02 0.01 0.02 0.01 0.00 0.00 0.00 0.01 0.00 0.00 0.01 0.00 0.00 0.00 0.00 0.00 0.01 0.00 0.00 0.00 0.00 0.00 0.00 0.00 0.01 0.01 0.00 0.01 0.00
0.34 0.26 0.28 0.16 0.04 0.03 0.01 0.00 0.00 0.00 0.00 0.02 0.02 0.01 0.00 0.00 0.00 0.00 0.00 0.00 0.00 0.00 0.00 0.00 0.00 0.00 0.00 0.00 0.00 0.00 0.00 0.00 0.00 0.00 0.00 0.00 0.00 0.00 0.00 0.00 0.00 0.00
0.27 0.32 0.11 0.17 0.19 0.13 0.19 0.02 0.02 0.00 0.01 0.01 0.01 0.01 0.00 0.00 0.00 0.00 0.00 0.00 0.00 0.00 0.00 0.00 0.00 0.00 0.00 0.00 0.00 0.00 0.00 0.00 0.00 0.00 0.00 0.00 0.00 0.00 0.00 0.01 0.02 0.01
0.38 0.38 0.38 0.20 0.38 0.28 0.31 0.28 0.05 0.01 0.00 0.02 0.01 0.00 0.00 0.00 0.00 0.00 0.00 0.00 0.00 0.00 0.00 0.00 0.00 0.00 0.00 0.00 0.00 0.00 0.00 0.02 0.00 0.00 0.00 0.00 0.01 0.01 0.03 0.04 0.02 0.02
0.04 0.12 0.05 0.19 0.13 0.10 0.18 0.16 0.16 0.23 0.12 0.00 0.00 0.00 0.00 0.00 0.00 0.00 0.01 0.01 0.00 0.00 0.00 0.00 0.00 0.00 0.00 0.00 0.00 0.00 0.04 0.02 0.03 0.02 0.01 0.00 0.03 0.07 0.13 0.02 0.02 0.00
0.40 0.26 0.16 0.22 0.19 0.22 0.24 0.27 0.16 0.14 0.16 0.11 0.07 0.00 0.01 0.01 0.01 0.03 0.02 0.00 0.01 0.00 0.02 0.01 0.00 0.00 0.00 0.00 0.00 0.02 0.02 0.08 0.07 0.01 0.09 0.05 0.13 0.10 0.03 0.01 0.01 0.03
0.28 0.26 0.21 0.12 0.31 0.60 0.46 0.49 0.33 0.52 0.29 0.18 0.16 0.08 0.05 0.03 0.01 0.00 0.00 0.00 0.00 0.00 0.00 0.02 0.01 0.00 0.00 0.00 0.00 0.04 0.10 0.16 0.37 0.54 0.28 0.22 0.03 0.06 0.18 0.03 0.03 0.03
0.18 0.48 0.31 0.30 0.66 0.50 0.50 0.43 0.34 0.30 0.31 0.25 0.18 0.14 0.09 0.09 0.07 0.06 0.02 0.00 0.01 0.00 0.00 0.00 0.00 0.00 0.00 0.02 0.06 0.25 0.26 0.18 2.18 1.18 0.34 0.05 0.05 0.06 0.02 0.03 0.05 0.04
0.09 0.18 0.51 0.42 0.72 0.62 0.39 0.35 0.41 0.28 0.19 0.27 0.34 0.54 0.48 0.36 0.32 0.29 0.18 0.09 0.03 0.04 0.00 0.00 0.00 0.00 0.00 0.00 0.02 0.34 0.08 0.22 1.62 2.35 0.54 0.19 0.18 0.05 0.02 0.01 0.01 0.02
0.03 0.02 0.06 0.08 0.56 0.31 0.36 0.50 0.59 0.43 0.50 0.39 0.55 0.59 0.68 0.77 0.38 0.51 0.47 0.11 0.03 0.00 0.03 0.01 0.00 0.00 0.00 0.00 0.09 0.09 0.14 0.37 0.59 1.68 0.45 0.21 0.41 0.61 0.46 0.13 0.06 0.11
0.18 0.30 0.15 0.11 0.40 0.67 0.24 0.33 0.33 0.48 0.39 0.59 0.68 0.57 0.27 0.35 0.35 0.24 0.16 0.04 0.02 0.01 0.00 0.01 0.01 0.00 0.00 0.00 0.00 0.00 0.02 0.21 1.33 0.21 0.41 0.68 0.45 0.46 0.30 0.34 0.29 0.18
0.64 0.49 0.46 0.29 0.41 0.48 0.50 0.58 0.85 0.80 0.65 0.97 1.09 0.64 0.40 0.32 0.33 0.14 0.05 0.01 0.02 0.01 0.01 0.02 0.01 0.01 0.00 0.00 0.00 0.00 0.38 0.97 0.09 0.08 0.13 0.45 1.36 0.86 0.56 0.40 0.18 0.16
0.08 0.21 0.16 0.16 0.16 0.43 0.48 0.94 0.97 0.66 0.40 0.65 0.63 0.32 0.37 0.23 0.25 0.18 0.11 0.04 0.04 0.05 0.02 0.02 0.05 0.05 0.00 0.00 0.00 0.01 0.47 0.85 0.90 0.12 0.08 0.09 0.19 0.16 0.06 0.07 0.04 0.02
0.11 0.06 0.11 0.25 0.33 0.14 0.30 0.44 0.63 0.42 0.48 0.40 0.37 0.27 0.12 0.16 0.12 0.07 0.04 0.03 0.06 0.04 0.02 0.02 0.03 0.05 0.02 0.00 0.00 0.01 0.03 0.64 1.32 0.50 0.18 0.08 0.03 0.01 0.02 0.02 0.03 0.03

ECMWFNIL_prec_precacc_081.txt.gz
Total_Precipitation_Accumulation
0.00 0.00 0.00 0.00 0.00 0.00 0.00 0.00 0.00 0.00 0.00 0.00 0.00 0.00 0.00 0.02 0.02 0.00 0.00 0.00 0.00 0.00 0.00 0.00 0.01 0.01 0.02 0.03 0.03 0.03 0.06 0.02 0.02 0.01 0.01 0.01 0.05 0.03 0.01 0.01 0.02 0.01
0.00 0.00 0.00 0.00 0.01 0.00 0.00 0.00 0.00 0.00 0.00 0.00 0.00 0.01 0.00 0.01 0.00 0.01 0.00 0.00 0.00 0.00 0.00 0.00 0.01 0.01 0.01 0.02 0.02 0.05 0.02 0.03 0.04 0.02 0.01 0.01 0.02 0.04 0.01 0.01 0.01 0.03
0.00 0.00 0.00 0.00 0.00 0.00 0.00 0.01 0.01 0.00 0.01 0.00 0.00 0.00 0.00 0.00 0.00 0.00 0.00 0.00 0.00 0.01 0.00 0.00 0.00 0.00 0.01 0.01 0.03 0.05 0.02 0.02 0.03 0.02 0.01 0.01 0.01 0.03 0.03 0.01 0.01 0.01
0.00 0.00 0.00 0.00 0.00 0.00 0.00 0.01 0.01 0.00 0.01 0.00 0.00 0.00 0.00 0.01 0.00 0.00 0.00 0.00 0.00 0.00 0.00 0.00 0.00 0.01 0.01 0.01 0.02 0.06 0.06 0.05 0.05 0.02 0.02 0.04 0.02 0.01 0.03 0.00 0.01 0.01
0.00 0.00 0.00 0.00 0.00 0.00 0.00 0.00 0.00 0.00 0.00 0.01 0.00 0.00 0.00 0.00 0.00 0.00 0.00 0.00 0.00 0.00 0.00 0.00 0.00 0.00 0.00 0.01 0.01 0.02 0.02 0.04 0.01 0.01 0.02 0.02 0.04 0.00 0.00 0.01 0.01 0.00
0.00 0.00 0.00 0.00 0.00 0.00 0.00 0.00 0.00 0.05 0.00 0.01 0.00 0.00 0.00 0.00 0.00 0.00 0.00 0.00 0.00 0.00 0.00 0.00 0.00 0.00 0.01 0.01 0.01 0.01 0.00 0.01 0.00 0.00 0.00 0.01 0.01 0.00 0.00 0.00 0.01 0.00
0.04 0.00 0.00 0.00 0.00 0.00 0.03 0.00 0.00 0.03 0.03 0.05 0.02 0.00 0.00 0.00 0.00 0.00 0.00 0.00 0.00 0.00 0.00 0.00 0.00 0.00 0.00 0.00 0.00 0.00 0.00 0.00 0.00 0.01 0.00 0.00 0.00 0.00 0.00 0.00 0.00 0.00
0.32 0.21 0.00 0.00 0.00 0.00 0.00 0.00 0.00 0.04 0.01 0.00 0.00 0.01 0.00 0.00 0.00 0.00 0.01 0.00 0.00 0.00 0.01 0.00 0.00 0.00 0.00 0.00 0.00 0.00 0.00 0.00 0.00 0.00 0.00 0.00 0.00 0.00 0.00 0.00 0.00 0.00
0.11 0.18 0.03 0.01 0.00 0.00 0.02 0.02 0.00 0.00 0.00 0.00 0.01 0.05 0.02 0.02 0.02 0.02 0.01 0.00 0.01 0.01 0.00 0.00 0.00 0.00 0.00 0.00 0.00 0.00 0.00 0.00 0.00 0.00 0.00 0.00 0.00 0.00 0.00 0.00 0.00 0.00
0.04 0.06 0.05 0.04 0.00 0.00 0.00 0.00 0.00 0.00 0.00 0.01 0.00 0.01 0.01 0.02 0.02 0.02 0.02 0.03 0.03 0.02 0.02 0.02 0.02 0.01 0.00 0.00 0.00 0.00 0.00 0.00 0.00 0.00 0.00 0.00 0.00 0.00 0.00 0.00 0.00 0.00
0.10 0.22 0.19 0.27 0.34 0.35 0.12 0.03 0.01 0.00 0.00 0.00 0.00 0.00 0.00 0.03 0.05 0.06 0.05 0.02 0.01 0.02 0.04 0.05 0.03 0.01 0.00 0.00 0.00 0.00 0.00 0.00 0.00 0.00 0.00 0.00 0.00 0.00 0.00 0.00 0.00 0.00
0.15 0.19 0.32 0.36 0.43 0.55 0.45 0.12 0.03 0.01 0.01 0.00 0.01 0.03 0.05 0.07 0.07 0.04 0.01 0.00 0.01 0.02 0.03 0.03 0.01 0.00 0.00 0.00 0.00 0.00 0.00 0.00 0.00 0.00 0.00 0.00 0.00 0.00 0.00 0.00 0.00 0.00
0.31 0.29 0.08 0.35 0.71 0.92 0.89 0.33 0.11 0.04 0.03 0.01 0.04 0.02 0.01 0.02 0.01 0.00 0.00 0.00 0.01 0.00 0.00 0.01 0.00 0.00 0.00 0.00 0.00 0.01 0.00 0.00 0.00 0.00 0.00 0.00 0.00 0.01 0.01 0.00 0.01 0.00
0.53 0.49 0.84 0.77 0.88 0.44 0.58 0.57 0.32 0.03 0.06 0.04 0.02 0.01 0.00 0.00 0.00 0.00 0.00 0.00 0.00 0.00 0.00 0.00 0.00 0.00 0.00 0.00 0.00 0.00 0.00 0.00 0.00 0.00 0.00 0.00 0.00 0.00 0.00 0.00 0.00 0.00
0.60 0.58 0.50 0.51 0.47 0.33 0.80 1.21 0.49 0.03 0.01 0.01 0.02 0.01 0.00 0.00 0.00 0.00 0.00 0.00 0.00 0.00 0.00 0.00 0.00 0.00 0.00 0.00 0.00 0.00 0.00 0.00 0.00 0.00 0.00 0.00 0.00 0.00 0.00 0.01 0.02 0.01
0.58 0.62 0.59 0.38 0.68 0.49 0.53 0.41 0.11 0.04 0.01 0.02 0.01 0.01 0.00 0.00 0.00 0.00 0.00 0.00 0.00 0.00 0.00 0.00 0.00 0.00 0.00 0.00 0.00 0.00 0.00 0.02 0.00 0.00 0.00 0.00 0.01 0.01 0.03 0.04 0.02 0.02
0.08 0.18 0.10 0.27 0.22 0.15 0.21 0.17 0.18 0.25 0.13 0.01 0.00 0.00 0.00 0.01 0.00 0.00 0.01 0.01 0.00 0.00 0.00 0.00 0.00 0.00 0.00 0.00 0.00 0.00 0.04 0.02 0.03 0.02 0.01 0.00 0.03 0.07 0.13 0.02 0.02 0.00
0.63 0.36 0.19 0.23 0.21 0.24 0.25 0.28 0.16 0.14 0.16 0.11 0.07 0.00 0.01 0.01 0.02 0.03 0.02 0.00 0.01 0.00 0.02 0.01 0.00 0.00 0.00 0.00 0.00 0.02 0.02 0.08 0.07 0.01 0.09 0.05 0.13 0.10 0.03 0.01 0.01 0.03
0.43 0.44 0.38 0.20 0.36 0.60 0.46 0.49 0.33 0.52 0.35 0.31 0.17 0.08 0.05 0.03 0.01 0.00 0.00 0.00 0.00 0.00 0.00 0.02 0.01 0.00 0.00 0.00 0.00 0.04 0.10 0.16 0.37 0.54 0.28 0.22 0.03 0.06 0.18 0.03 0.03 0.03
0.21 0.62 0.41 0.38 0.76 0.59 0.64 0.58 0.43 0.31 0.32 0.26 0.18 0.14 0.09 0.09 0.07 0.06 0.02 0.00 0.01 0.00 0.00 0.00 0.00 0.00 0.00 0.02 0.06 0.25 0.26 0.18 2.18 1.18 0.34 0.05 0.05 0.06 0.02 0.03 0.05 0.04
0.09 0.28 0.57 0.43 0.79 0.68 0.43 0.51 0.51 0.30 0.20 0.27 0.34 0.54 0.48 0.36 0.32 0.29 0.18 0.09 0.03 0.04 0.00 0.00 0.00 0.00 0.00 0.00 0.02 0.34 0.08 0.22 1.62 2.35 0.54 0.19 0.18 0.05 0.02 0.01 0.01 0.02
0.03 0.03 0.13 0.26 0.66 0.39 0.39 0.52 0.68 0.45 0.51 0.40 0.56 0.59 0.68 0.77 0.38 0.51 0.47 0.11 0.03 0.01 0.03 0.01 0.00 0.00 0.00 0.00 0.09 0.09 0.14 0.38 0.59 1.68 0.45 0.21 0.41 0.61 0.46 0.13 0.06 0.11
0.22 0.45 0.49 0.32 0.41 0.67 0.24 0.33 0.33 0.51 0.44 0.63 0.70 0.57 0.27 0.35 0.35 0.24 0.16 0.04 0.02 0.01 0.00 0.01 0.01 0.00 0.00 0.00 0.00 0.00 0.02 0.21 1.34 0.21 0.41 0.68 0.45 0.46 0.30 0.34 0.29 0.18
0.64 0.50 0.46 0.31 0.42 0.49 0.52 0.60 0.85 0.81 0.68 1.02 1.13 0.66 0.41 0.32 0.33 0.14 0.05 0.01 0.02 0.02 0.01 0.02 0.01 0.01 0.00 0.00 0.00 0.00 0.38 0.97 0.09 0.09 0.13 0.45 1.36 0.86 0.56 0.40 0.18 0.16
0.08 0.21 0.16 0.16 0.16 0.45 0.89 1.33 1.01 0.67 0.42 0.67 0.66 0.35 0.40 0.24 0.25 0.18 0.11 0.04 0.04 0.05 0.02 0.02 0.05 0.05 0.00 0.00 0.05 0.12 0.72 1.04 0.92 0.13 0.08 0.09 0.19 0.16 0.06 0.07 0.04 0.02
0.11 0.06 0.11 0.25 0.33 0.14 0.30 0.44 0.68 0.53 0.53 0.44 0.39 0.29 0.14 0.18 0.13 0.08 0.04 0.03 0.06 0.04 0.02 0.02 0.09 0.15 0.17 0.10 0.10 0.26 0.33 1.04 1.43 0.52 0.18 0.09 0.03 0.01 0.02 0.02 0.03 0.03

ECMWFNIL_prec_precacc_084.txt.gz
Total_Precipitation_Accumulation
0.00 0.00 0.00 0.00 0.00 0.00 0.00 0.00 0.00 0.00 0.00 0.00 0.00 0.00 0.00 0.02 0.02 0.00 0.00 0.00 0.00 0.00 0.00 0.00 0.01 0.01 0.02 0.03 0.03 0.03 0.06 0.02 0.02 0.01 0.01 0.01 0.05 0.03 0.01 0.01 0.02 0.01
0.00 0.00 0.00 0.00 0.01 0.00 0.00 0.00 0.00 0.00 0.00 0.00 0.00 0.01 0.00 0.01 0.00 0.01 0.00 0.00 0.00 0.00 0.00 0.00 0.01 0.01 0.01 0.02 0.02 0.05 0.02 0.03 0.04 0.02 0.01 0.01 0.02 0.04 0.01 0.01 0.01 0.03
0.00 0.00 0.00 0.00 0.00 0.00 0.00 0.01 0.01 0.00 0.01 0.00 0.00 0.00 0.00 0.00 0.00 0.00 0.00 0.00 0.00 0.01 0.00 0.00 0.00 0.00 0.01 0.01 0.03 0.05 0.02 0.02 0.03 0.02 0.01 0.01 0.01 0.03 0.03 0.01 0.01 0.01
0.00 0.00 0.00 0.00 0.00 0.00 0.00 0.01 0.01 0.00 0.01 0.00 0.00 0.00 0.00 0.01 0.00 0.00 0.00 0.00 0.00 0.00 0.00 0.00 0.00 0.01 0.01 0.01 0.02 0.06 0.06 0.05 0.05 0.02 0.02 0.04 0.02 0.01 0.03 0.00 0.01 0.01
0.00 0.00 0.00 0.00 0.00 0.00 0.00 0.00 0.00 0.00 0.00 0.01 0.00 0.00 0.00 0.00 0.00 0.00 0.00 0.00 0.00 0.00 0.00 0.00 0.00 0.00 0.00 0.01 0.01 0.02 0.02 0.04 0.01 0.01 0.02 0.02 0.04 0.00 0.00 0.01 0.01 0.00
0.00 0.00 0.00 0.00 0.00 0.00 0.00 0.00 0.00 0.05 0.00 0.01 0.00 0.00 0.00 0.00 0.00 0.00 0.00 0.00 0.00 0.00 0.00 0.00 0.00 0.00 0.01 0.01 0.01 0.01 0.00 0.01 0.00 0.00 0.00 0.01 0.01 0.00 0.00 0.00 0.01 0.00
0.04 0.00 0.00 0.00 0.00 0.00 0.03 0.00 0.00 0.03 0.03 0.05 0.02 0.00 0.00 0.00 0.00 0.00 0.00 0.00 0.00 0.00 0.00 0.00 0.00 0.00 0.00 0.00 0.00 0.00 0.00 0.00 0.00 0.01 0.00 0.00 0.00 0.00 0.00 0.00 0.00 0.00
0.34 0.21 0.00 0.00 0.00 0.00 0.00 0.00 0.00 0.04 0.01 0.00 0.00 0.01 0.00 0.00 0.00 0.00 0.01 0.00 0.00 0.00 0.01 0.00 0.00 0.00 0.00 0.00 0.00 0.00 0.00 0.00 0.00 0.00 0.00 0.00 0.00 0.00 0.00 0.00 0.00 0.00
0.27 0.24 0.07 0.03 0.00 0.00 0.02 0.02 0.00 0.00 0.00 0.00 0.01 0.05 0.02 0.02 0.02 0.02 0.01 0.00 0.01 0.01 0.00 0.00 0.00 0.00 0.00 0.00 0.00 0.00 0.00 0.00 0.00 0.00 0.00 0.00 0.00 0.00 0.00 0.00 0.00 0.00
0.26 0.27 0.24 0.14 0.09 0.03 0.01 0.00 0.00 0.00 0.00 0.01 0.00 0.01 0.01 0.02 0.02 0.02 0.02 0.03 0.03 0.02 0.02 0.02 0.02 0.01 0.00 0.00 0.00 0.00 0.00 0.00 0.00 0.00 0.00 0.00 0.00 0.00 0.00 0.00 0.00 0.00
0.40 0.46 0.27 0.55 0.73 0.47 0.12 0.03 0.01 0.00 0.00 0.00 0.00 0.00 0.00 0.03 0.05 0.06 0.05 0.02 0.01 0.02 0.04 0.05 0.03 0.01 0.00 0.00 0.00 0.00 0.00 0.00 0.00 0.00 0.00 0.00 0.00 0.00 0.00 0.00 0.00 0.00
0.19 0.21 0.34 0.37 0.43 0.55 0.45 0.12 0.03 0.01 0.01 0.00 0.01 0.03 0.05 0.07 0.07 0.04 0.01 0.00 0.01 0.02 0.03 0.03 0.01 0.00 0.00 0.00 0.00 0.00 0.00 0.00 0.00 0.00 0.00 0.00 0.00 0.00 0.00 0.00 0.00 0.00
0.33 0.31 0.10 0.35 0.72 0.92 0.89 0.33 0.11 0.04 0.03 0.01 0.04 0.02 0.01 0.02 0.01 0.00 0.00 0.00 0.01 0.00 0.00 0.01 0.00 0.00 0.00 0.00 0.00 0.01 0.00 0.00 0.00 0.00 0.00 0.00 0.00 0.01 0.01 0.00 0.01 0.00
0.54 0.50 0.85 0.77 0.88 0.44 0.58 0.57 0.32 0.03 0.06 0.04 0.02 0.01 0.00 0.00 0.00 0.00 0.00 0.00 0.00 0.00 0.00 0.00 0.00 0.00 0.00 0.00 0.00 0.00 0.00 0.00 0.00 0.00 0.00 0.00 0.00 0.00 0.00 0.00 0.00 0.00
0.61 0.58 0.50 0.51 0.47 0.33 0.80 1.21 0.49 0.03 0.01 0.01 0.02 0.01 0.00 0.00 0.00 0.00 0.00 0.00 0.00 0.00 0.00 0.00 0.00 0.00 0.00 0.00 0.00 0.00 0.00 0.00 0.00 0.00 0.00 0.00 0.00 0.00 0.00 0.01 0.02 0.01
0.58 0.62 0.60 0.38 0.68 0.49 0.53 0.42 0.11 0.05 0.02 0.02 0.01 0.01 0.00 0.00 0.00 0.00 0.00 0.00 0.00 0.00 0.00 0.00 0.00 0.00 0.00 0.00 0.00 0.00 0.00 0.02 0.00 0.00 0.00 0.00 0.01 0.01 0.03 0.04 0.02 0.02
0.08 0.18 0.11 0.27 0.22 0.15 0.22 0.18 0.20 0.27 0.16 0.02 0.00 0.00 0.00 0.01 0.00 0.00 0.01 0.01 0.00 0.00 0.00 0.00 0.00 0.00 0.00 0.00 0.00 0.00 0.04 0.02 0.03 0.02 0.01 0.00 0.03 0.07 0.13 0.02 0.02 0.00
0.63 0.36 0.20 0.24 0.21 0.25 0.27 0.28 0.17 0.15 0.17 0.12 0.07 0.00 0.01 0.01 0.02 0.03 0.02 0.00 0.01 0.00 0.02 0.01 0.00 0.00 0.00 0.00 0.00 0.02 0.02 0.08 0.07 0.01 0.09 0.05 0.13 0.10 0.03 0.01 0.01 0.03
0.49 0.49 0.40 0.21 0.36 0.60 0.46 0.50 0.33 0.52 0.35 0.31 0.17 0.08 0.05 0.03 0.01 0.00 0.00 0.00 0.00 0.00 0.00 0.02 0.01 0.00 0.00 0.00 0.00 0.04 0.10 0.16 0.37 0.54 0.28 0.22 0.03 0.06 0.18 0.03 0.03 0.03
0.22 0.65 0.50 0.56 0.87 0.61 0.65 0.59 0.43 0.31 0.32 0.26 0.18 0.14 0.09 0.09 0.07 0.06 0.02 0.00 0.01 0.00 0.00 0.00 0.00 0.00 0.00 0.02 0.06 0.25 0.26 0.18 2.18 1.18 0.34 0.05 0.05 0.06 0.02 0.03 0.05 0.04
0.09 0.28 0.58 0.46 0.85 0.72 0.47 0.54 0.53 0.30 0.22 0.27 0.34 0.54 0.48 0.36 0.32 0.29 0.18 0.09 0.03 0.04 0.00 0.00 0.00 0.00 0.00 0.00 0.02 0.34 0.08 0.22 1.62 2.35 0.54 0.19 0.18 0.05 0.02 0.01 0.01 0.02
0.03 0.03 0.13 0.26 0.66 0.40 0.41 0.55 0.75 0.61 0.57 0.42 0.56 0.59 0.68 0.77 0.38 0.51 0.47 0.11 0.03 0.01 0.03 0.01 0.00 0.00 0.00 0.00 0.09 0.09 0.14 0.38 0.59 1.68 0.45 0.21 0.41 0.61 0.46 0.13 0.06 0.11
0.23 0.45 0.49 0.33 0.41 0.67 0.24 0.34 0.35 0.58 0.61 0.76 0.78 0.59 0.28 0.35 0.35 0.24 0.16 0.05 0.02 0.01 0.00 0.01 0.01 0.00 0.00 0.00 0.00 0.00 0.02 0.21 1.34 0.21 0.41 0.68 0.45 0.46 0.30 0.34 0.29 0.18
0.64 0.50 0.46 0.31 0.42 0.49 0.52 0.60 0.85 0.81 0.74 1.13 1.27 0.83 0.52 0.39 0.40 0.24 0.17 0.10 0.02 0.02 0.01 0.02 0.01 0.01 0.00 0.00 0.00 0.00 0.38 0.97 0.09 0.09 0.13 0.45 1.36 0.86 0.56 0.40 0.18 0.16
0.08 0.21 0.16 0.16 0.16 0.45 0.89 1.33 1.01 0.67 0.42 0.71 0.73 0.41 0.45 0.30 0.32 0.27 0.22 0.14 0.07 0.05 0.02 0.02 0.05 0.05 0.00 0.00 0.05 0.12 0.72 1.04 0.92 0.13 0.08 0.09 0.19 0.16 0.06 0.07 0.04 0.02
0.11 0.06 0.11 0.25 0.33 0.14 0.30 0.44 0.68 0.53 0.53 0.44 0.39 0.31 0.18 0.24 0.23 0.18 0.13 0.11 0.08 0.04 0.02 0.02 0.09 0.15 0.17 0.10 0.10 0.26 0.33 1.04 1.43 0.52 0.18 0.09 0.03 0.01 0.02 0.02 0.03 0.03

ECMWFNIL_prec_precacc_087.txt.gz
Total_Precipitation_Accumulation
0.00 0.00 0.00 0.00 0.00 0.00 0.00 0.00 0.00 0.00 0.00 0.00 0.00 0.00 0.00 0.02 0.02 0.00 0.00 0.00 0.00 0.00 0.00 0.00 0.01 0.01 0.02 0.03 0.03 0.03 0.06 0.02 0.02 0.01 0.01 0.01 0.05 0.03 0.01 0.01 0.02 0.01
0.00 0.00 0.00 0.00 0.01 0.00 0.00 0.00 0.00 0.00 0.00 0.00 0.00 0.01 0.00 0.01 0.00 0.01 0.00 0.00 0.00 0.00 0.00 0.00 0.01 0.01 0.01 0.02 0.02 0.05 0.02 0.03 0.04 0.02 0.01 0.01 0.02 0.04 0.01 0.01 0.01 0.03
0.00 0.00 0.00 0.00 0.00 0.00 0.00 0.01 0.01 0.00 0.01 0.00 0.00 0.00 0.00 0.00 0.00 0.00 0.00 0.00 0.00 0.01 0.00 0.00 0.00 0.00 0.01 0.01 0.03 0.05 0.02 0.02 0.03 0.02 0.01 0.01 0.01 0.03 0.03 0.01 0.01 0.01
0.00 0.00 0.00 0.00 0.00 0.00 0.00 0.01 0.01 0.00 0.01 0.00 0.00 0.00 0.00 0.01 0.00 0.00 0.00 0.00 0.00 0.00 0.00 0.00 0.00 0.01 0.01 0.01 0.02 0.06 0.06 0.05 0.05 0.02 0.02 0.04 0.02 0.01 0.03 0.00 0.01 0.01
0.00 0.00 0.00 0.00 0.00 0.00 0.00 0.00 0.00 0.00 0.00 0.01 0.00 0.00 0.00 0.00 0.00 0.00 0.00 0.00 0.00 0.00 0.00 0.00 0.00 0.00 0.00 0.01 0.01 0.02 0.02 0.04 0.01 0.01 0.02 0.02 0.04 0.00 0.00 0.01 0.01 0.00
0.00 0.00 0.00 0.00 0.00 0.00 0.00 0.00 0.00 0.05 0.00 0.01 0.00 0.00 0.00 0.00 0.00 0.00 0.00 0.00 0.00 0.00 0.00 0.00 0.00 0.00 0.01 0.01 0.01 0.01 0.00 0.01 0.00 0.00 0.00 0.01 0.01 0.00 0.00 0.00 0.01 0.00
0.04 0.00 0.00 0.00 0.00 0.00 0.03 0.00 0.00 0.03 0.03 0.05 0.02 0.00 0.00 0.00 0.00 0.00 0.00 0.00 0.00 0.00 0.00 0.00 0.00 0.00 0.00 0.00 0.00 0.00 0.00 0.00 0.00 0.01 0.00 0.00 0.00 0.00 0.00 0.00 0.00 0.00
0.34 0.21 0.00 0.00 0.00 0.00 0.00 0.00 0.00 0.04 0.01 0.00 0.00 0.01 0.00 0.00 0.00 0.00 0.01 0.00 0.00 0.00 0.01 0.00 0.00 0.00 0.00 0.00 0.00 0.00 0.00 0.00 0.00 0.00 0.00 0.00 0.00 0.00 0.00 0.00 0.00 0.00
0.27 0.24 0.07 0.03 0.00 0.00 0.02 0.02 0.00 0.00 0.00 0.00 0.01 0.05 0.02 0.02 0.02 0.02 0.01 0.00 0.01 0.01 0.00 0.00 0.00 0.00 0.00 0.00 0.00 0.00 0.00 0.00 0.00 0.00 0.00 0.00 0.00 0.00 0.00 0.00 0.00 0.00
0.26 0.27 0.24 0.14 0.09 0.03 0.01 0.00 0.00 0.00 0.00 0.01 0.00 0.01 0.01 0.02 0.02 0.02 0.02 0.03 0.03 0.02 0.02 0.02 0.02 0.01 0.00 0.00 0.00 0.00 0.00 0.00 0.00 0.00 0.00 0.00 0.00 0.00 0.00 0.00 0.00 0.00
0.41 0.46 0.27 0.55 0.73 0.47 0.12 0.03 0.01 0.00 0.00 0.00 0.00 0.00 0.00 0.03 0.05 0.06 0.05 0.02 0.01 0.02 0.04 0.05 0.03 0.01 0.00 0.00 0.00 0.00 0.00 0.00 0.00 0.00 0.00 0.00 0.00 0.00 0.00 0.00 0.00 0.00
0.20 0.21 0.34 0.37 0.43 0.55 0.45 0.12 0.03 0.01 0.01 0.00 0.01 0.03 0.05 0.07 0.07 0.04 0.01 0.00 0.01 0.02 0.03 0.03 0.01 0.00 0.00 0.00 0.00 0.00 0.00 0.00 0.00 0.00 0.00 0.00 0.00 0.00 0.00 0.00 0.00 0.00
0.35 0.31 0.10 0.36 0.72 0.92 0.89 0.33 0.11 0.04 0.03 0.01 0.04 0.02 0.01 0.02 0.01 0.00 0.00 0.00 0.01 0.00 0.00 0.01 0.00 0.00 0.00 0.00 0.00 0.01 0.00 0.00 0.00 0.00 0.00 0.00 0.00 0.01 0.01 0.00 0.01 0.00
0.55 0.51 0.86 0.78 0.89 0.44 0.58 0.57 0.32 0.03 0.06 0.04 0.02 0.01 0.00 0.00 0.00 0.00 0.00 0.00 0.00 0.00 0.00 0.00 0.00 0.00 0.00 0.00 0.00 0.00 0.00 0.00 0.00 0.00 0.00 0.00 0.00 0.00 0.00 0.00 0.00 0.00
0.73 0.60 0.50 0.51 0.47 0.33 0.80 1.21 0.49 0.03 0.01 0.01 0.02 0.01 0.00 0.00 0.00 0.00 0.00 0.00 0.00 0.00 0.00 0.00 0.00 0.00 0.00 0.00 0.00 0.00 0.00 0.00 0.00 0.00 0.00 0.00 0.00 0.00 0.00 0.01 0.02 0.01
0.84 0.74 0.65 0.38 0.68 0.49 0.53 0.42 0.11 0.05 0.02 0.02 0.01 0.01 0.00 0.00 0.00 0.00 0.00 0.00 0.00 0.00 0.00 0.00 0.00 0.00 0.00 0.00 0.00 0.00 0.00 0.02 0.00 0.00 0.00 0.00 0.01 0.01 0.03 0.04 0.02 0.02
0.26 0.22 0.11 0.27 0.22 0.15 0.22 0.18 0.20 0.27 0.16 0.02 0.00 0.00 0.00 0.01 0.00 0.00 0.01 0.01 0.00 0.00 0.00 0.00 0.00 0.00 0.00 0.00 0.00 0.00 0.04 0.02 0.03 0.02 0.01 0.00 0.03 0.07 0.13 0.02 0.02 0.00
0.74 0.45 0.25 0.24 0.22 0.25 0.27 0.29 0.17 0.15 0.17 0.12 0.07 0.00 0.01 0.01 0.02 0.03 0.02 0.00 0.01 0.00 0.02 0.01 0.00 0.00 0.00 0.00 0.00 0.02 0.02 0.08 0.07 0.01 0.09 0.05 0.13 0.10 0.03 0.01 0.01 0.03
0.61 0.57 0.45 0.21 0.37 0.61 0.47 0.50 0.33 0.52 0.35 0.31 0.17 0.08 0.05 0.03 0.01 0.00 0.00 0.00 0.00 0.00 0.00 0.02 0.01 0.00 0.00 0.00 0.00 0.04 0.10 0.16 0.37 0.54 0.28 0.22 0.03 0.06 0.18 0.03 0.03 0.03
0.37 0.78 0.56 0.58 1.01 0.84 0.89 0.72 0.51 0.33 0.32 0.26 0.18 0.14 0.09 0.09 0.07 0.06 0.02 0.00 0.01 0.00 0.00 0.00 0.00 0.00 0.00 0.02 0.06 0.25 0.26 0.18 2.18 1.18 0.34 0.05 0.05 0.06 0.02 0.03 0.05 0.04
0.10 0.29 0.59 0.48 0.93 0.94 0.64 0.70 0.66 0.39 0.27 0.32 0.34 0.54 0.48 0.36 0.32 0.29 0.18 0.09 0.03 0.04 0.00 0.00 0.00 0.00 0.00 0.00 0.02 0.34 0.08 0.22 1.62 2.35 0.54 0.19 0.18 0.05 0.02 0.01 0.01 0.02
0.03 0.03 0.13 0.26 0.67 0.41 0.45 0.65 0.88 0.74 0.70 0.49 0.65 0.86 0.85 0.80 0.38 0.51 0.47 0.11 0.03 0.01 0.03 0.01 0.00 0.00 0.00 0.00 0.09 0.09 0.14 0.38 0.59 1.68 0.45 0.21 0.41 0.61 0.46 0.13 0.06 0.11
0.26 0.45 0.49 0.33 0.41 0.67 0.24 0.35 0.37 0.63 0.66 0.91 0.94 0.79 0.68 0.82 0.68 0.34 0.19 0.07 0.07 0.02 0.00 0.01 0.01 0.00 0.00 0.00 0.00 0.00 0.02 0.21 1.34 0.21 0.41 0.68 0.45 0.46 0.30 0.34 0.29 0.18
0.64 0.50 0.46 0.31 0.42 0.49 0.52 0.60 0.85 0.81 0.74 1.14 1.34 1.01 0.74 0.60 0.56 0.48 0.37 0.28 0.19 0.15 0.05 0.07 0.02 0.01 0.00 0.00 0.00 0.00 0.38 0.97 0.09 0.09 0.13 0.45 1.36 0.86 0.56 0.40 0.18 0.16
0.08 0.21 0.16 0.16 0.16 0.45 0.89 1.33 1.01 0.67 0.42 0.71 0.73 0.41 0.46 0.35 0.42 0.33 0.31 0.30 0.40 0.47 0.29 0.24 0.35 0.21 0.09 0.07 0.12 0.15 0.73 1.06 0.92 0.13 0.08 0.09 0.19 0.16 0.06 0.07 0.04 0.02
0.11 0.06 0.11 0.25 0.33 0.14 0.30 0.44 0.68 0.53 0.53 0.44 0.39 0.31 0.18 0.24 0.23 0.19 0.16 0.15 0.18 0.21 0.36 0.34 0.37 0.44 0.57 0.17 0.23 0.31 0.35 1.05 1.43 0.52 0.18 0.09 0.03 0.01 0.02 0.02 0.03 0.03

ECMWFNIL_prec_precacc_090.txt.gz
Total_Precipitation_Accumulation
0.00 0.00 0.00 0.00 0.00 0.00 0.00 0.00 0.00 0.00 0.00 0.00 0.00 0.00 0.00 0.02 0.02 0.00 0.00 0.00 0.00 0.00 0.00 0.00 0.01 0.01 0.02 0.03 0.03 0.03 0.06 0.02 0.02 0.01 0.01 0.01 0.05 0.03 0.01 0.01 0.02 0.01
0.00 0.00 0.00 0.00 0.01 0.00 0.00 0.00 0.00 0.00 0.00 0.00 0.00 0.01 0.00 0.01 0.00 0.01 0.00 0.00 0.00 0.00 0.00 0.00 0.01 0.01 0.01 0.02 0.02 0.05 0.02 0.03 0.04 0.02 0.01 0.01 0.02 0.04 0.01 0.01 0.01 0.03
0.00 0.00 0.00 0.00 0.00 0.00 0.00 0.01 0.01 0.00 0.01 0.00 0.00 0.00 0.00 0.00 0.00 0.00 0.00 0.00 0.00 0.01 0.00 0.00 0.00 0.00 0.01 0.01 0.03 0.05 0.02 0.02 0.03 0.02 0.01 0.01 0.01 0.03 0.03 0.01 0.01 0.01
0.00 0.00 0.00 0.00 0.00 0.00 0.00 0.01 0.01 0.00 0.01 0.00 0.00 0.00 0.00 0.01 0.00 0.00 0.00 0.00 0.00 0.00 0.00 0.00 0.00 0.01 0.01 0.01 0.02 0.06 0.06 0.05 0.05 0.02 0.02 0.04 0.02 0.01 0.03 0.00 0.01 0.01
0.00 0.00 0.00 0.00 0.00 0.00 0.00 0.00 0.00 0.00 0.00 0.01 0.00 0.00 0.00 0.00 0.00 0.00 0.00 0.00 0.00 0.00 0.00 0.00 0.00 0.00 0.00 0.01 0.01 0.02 0.02 0.04 0.01 0.01 0.02 0.02 0.04 0.00 0.00 0.01 0.01 0.00
0.00 0.00 0.00 0.00 0.00 0.00 0.00 0.00 0.00 0.05 0.00 0.01 0.00 0.00 0.00 0.00 0.00 0.00 0.00 0.00 0.00 0.00 0.00 0.00 0.00 0.00 0.01 0.01 0.01 0.01 0.00 0.01 0.00 0.00 0.00 0.01 0.01 0.00 0.00 0.00 0.01 0.00
0.04 0.00 0.00 0.00 0.00 0.00 0.03 0.00 0.00 0.03 0.03 0.05 0.02 0.00 0.00 0.00 0.00 0.00 0.00 0.00 0.00 0.00 0.00 0.00 0.00 0.00 0.00 0.00 0.00 0.00 0.00 0.00 0.00 0.01 0.00 0.00 0.00 0.00 0.00 0.00 0.00 0.00
0.34 0.21 0.00 0.00 0.00 0.00 0.00 0.00 0.00 0.04 0.01 0.00 0.00 0.01 0.00 0.00 0.00 0.00 0.01 0.00 0.00 0.00 0.01 0.00 0.00 0.00 0.00 0.00 0.00 0.00 0.00 0.00 0.00 0.00 0.00 0.00 0.00 0.00 0.00 0.00 0.00 0.00
0.27 0.24 0.07 0.03 0.00 0.00 0.02 0.02 0.00 0.00 0.00 0.00 0.01 0.05 0.02 0.02 0.02 0.02 0.01 0.00 0.01 0.01 0.00 0.00 0.00 0.00 0.00 0.00 0.00 0.00 0.00 0.00 0.00 0.00 0.00 0.00 0.00 0.00 0.00 0.00 0.00 0.00
0.26 0.27 0.24 0.14 0.09 0.03 0.01 0.00 0.00 0.00 0.00 0.01 0.00 0.01 0.01 0.02 0.02 0.02 0.02 0.03 0.03 0.02 0.02 0.02 0.02 0.01 0.00 0.00 0.00 0.00 0.00 0.00 0.00 0.00 0.00 0.00 0.00 0.00 0.00 0.00 0.00 0.00
0.41 0.46 0.27 0.55 0.73 0.47 0.12 0.03 0.01 0.00 0.00 0.00 0.00 0.00 0.00 0.03 0.05 0.06 0.05 0.02 0.01 0.02 0.04 0.05 0.03 0.01 0.00 0.00 0.00 0.00 0.00 0.00 0.00 0.00 0.00 0.00 0.00 0.00 0.00 0.00 0.00 0.00
0.20 0.21 0.34 0.37 0.43 0.55 0.45 0.12 0.03 0.01 0.01 0.00 0.01 0.03 0.05 0.07 0.07 0.04 0.01 0.00 0.01 0.02 0.03 0.03 0.01 0.00 0.00 0.00 0.00 0.00 0.00 0.00 0.00 0.00 0.00 0.00 0.00 0.00 0.00 0.00 0.00 0.00
0.35 0.31 0.10 0.36 0.72 0.92 0.89 0.33 0.11 0.04 0.03 0.01 0.04 0.02 0.01 0.02 0.01 0.00 0.00 0.00 0.01 0.00 0.00 0.01 0.00 0.00 0.00 0.00 0.00 0.01 0.00 0.00 0.00 0.00 0.00 0.00 0.00 0.01 0.01 0.00 0.01 0.00
0.77 0.63 0.98 0.91 0.91 0.46 0.59 0.57 0.32 0.03 0.06 0.04 0.02 0.01 0.00 0.00 0.00 0.00 0.00 0.00 0.00 0.00 0.00 0.00 0.00 0.00 0.00 0.00 0.00 0.00 0.00 0.00 0.00 0.00 0.00 0.00 0.00 0.00 0.00 0.00 0.00 0.00
1.12 0.94 0.72 0.72 0.68 0.42 0.85 1.22 0.49 0.03 0.01 0.01 0.02 0.01 0.00 0.00 0.00 0.00 0.00 0.00 0.00 0.00 0.00 0.00 0.00 0.00 0.00 0.00 0.00 0.00 0.00 0.00 0.00 0.00 0.00 0.00 0.00 0.00 0.00 0.01 0.02 0.01
1.11 0.95 0.94 0.67 0.89 0.72 0.70 0.50 0.14 0.06 0.02 0.02 0.01 0.01 0.00 0.00 0.00 0.00 0.00 0.00 0.00 0.00 0.00 0.00 0.00 0.00 0.00 0.00 0.00 0.00 0.00 0.02 0.00 0.00 0.00 0.00 0.01 0.01 0.03 0.04 0.02 0.02
0.72 0.61 0.43 0.52 0.32 0.29 0.38 0.32 0.31 0.36 0.21 0.04 0.00 0.00 0.00 0.01 0.00 0.00 0.01 0.01 0.00 0.00 0.00 0.00 0.00 0.00 0.00 0.00 0.00 0.00 0.04 0.02 0.03 0.02 0.01 0.00 0.03 0.07 0.13 0.02 0.02 0.00
1.03 0.65 0.50 0.47 0.36 0.37 0.38 0.41 0.32 0.28 0.32 0.30 0.09 0.00 0.01 0.01 0.02 0.03 0.02 0.00 0.01 0.00 0.02 0.01 0.00 0.00 0.00 0.00 0.00 0.02 0.02 0.08 0.07 0.01 0.09 0.05 0.13 0.10 0.03 0.01 0.01 0.03
0.78 0.73 0.63 0.37 0.52 0.75 0.62 0.63 0.39 0.57 0.44 0.35 0.19 0.08 0.05 0.03 0.01 0.00 0.00 0.00 0.00 0.00 0.00 0.02 0.01 0.00 0.00 0.00 0.00 0.04 0.10 0.16 0.37 0.54 0.28 0.22 0.03 0.06 0.18 0.03 0.03 0.03
0.55 1.06 0.81 0.78 1.17 1.00 1.02 0.81 0.57 0.36 0.37 0.30 0.19 0.14 0.09 0.09 0.07 0.06 0.02 0.00 0.01 0.00 0.00 0.00 0.00 0.00 0.00 0.02 0.06 0.25 0.26 0.18 2.18 1.18 0.34 0.05 0.05 0.06 0.02 0.03 0.05 0.04
0.29 0.42 0.68 0.54 1.00 1.03 0.71 0.80 0.77 0.52 0.39 0.32 0.34 0.54 0.49 0.36 0.32 0.29 0.18 0.09 0.03 0.04 0.00 0.00 0.00 0.00 0.00 0.00 0.02 0.34 0.08 0.22 1.62 2.35 0.54 0.19 0.18 0.05 0.02 0.01 0.01 0.02
0.08 0.07 0.16 0.28 0.68 0.43 0.49 0.68 0.89 0.77 0.76 0.51 0.66 0.87 0.93 0.88 0.40 0.51 0.47 0.11 0.03 0.01 0.04 0.04 0.00 0.00 0.00 0.00 0.09 0.09 0.14 0.38 0.59 1.68 0.45 0.21 0.41 0.61 0.46 0.13 0.06 0.11
0.26 0.45 0.50 0.33 0.41 0.67 0.45 0.87 0.48 0.63 0.69 0.94 0.97 0.82 0.74 0.84 0.69 0.35 0.19 0.07 0.07 0.05 0.06 0.12 0.19 0.04 0.00 0.00 0.00 0.00 0.02 0.21 1.34 0.21 0.41 0.68 0.45 0.46 0.30 0.34 0.29 0.18
0.64 0.50 0.46 0.31 0.42 0.49 0.52 0.60 0.85 0.81 0.74 1.14 1.35 1.07 0.86 0.62 0.58 0.50 0.39 0.33 0.31 0.33 0.21 0.23 0.17 0.05 0.01 0.01 0.00 0.00 0.38 0.97 0.09 0.09 0.13 0.45 1.36 0.86 0.56 0.40 0.18 0.16
0.08 0.21 0.16 0.16 0.16 0.45 0.89 1.33 1.01 0.67 0.42 0.71 0.73 0.41 0.50 0.61 0.58 0.40 0.36 0.33 0.50 0.68 0.52 0.34 0.44 0.38 0.20 0.14 0.18 0.22 0.86 1.06 0.94 0.13 0.08 0.09 0.19 0.16 0.06 0.07 0.04 0.02
0.11 0.06 0.11 0.25 0.33 0.14 0.30 0.44 0.68 0.53 0.53 0.44 0.39 0.31 0.18 0.25 0.23 0.23 0.26 0.29 0.28 0.28 0.38 0.38 0.44 0.69 0.96 0.36 0.40 0.48 0.44 1.06 1.48 0.53 0.18 0.09 0.03 0.01 0.02 0.02 0.03 0.03

ECMWFNIL_prec_precacc_093.txt.gz
Total_Precipitation_Accumulation
0.00 0.00 0.00 0.00 0.00 0.00 0.00 0.00 0.00 0.00 0.00 0.00 0.00 0.00 0.00 0.02 0.02 0.00 0.00 0.01 0.00 0.00 0.01 0.01 0.01 0.02 0.02 0.03 0.03 0.03 0.07 0.02 0.02 0.02 0.01 0.01 0.05 0.03 0.01 0.01 0.02 0.01
0.00 0.00 0.00 0.00 0.01 0.00 0.00 0.00 0.00 0.00 0.00 0.00 0.00 0.01 0.00 0.01 0.00 0.01 0.00 0.00 0.00 0.00 0.01 0.01 0.01 0.01 0.02 0.03 0.03 0.05 0.02 0.03 0.04 0.02 0.01 0.01 0.02 0.04 0.02 0.02 0.01 0.03
0.00 0.00 0.00 0.00 0.00 0.00 0.00 0.01 0.01 0.00 0.01 0.00 0.00 0.00 0.00 0.00 0.00 0.00 0.00 0.00 0.00 0.01 0.01 0.01 0.01 0.01 0.01 0.01 0.04 0.06 0.02 0.03 0.03 0.03 0.01 0.01 0.01 0.03 0.03 0.01 0.01 0.01
0.00 0.00 0.00 0.00 0.00 0.00 0.00 0.01 0.01 0.00 0.01 0.00 0.00 0.00 0.00 0.00 0.00 0.00 0.00 0.00 0.00 0.00 0.00 0.00 0.01 0.02 0.01 0.01 0.03 0.07 0.06 0.05 0.06 0.02 0.02 0.04 0.02 0.01 0.03 0.01 0.01 0.01
0.00 0.00 0.00 0.00 0.00 0.00 0.00 0.00 0.00 0.00 0.00 0.01 0.00 0.00 0.00 0.00 0.00 0.00 0.00 0.00 0.00 0.00 0.00 0.00 0.01 0.00 0.01 0.01 0.01 0.03 0.02 0.04 0.02 0.02 0.02 0.02 0.04 0.01 0.00 0.01 0.01 0.00
0.00 0.00 0.00 0.00 0.00 0.00 0.00 0.00 0.00 0.05 0.00 0.01 0.00 0.00 0.00 0.00 0.00 0.00 0.00 0.00 0.00 0.00 0.00 0.00 0.00 0.00 0.01 0.01 0.01 0.01 0.00 0.01 0.01 0.01 0.01 0.01 0.01 0.00 0.00 0.00 0.01 0.00
0.04 0.00 0.00 0.00 0.00 0.00 0.03 0.00 0.00 0.03 0.03 0.06 0.02 0.00 0.00 0.00 0.00 0.00 0.00 0.00 0.00 0.00 0.00 0.00 0.00 0.00 0.00 0.00 0.00 0.00 0.00 0.00 0.01 0.02 0.01 0.00 0.00 0.00 0.00 0.00 0.00 0.00
0.34 0.21 0.00 0.00 0.00 0.00 0.00 0.00 0.00 0.04 0.01 0.00 0.00 0.01 0.00 0.00 0.00 0.00 0.01 0.00 0.00 0.00 0.01 0.01 0.00 0.00 0.00 0.00 0.00 0.00 0.00 0.00 0.00 0.01 0.01 0.01 0.00 0.00 0.00 0.00 0.00 0.00
0.27 0.24 0.07 0.03 0.00 0.00 0.02 0.02 0.00 0.00 0.00 0.00 0.01 0.05 0.02 0.02 0.02 0.02 0.01 0.00 0.01 0.01 0.00 0.00 0.00 0.00 0.00 0.00 0.00 0.00 0.00 0.00 0.00 0.00 0.01 0.00 0.01 0.00 0.00 0.00 0.00 0.00
0.26 0.27 0.23 0.14 0.09 0.03 0.01 0.00 0.00 0.00 0.00 0.01 0.00 0.01 0.01 0.02 0.02 0.02 0.02 0.03 0.03 0.02 0.02 0.02 0.02 0.01 0.00 0.00 0.00 0.00 0.00 0.00 0.00 0.00 0.00 0.00 0.00 0.00 0.00 0.00 0.00 0.00
0.41 0.46 0.27 0.55 0.73 0.47 0.12 0.03 0.01 0.00 0.00 0.00 0.00 0.00 0.00 0.03 0.05 0.06 0.05 0.02 0.01 0.02 0.04 0.05 0.03 0.01 0.00 0.00 0.00 0.00 0.00 0.00 0.00 0.00 0.00 0.00 0.00 0.00 0.00 0.00 0.00 0.00
0.20 0.21 0.34 0.37 0.43 0.55 0.45 0.12 0.03 0.01 0.01 0.00 0.01 0.03 0.05 0.07 0.07 0.04 0.01 0.00 0.01 0.02 0.03 0.03 0.01 0.00 0.00 0.00 0.00 0.00 0.00 0.00 0.00 0.00 0.00 0.00 0.00 0.00 0.00 0.00 0.00 0.00
0.36 0.32 0.10 0.36 0.72 0.92 0.89 0.33 0.11 0.04 0.03 0.02 0.04 0.02 0.01 0.02 0.01 0.00 0.00 0.00 0.01 0.00 0.00 0.00 0.00 0.00 0.00 0.00 0.00 0.01 0.00 0.00 0.00 0.00 0.00 0.00 0.00 0.01 0.01 0.00 0.01 0.00
0.83 0.66 0.98 0.92 0.91 0.46 0.59 0.57 0.32 0.03 0.06 0.04 0.02 0.01 0.00 0.00 0.00 0.00 0.00 0.00 0.00 0.00 0.00 0.00 0.00 0.00 0.00 0.00 0.00 0.00 0.00 0.00 0.00 0.00 0.00 0.00 0.00 0.00 0.00 0.00 0.00 0.00
1.57 1.47 1.11 1.08 1.05 0.43 0.85 1.22 0.49 0.03 0.01 0.01 0.02 0.01 0.00 0.00 0.00 0.00 0.00 0.00 0.00 0.00 0.00 0.00 0.00 0.00 0.00 0.00 0.00 0.00 0.00 0.00 0.00 0.00 0.00 0.00 0.00 0.00 0.00 0.00 0.02 0.01
1.52 1.49 1.25 0.85 1.08 0.91 0.84 0.55 0.14 0.06 0.02 0.02 0.01 0.01 0.00 0.00 0.00 0.00 0.00 0.00 0.00 0.00 0.00 0.00 0.00 0.00 0.00 0.00 0.00 0.00 0.00 0.02 0.00 0.00 0.00 0.00 0.01 0.01 0.03 0.04 0.02 0.02
1.30 1.16 0.84 0.97 0.75 0.57 0.56 0.40 0.33 0.36 0.21 0.04 0.03 0.00 0.00 0.01 0.00 0.00 0.01 0.01 0.00 0.00 0.00 0.00 0.00 0.00 0.00 0.00 0.00 0.00 0.04 0.02 0.03 0.02 0.01 0.00 0.03 0.07 0.13 0.02 0.02 0.00
1.26 0.84 0.78 0.74 0.62 0.56 0.51 0.50 0.37 0.31 0.33 0.32 0.19 0.07 0.04 0.01 0.02 0.03 0.03 0.00 0.01 0.00 0.02 0.01 0.00 0.00 0.00 0.00 0.00 0.02 0.02 0.08 0.07 0.01 0.09 0.05 0.13 0.10 0.03 0.01 0.01 0.03
0.82 0.79 0.72 0.52 0.72 0.98 0.84 0.75 0.45 0.62 0.49 0.40 0.22 0.12 0.09 0.03 0.02 0.01 0.01 0.00 0.00 0.00 0.00 0.02 0.01 0.00 0.00 0.00 0.00 0.04 0.10 0.16 0.37 0.54 0.28 0.22 0.03 0.06 0.18 0.03 0.03 0.03
0.64 1.13 1.07 1.05 1.46 1.30 1.23 0.94 0.65 0.40 0.40 0.33 0.25 0.17 0.13 0.19 0.14 0.07 0.03 0.01 0.01 0.00 0.00 0.00 0.00 0.00 0.00 0.02 0.06 0.25 0.26 0.18 2.18 1.18 0.34 0.05 0.05 0.06 0.02 0.03 0.05 0.04
0.32 0.47 0.74 0.60 1.12 1.23 0.87 0.87 0.83 0.56 0.42 0.34 0.36 0.56 0.58 0.46 0.38 0.36 0.20 0.10 0.03 0.04 0.00 0.00 0.00 0.00 0.00 0.00 0.02 0.34 0.08 0.22 1.62 2.35 0.54 0.19 0.18 0.05 0.02 0.01 0.01 0.02
0.11 1.01 0.73 0.64 0.96 0.64 0.66 0.78 0.94 0.81 0.80 0.55 0.68 0.88 0.94 0.89 0.45 0.53 0.48 0.12 0.03 0.01 0.04 0.04 0.00 0.00 0.00 0.00 0.09 0.09 0.14 0.37 0.59 1.68 0.45 0.21 0.41 0.61 0.46 0.13 0.06 0.11
0.30 0.71 0.81 0.99 0.79 1.03 1.12 0.96 0.51 0.66 0.74 0.99 1.01 0.85 0.75 0.84 0.69 0.35 0.19 0.07 0.07 0.05 0.06 0.12 0.19 0.05 0.00 0.00 0.00 0.00 0.02 0.21 1.34 0.21 0.41 0.68 0.45 0.46 0.30 0.34 0.29 0.18
0.65 0.51 0.49 0.36 0.84 0.89 0.60 0.64 0.88 0.84 0.75 1.17 1.40 1.09 0.87 0.63 0.58 0.50 0.39 0.33 0.31 0.33 0.22 0.24 0.18 0.05 0.01 0.01 0.01 0.01 0.38 0.97 0.09 0.09 0.13 0.45 1.36 0.86 0.56 0.40 0.18 0.16
0.08 0.21 0.16 0.17 0.16 0.47 0.96 1.34 1.01 0.68 0.43 0.72 0.74 0.42 0.51 0.61 0.58 0.41 0.36 0.33 0.50 0.68 0.52 0.34 0.44 0.38 0.20 0.15 0.18 0.23 0.87 1.07 0.94 0.13 0.08 0.09 0.19 0.16 0.06 0.07 0.04 0.02
0.11 0.06 0.11 0.25 0.34 0.14 0.30 0.44 0.68 0.53 0.53 0.44 0.39 0.31 0.18 0.30 0.23 0.23 0.26 0.31 0.29 0.29 0.39 0.38 0.44 0.70 0.97 0.37 0.41 0.50 0.46 1.07 1.50 0.54 0.19 0.09 0.03 0.02 0.02 0.02 0.03 0.03

ECMWFNIL_prec_precacc_096.txt.gz
Total_Precipitation_Accumulation
0.00 0.00 0.00 0.00 0.00 0.00 0.00 0.00 0.00 0.00 0.00 0.00 0.00 0.00 0.00 0.02 0.02 0.00 0.01 0.01 0.01 0.01 0.02 0.02 0.02 0.02 0.02 0.03 0.04 0.03 0.07 0.02 0.02 0.02 0.02 0.01 0.05 0.03 0.01 0.01 0.02 0.01
0.00 0.00 0.00 0.00 0.01 0.00 0.00 0.00 0.00 0.00 0.00 0.00 0.00 0.01 0.00 0.01 0.00 0.01 0.00 0.01 0.01 0.01 0.02 0.02 0.02 0.02 0.02 0.03 0.03 0.06 0.02 0.03 0.04 0.02 0.01 0.02 0.02 0.04 0.02 0.02 0.01 0.03
0.00 0.00 0.00 0.00 0.00 0.00 0.00 0.01 0.01 0.00 0.01 0.00 0.00 0.00 0.00 0.00 0.00 0.00 0.00 0.00 0.00 0.01 0.02 0.02 0.02 0.02 0.02 0.01 0.04 0.06 0.02 0.03 0.03 0.03 0.01 0.01 0.01 0.03 0.03 0.01 0.01 0.01
0.00 0.00 0.00 0.00 0.00 0.00 0.00 0.01 0.01 0.00 0.01 0.00 0.00 0.00 0.00 0.01 0.00 0.00 0.00 0.00 0.00 0.01 0.01 0.01 0.01 0.02 0.02 0.02 0.04 0.08 0.06 0.05 0.06 0.02 0.02 0.04 0.02 0.01 0.03 0.01 0.01 0.01
0.00 0.00 0.00 0.00 0.00 0.00 0.00 0.00 0.00 0.00 0.00 0.01 0.00 0.00 0.00 0.00 0.00 0.00 0.00 0.00 0.00 0.01 0.01 0.01 0.01 0.01 0.01 0.02 0.02 0.04 0.03 0.04 0.02 0.02 0.03 0.02 0.05 0.01 0.00 0.02 0.01 0.00
0.00 0.00 0.00 0.00 0.00 0.00 0.00 0.00 0.00 0.05 0.00 0.01 0.00 0.00 0.00 0.00 0.00 0.00 0.00 0.00 0.00 0.00 0.00 0.00 0.00 0.00 0.01 0.01 0.02 0.01 0.00 0.02 0.01 0.01 0.01 0.01 0.01 0.00 0.00 0.00 0.01 0.00
0.04 0.00 0.00 0.00 0.00 0.00 0.03 0.00 0.00 0.03 0.03 0.06 0.02 0.00 0.00 0.00 0.00 0.00 0.00 0.00 0.00 0.00 0.00 0.00 0.01 0.00 0.00 0.00 0.00 0.01 0.01 0.00 0.01 0.02 0.01 0.00 0.00 0.01 0.00 0.01 0.01 0.00
0.34 0.21 0.00 0.00 0.00 0.00 0.00 0.00 0.00 0.04 0.01 0.00 0.00 0.01 0.00 0.00 0.00 0.00 0.01 0.00 0.00 0.00 0.01 0.01 0.01 0.01 0.00 0.00 0.00 0.00 0.00 0.00 0.00 0.01 0.02 0.01 0.01 0.01 0.00 0.00 0.00 0.01
0.27 0.24 0.07 0.03 0.00 0.00 0.02 0.02 0.00 0.00 0.00 0.00 0.01 0.05 0.02 0.02 0.02 0.02 0.01 0.00 0.01 0.01 0.01 0.01 0.01 0.01 0.01 0.00 0.00 0.00 0.00 0.00 0.00 0.00 0.01 0.01 0.01 0.01 0.00 0.00 0.00 0.00
0.26 0.27 0.23 0.14 0.09 0.03 0.01 0.00 0.00 0.00 0.00 0.01 0.00 0.01 0.01 0.02 0.02 0.02 0.02 0.03 0.03 0.02 0.02 0.03 0.03 0.02 0.01 0.00 0.00 0.00 0.00 0.00 0.00 0.00 0.00 0.00 0.00 0.00 0.00 0.00 0.00 0.00
0.41 0.47 0.27 0.55 0.73 0.47 0.12 0.03 0.01 0.00 0.00 0.00 0.00 0.00 0.00 0.03 0.05 0.06 0.05 0.02 0.01 0.03 0.05 0.05 0.03 0.01 0.01 0.00 0.00 0.00 0.00 0.00 0.00 0.00 0.00 0.00 0.00 0.00 0.00 0.00 0.00 0.00
0.20 0.21 0.34 0.37 0.44 0.55 0.45 0.12 0.03 0.01 0.01 0.00 0.01 0.03 0.05 0.07 0.07 0.04 0.01 0.00 0.01 0.02 0.03 0.03 0.01 0.00 0.00 0.00 0.00 0.00 0.00 0.00 0.00 0.00 0.00 0.00 0.00 0.00 0.00 0.00 0.00 0.00
0.37 0.32 0.10 0.36 0.72 0.92 0.89 0.33 0.11 0.04 0.03 0.02 0.04 0.02 0.01 0.02 0.01 0.00 0.00 0.00 0.01 0.00 0.00 0.01 0.00 0.00 0.00 0.00 0.00 0.01 0.00 0.00 0.00 0.00 0.00 0.00 0.00 0.01 0.01 0.00 0.01 0.00
0.86 0.67 0.98 0.93 0.92 0.47 0.60 0.58 0.32 0.03 0.06 0.04 0.02 0.01 0.00 0.00 0.00 0.00 0.00 0.00 0.00 0.00 0.00 0.00 0.00 0.00 0.00 0.00 0.00 0.00 0.00 0.00 0.00 0.00 0.00 0.00 0.00 0.00 0.00 0.00 0.00 0.00
1.61 1.50 1.14 1.10 1.08 0.57 0.87 1.23 0.50 0.03 0.02 0.01 0.02 0.01 0.00 0.00 0.00 0.00 0.00 0.00 0.00 0.00 0.00 0.00 0.00 0.00 0.00 0.00 0.00 0.00 0.00 0.00 0.00 0.00 0.00 0.00 0.00 0.00 0.00 0.00 0.02 0.01
1.62 1.58 1.33 0.94 1.16 0.99 0.90 0.58 0.15 0.06 0.03 0.03 0.01 0.01 0.00 0.00 0.00 0.00 0.00 0.00 0.00 0.00 0.00 0.00 0.00 0.00 0.00 0.00 0.00 0.00 0.00 0.02 0.00 0.00 0.00 0.00 0.01 0.01 0.03 0.04 0.02 0.02
1.38 1.25 0.93 1.06 0.87 0.75 0.74 0.54 0.41 0.40 0.21 0.04 0.03 0.00 0.00 0.01 0.00 0.00 0.01 0.01 0.00 0.00 0.00 0.00 0.00 0.00 0.00 0.00 0.00 0.00 0.04 0.02 0.03 0.02 0.01 0.00 0.03 0.07 0.13 0.02 0.02 0.00
1.32 0.92 0.85 0.80 0.68 0.64 0.65 0.67 0.53 0.42 0.38 0.33 0.19 0.07 0.05 0.01 0.02 0.03 0.03 0.00 0.01 0.00 0.02 0.01 0.00 0.00 0.00 0.00 0.00 0.02 0.02 0.08 0.07 0.01 0.09 0.05 0.13 0.10 0.03 0.01 0.01 0.03
0.86 0.85 0.84 0.62 0.86 1.07 0.92 0.85 0.57 0.72 0.57 0.45 0.24 0.12 0.09 0.03 0.02 0.01 0.01 0.00 0.00 0.00 0.01 0.03 0.01 0.00 0.00 0.00 0.00 0.04 0.10 0.16 0.37 0.54 0.28 0.22 0.03 0.06 0.18 0.03 0.03 0.03
0.70 1.19 1.25 1.11 1.51 1.39 1.36 1.09 0.79 0.52 0.53 0.42 0.28 0.19 0.14 0.20 0.14 0.08 0.03 0.01 0.02 0.01 0.01 0.01 0.00 0.00 0.00 0.02 0.06 0.25 0.26 0.18 2.18 1.18 0.34 0.05 0.05 0.06 0.02 0.03 0.05 0.04
0.62 0.66 0.77 0.64 1.21 1.41 1.08 1.12 1.07 0.74 0.56 0.48 0.44 0.62 0.63 0.48 0.39 0.37 0.21 0.11 0.03 0.04 0.09 0.00 0.00 0.00 0.00 0.00 0.02 0.34 0.08 0.22 1.62 2.35 0.54 0.19 0.18 0.05 0.02 0.01 0.01 0.02
0.15 1.03 0.74 0.69 1.20 0.81 0.79 1.08 1.29 1.06 0.91 0.68 0.77 0.93 0.97 0.90 0.46 0.53 0.49 0.13 0.04 0.01 0.10 0.08 0.00 0.00 0.00 0.00 0.09 0.09 0.14 0.37 0.59 1.68 0.45 0.21 0.41 0.61 0.46 0.13 0.06 0.11
0.39 0.76 1.05 1.27 1.05 1.31 1.30 1.14 0.79 0.86 0.96 1.16 1.09 0.90 0.79 0.86 0.70 0.35 0.19 0.08 0.09 0.06 0.09 0.17 0.20 0.05 0.00 0.00 0.00 0.00 0.02 0.21 1.35 0.22 0.41 0.69 0.45 0.46 0.31 0.34 0.29 0.18
0.67 0.53 0.50 0.37 1.07 1.49 0.97 0.93 1.31 1.12 1.14 1.50 1.49 1.14 0.90 0.66 0.59 0.50 0.40 0.33 0.31 0.33 0.23 0.34 0.21 0.05 0.01 0.01 0.01 0.01 0.38 0.98 0.11 0.11 0.15 0.47 1.38 0.87 0.57 0.40 0.18 0.16
0.12 0.21 0.17 0.32 0.25 0.52 1.13 1.66 1.34 1.03 0.87 1.07 1.00 0.61 0.63 0.70 0.66 0.44 0.38 0.34 0.52 0.68 0.52 0.34 0.44 0.38 0.20 0.15 0.18 0.23 0.87 1.07 0.96 0.14 0.10 0.11 0.21 0.18 0.09 0.13 0.18 0.02
0.11 0.07 0.14 0.26 0.44 0.15 0.43 0.53 0.72 0.61 0.99 0.76 0.64 0.58 0.55 0.60 0.37 0.29 0.27 0.31 0.29 0.29 0.39 0.38 0.44 0.70 0.97 0.37 0.41 0.50 0.46 1.08 1.51 0.67 0.42 0.16 0.05 0.03 0.04 0.05 0.26 0.07

ECMWFNIL_prec_precacc_099.txt.gz
Total_Precipitation_Accumulation
0.01 0.01 0.00 0.00 0.00 0.00 0.00 0.00 0.00 0.00 0.00 0.00 0.00 0.00 0.01 0.02 0.02 0.00 0.01 0.06 0.01 0.01 0.03 0.03 0.03 0.02 0.02 0.03 0.04 0.03 0.07 0.02 0.04 0.02 0.02 0.01 0.05 0.03 0.01 0.01 0.02 0.01
0.00 0.00 0.02 0.00 0.01 0.00 0.00 0.00 0.00 0.00 0.00 0.00 0.00 0.01 0.00 0.01 0.00 0.01 0.00 0.01 0.01 0.01 0.03 0.03 0.02 0.02 0.02 0.03 0.03 0.06 0.03 0.04 0.04 0.02 0.01 0.02 0.02 0.04 0.02 0.02 0.01 0.03
0.00 0.00 0.00 0.01 0.00 0.02 0.00 0.01 0.01 0.00 0.01 0.00 0.00 0.00 0.00 0.00 0.00 0.00 0.00 0.00 0.01 0.01 0.03 0.03 0.03 0.02 0.02 0.02 0.04 0.06 0.02 0.03 0.03 0.03 0.01 0.01 0.01 0.03 0.03 0.01 0.01 0.01
0.00 0.00 0.00 0.00 0.01 0.01 0.00 0.01 0.01 0.00 0.01 0.01 0.00 0.00 0.00 0.01 0.00 0.00 0.00 0.00 0.00 0.01 0.01 0.02 0.02 0.04 0.02 0.02 0.04 0.08 0.06 0.05 0.06 0.02 0.02 0.04 0.02 0.01 0.03 0.01 0.01 0.01
0.00 0.00 0.00 0.00 0.00 0.00 0.00 0.00 0.00 0.00 0.00 0.01 0.00 0.00 0.00 0.00 0.00 0.00 0.00 0.00 0.00 0.01 0.01 0.01 0.01 0.02 0.01 0.02 0.02 0.04 0.03 0.07 0.03 0.02 0.03 0.02 0.05 0.01 0.00 0.02 0.01 0.00
0.00 0.00 0.00 0.00 0.00 0.00 0.01 0.00 0.00 0.05 0.00 0.01 0.00 0.00 0.00 0.00 0.00 0.00 0.00 0.00 0.00 0.00 0.00 0.00 0.00 0.00 0.01 0.01 0.02 0.01 0.00 0.02 0.06 0.02 0.01 0.01 0.01 0.00 0.00 0.00 0.01 0.00
0.04 0.00 0.00 0.00 0.00 0.00 0.03 0.00 0.00 0.03 0.03 0.06 0.02 0.00 0.00 0.00 0.00 0.00 0.00 0.00 0.00 0.01 0.00 0.00 0.01 0.00 0.00 0.01 0.01 0.01 0.01 0.01 0.02 0.03 0.01 0.01 0.01 0.01 0.00 0.01 0.01 0.00
0.34 0.22 0.00 0.00 0.00 0.00 0.00 0.00 0.00 0.04 0.01 0.00 0.00 0.01 0.00 0.00 0.00 0.00 0.01 0.00 0.00 0.00 0.01 0.01 0.01 0.01 0.00 0.00 0.03 0.00 0.01 0.00 0.00 0.01 0.02 0.01 0.01 0.01 0.00 0.00 0.00 0.01
0.27 0.25 0.07 0.03 0.00 0.00 0.02 0.02 0.00 0.00 0.00 0.00 0.01 0.05 0.02 0.02 0.02 0.02 0.01 0.00 0.01 0.01 0.01 0.01 0.01 0.01 0.01 0.01 0.00 0.00 0.00 0.00 0.00 0.02 0.01 0.01 0.01 0.01 0.00 0.00 0.00 0.00
0.26 0.27 0.23 0.14 0.09 0.03 0.01 0.00 0.00 0.00 0.00 0.01 0.00 0.01 0.01 0.02 0.02 0.02 0.02 0.03 0.03 0.02 0.02 0.03 0.03 0.02 0.01 0.00 0.00 0.00 0.01 0.00 0.00 0.00 0.00 0.01 0.00 0.00 0.00 0.00 0.00 0.00
0.41 0.47 0.27 0.55 0.73 0.47 0.12 0.03 0.01 0.00 0.00 0.00 0.00 0.00 0.00 0.03 0.05 0.06 0.05 0.02 0.01 0.03 0.05 0.05 0.03 0.01 0.01 0.00 0.00 0.00 0.00 0.01 0.00 0.00 0.00 0.00 0.00 0.00 0.00 0.00 0.00 0.00
0.21 0.21 0.34 0.37 0.44 0.55 0.45 0.12 0.03 0.01 0.01 0.00 0.01 0.03 0.05 0.07 0.07 0.04 0.01 0.00 0.01 0.02 0.03 0.03 0.01 0.00 0.00 0.00 0.00 0.00 0.00 0.00 0.00 0.00 0.00 0.00 0.00 0.00 0.00 0.00 0.00 0.00
0.37 0.32 0.10 0.36 0.72 0.92 0.89 0.33 0.11 0.04 0.03 0.02 0.04 0.02 0.01 0.02 0.01 0.00 0.00 0.00 0.01 0.00 0.00 0.01 0.01 0.00 0.00 0.00 0.00 0.01 0.00 0.00 0.00 0.00 0.00 0.00 0.00 0.01 0.01 0.00 0.01 0.00
0.86 0.67 0.98 0.93 0.93 0.48 0.60 0.58 0.33 0.03 0.06 0.04 0.02 0.01 0.00 0.00 0.00 0.00 0.00 0.00 0.00 0.00 0.00 0.02 0.02 0.02 0.00 0.00 0.00 0.00 0.00 0.00 0.00 0.00 0.00 0.00 0.00 0.00 0.00 0.00 0.00 0.00
1.61 1.51 1.15 1.10 1.09 0.58 0.87 1.23 0.50 0.03 0.02 0.01 0.02 0.01 0.00 0.00 0.00 0.00 0.00 0.00 0.00 0.00 0.00 0.00 0.00 0.00 0.00 0.01 0.00 0.00 0.01 0.01 0.01 0.00 0.00 0.00 0.00 0.01 0.00 0.01 0.02 0.01
1.63 1.59 1.34 0.95 1.17 0.99 0.93 0.59 0.15 0.06 0.03 0.03 0.01 0.01 0.00 0.00 0.00 0.00 0.00 0.00 0.00 0.00 0.00 0.00 0.00 0.00 0.00 0.00 0.00 0.01 0.02 0.03 0.01 0.01 0.00 0.00 0.02 0.03 0.03 0.04 0.02 0.02
1.39 1.26 0.94 1.08 0.89 0.77 0.76 0.54 0.41 0.40 0.22 0.05 0.03 0.00 0.00 0.01 0.00 0.00 0.01 0.01 0.00 0.00 0.00 0.00 0.00 0.00 0.00 0.00 0.00 0.00 0.04 0.02 0.03 0.02 0.01 0.00 0.03 0.07 0.13 0.02 0.02 0.00
1.36 0.96 0.87 0.82 0.70 0.66 0.67 0.68 0.54 0.42 0.38 0.34 0.20 0.07 0.05 0.01 0.02 0.03 0.03 0.00 0.01 0.00 0.02 0.01 0.00 0.00 0.00 0.00 0.00 0.02 0.02 0.08 0.07 0.01 0.09 0.05 0.13 0.10 0.03 0.02 0.01 0.03
0.92 0.87 0.86 0.65 0.89 1.10 0.93 0.86 0.57 0.73 0.58 0.46 0.26 0.13 0.10 0.03 0.02 0.02 0.01 0.00 0.00 0.00 0.01 0.06 0.11 0.00 0.00 0.00 0.00 0.04 0.10 0.16 0.37 0.54 0.28 0.22 0.03 0.06 0.18 0.03 0.03 0.03
1.19 1.62 1.54 1.17 1.59 1.61 1.42 1.19 0.82 0.54 0.55 0.43 0.30 0.26 0.16 0.22 0.17 0.09 0.05 0.02 0.02 0.05 0.05 0.14 0.01 0.01 0.00 0.02 0.06 0.25 0.26 0.18 2.18 1.18 0.34 0.05 0.05 0.06 0.02 0.03 0.05 0.04
0.79 0.70 0.83 0.71 1.34 1.55 1.32 1.27 1.11 0.80 0.60 0.59 0.52 0.84 0.83 0.69 0.51 0.51 0.45 0.17 0.07 0.07 0.16 0.01 0.00 0.00 0.00 0.00 0.02 0.34 0.08 0.22 1.62 2.35 0.54 0.19 0.18 0.05 0.02 0.01 0.01 0.02
0.47 1.30 0.79 0.72 1.35 0.89 1.07 1.47 1.63 1.31 1.17 0.78 0.99 1.24 1.45 1.19 0.66 0.68 0.54 0.35 0.17 0.13 0.63 0.10 0.02 0.01 0.00 0.00 0.09 0.09 0.14 0.37 0.60 1.69 0.45 0.25 0.41 0.61 0.46 0.17 0.09 0.11
0.59 0.99 1.14 1.31 1.09 1.33 1.34 1.19 0.96 1.03 1.35 1.49 1.48 1.25 0.94 1.13 1.19 0.59 0.29 0.49 0.57 0.31 0.46 0.20 0.21 0.05 0.00 0.00 0.00 0.00 0.02 0.22 1.43 0.28 0.68 0.93 0.67 0.71 0.53 0.70 0.54 0.41
1.05 0.63 0.52 0.39 1.08 1.51 0.99 0.95 1.39 1.91 1.72 1.94 1.88 1.40 1.27 1.01 0.74 0.68 0.51 0.46 0.40 0.46 0.40 0.36 0.22 0.05 0.01 0.01 0.01 0.01 0.38 1.01 0.30 0.23 0.20 0.95 1.58 1.16 0.89 0.87 0.51 0.25
0.31 0.22 0.18 0.32 0.25 0.52 1.15 1.76 1.41 1.14 1.28 1.66 1.43 1.32 1.27 0.98 0.92 0.63 0.44 0.39 0.53 0.69 0.53 0.35 0.45 0.38 0.20 0.15 0.18 0.23 0.87 1.09 1.16 0.48 0.31 0.40 0.72 0.58 0.72 0.70 0.27 0.06
0.11 0.13 0.16 0.26 0.44 0.15 0.43 0.53 0.76 1.23 1.28 0.99 0.86 0.86 0.75 0.82 0.56 0.40 0.32 0.32 0.29 0.29 0.39 0.38 0.44 0.70 0.97 0.37 0.41 0.50 0.46 1.08 1.55 0.74 0.59 0.39 0.26 0.34 0.42 1.09 0.72 0.10

ECMWFNIL_prec_precacc_102.txt.gz
Total_Precipitation_Accumulation
0.02 0.01 0.01 0.01 0.04 0.01 0.01 0.00 0.01 0.01 0.01 0.02 0.00 0.03 0.03 0.03 0.04 0.00 0.04 0.08 0.01 0.02 0.04 0.04 0.03 0.03 0.02 0.03 0.04 0.03 0.07 0.02 0.04 0.02 0.02 0.01 0.05 0.05 0.02 0.01 0.03 0.01
0.02 0.01 0.02 0.02 0.01 0.01 0.00 0.01 0.00 0.01 0.00 0.01 0.09 0.04 0.01 0.02 0.01 0.04 0.00 0.02 0.01 0.02 0.07 0.03 0.02 0.02 0.03 0.04 0.05 0.06 0.04 0.09 0.04 0.05 0.01 0.02 0.02 0.05 0.02 0.02 0.01 0.03
0.00 0.02 0.01 0.01 0.02 0.05 0.03 0.01 0.01 0.02 0.01 0.01 0.02 0.02 0.01 0.04 0.01 0.02 0.01 0.02 0.02 0.03 0.03 0.03 0.03 0.03 0.02 0.03 0.05 0.06 0.02 0.03 0.03 0.03 0.01 0.02 0.01 0.03 0.03 0.01 0.02 0.02
0.00 0.00 0.01 0.01 0.02 0.04 0.02 0.02 0.01 0.00 0.03 0.01 0.01 0.02 0.02 0.04 0.02 0.02 0.02 0.02 0.01 0.01 0.01 0.02 0.03 0.04 0.02 0.02 0.04 0.08 0.08 0.06 0.06 0.03 0.03 0.04 0.02 0.01 0.03 0.02 0.02 0.01
0.00 0.00 0.00 0.00 0.00 0.01 0.02 0.02 0.03 0.03 0.02 0.01 0.00 0.02 0.00 0.02 0.01 0.00 0.02 0.00 0.00 0.02 0.02 0.02 0.01 0.03 0.03 0.03 0.02 0.04 0.04 0.07 0.03 0.02 0.03 0.02 0.05 0.01 0.00 0.02 0.01 0.01
0.00 0.00 0.00 0.00 0.00 0.01 0.01 0.01 0.02 0.06 0.00 0.01 0.00 0.02 0.01 0.00 0.01 0.02 0.02 0.01 0.01 0.01 0.03 0.01 0.03 0.00 0.01 0.01 0.02 0.01 0.01 0.02 0.06 0.07 0.01 0.01 0.01 0.00 0.01 0.01 0.02 0.01
0.04 0.00 0.00 0.00 0.00 0.00 0.03 0.00 0.00 0.03 0.03 0.06 0.02 0.01 0.00 0.00 0.00 0.00 0.00 0.01 0.01 0.02 0.01 0.02 0.01 0.02 0.01 0.02 0.02 0.02 0.01 0.02 0.02 0.04 0.01 0.01 0.01 0.01 0.01 0.01 0.01 0.00
0.35 0.22 0.00 0.00 0.00 0.00 0.00 0.00 0.00 0.04 0.01 0.00 0.00 0.01 0.00 0.01 0.01 0.00 0.01 0.02 0.00 0.01 0.02 0.03 0.02 0.01 0.02 0.03 0.08 0.02 0.01 0.02 0.00 0.01 0.02 0.01 0.01 0.02 0.01 0.00 0.00 0.01
0.27 0.25 0.08 0.03 0.00 0.00 0.02 0.02 0.00 0.00 0.00 0.00 0.01 0.05 0.02 0.02 0.03 0.03 0.01 0.00 0.01 0.01 0.01 0.01 0.02 0.02 0.01 0.02 0.01 0.01 0.02 0.01 0.02 0.03 0.01 0.01 0.01 0.01 0.00 0.00 0.00 0.00
0.26 0.27 0.24 0.15 0.09 0.03 0.01 0.00 0.00 0.00 0.00 0.01 0.00 0.01 0.01 0.02 0.02 0.02 0.02 0.03 0.03 0.02 0.02 0.03 0.03 0.03 0.02 0.01 0.01 0.01 0.04 0.02 0.01 0.01 0.01 0.03 0.01 0.00 0.01 0.01 0.00 0.01
0.41 0.47 0.27 0.55 0.73 0.47 0.12 0.03 0.01 0.00 0.00 0.00 0.00 0.00 0.00 0.03 0.05 0.06 0.05 0.02 0.01 0.03 0.05 0.05 0.03 0.01 0.01 0.00 0.02 0.02 0.03 0.02 0.01 0.00 0.00 0.00 0.01 0.00 0.00 0.00 0.00 0.01
0.21 0.21 0.34 0.37 0.44 0.55 0.45 0.12 0.03 0.01 0.01 0.00 0.01 0.03 0.05 0.07 0.07 0.04 0.01 0.01 0.01 0.02 0.03 0.03 0.01 0.00 0.00 0.00 0.00 0.02 0.01 0.01 0.02 0.02 0.00 0.00 0.00 0.00 0.00 0.00 0.00 0.00
0.37 0.32 0.10 0.36 0.72 0.92 0.89 0.33 0.11 0.04 0.03 0.02 0.04 0.02 0.01 0.02 0.01 0.00 0.00 0.01 0.01 0.00 0.00 0.01 0.01 0.00 0.00 0.00 0.00 0.01 0.01 0.02 0.02 0.03 0.03 0.00 0.00 0.01 0.01 0.00 0.01 0.01
0.86 0.67 0.98 0.93 0.93 0.48 0.60 0.58 0.33 0.03 0.06 0.05 0.03 0.01 0.00 0.00 0.00 0.00 0.00 0.00 0.01 0.04 0.02 0.02 0.02 0.03 0.01 0.01 0.01 0.01 0.00 0.01 0.05 0.01 0.05 0.01 0.01 0.03 0.02 0.00 0.01 0.01
1.61 1.51 1.15 1.11 1.09 0.58 0.87 1.23 0.50 0.03 0.02 0.01 0.02 0.01 0.00 0.00 0.00 0.00 0.00 0.00 0.00 0.00 0.03 0.00 0.02 0.06 0.04 0.05 0.00 0.00 0.01 0.02 0.02 0.03 0.02 0.00 0.00 0.02 0.02 0.03 0.03 0.01
1.64 1.59 1.34 0.96 1.18 1.01 0.94 0.60 0.15 0.06 0.03 0.03 0.01 0.01 0.00 0.00 0.00 0.00 0.00 0.00 0.00 0.00 0.00 0.03 0.00 0.01 0.01 0.00 0.00 0.02 0.03 0.05 0.02 0.02 0.02 0.02 0.02 0.03 0.04 0.04 0.02 0.03
1.40 1.26 0.95 1.09 0.91 0.79 0.79 0.57 0.43 0.40 0.22 0.05 0.03 0.00 0.00 0.01 0.00 0.01 0.01 0.01 0.00 0.02 0.02 0.02 0.03 0.00 0.00 0.00 0.00 0.00 0.05 0.03 0.04 0.10 0.16 0.06 0.05 0.08 0.13 0.03 0.02 0.00
1.36 0.96 0.87 0.82 0.70 0.67 0.67 0.68 0.55 0.43 0.38 0.34 0.20 0.07 0.05 0.02 0.02 0.04 0.03 0.01 0.01 0.00 0.02 0.03 0.01 0.00 0.00 0.00 0.00 0.02 0.02 0.08 0.07 0.02 0.11 0.06 0.17 0.13 0.05 0.02 0.02 0.05
0.96 0.90 0.90 0.65 0.89 1.10 0.93 0.86 0.58 0.73 0.58 0.46 0.26 0.13 0.15 0.13 0.10 0.02 0.01 0.00 0.01 0.02 0.02 0.08 0.11 0.00 0.00 0.00 0.00 0.04 0.10 0.16 0.37 0.54 0.28 0.22 0.04 0.07 0.21 0.07 0.11 0.06
1.24 1.64 1.55 1.17 1.59 1.61 1.43 1.19 0.83 0.57 0.59 0.44 0.30 0.26 0.16 0.23 0.17 0.12 0.11 0.05 0.04 0.10 0.16 0.19 0.02 0.01 0.00 0.02 0.06 0.25 0.26 0.18 2.18 1.18 0.34 0.05 0.05 0.07 0.06 0.12 0.08 0.18
1.05 1.16 1.12 0.98 1.48 1.61 1.36 1.34 1.47 1.05 0.82 0.73 0.72 0.89 0.95 0.72 0.53 0.51 0.52 0.44 0.31 0.19 0.23 0.08 0.05 0.02 0.00 0.00 0.02 0.34 0.08 0.22 1.62 2.35 0.54 0.20 0.19 0.06 0.02 0.02 0.16 0.16
0.51 1.40 0.96 0.81 1.49 1.01 1.18 1.53 1.77 1.63 1.85 1.31 1.19 1.34 1.53 1.22 0.68 0.74 0.71 0.50 0.22 0.20 0.75 0.21 0.10 0.05 0.01 0.00 0.09 0.09 0.14 0.37 0.60 1.69 0.50 0.27 0.45 0.70 0.52 0.41 0.45 0.47
0.78 1.61 1.48 1.39 1.17 1.36 1.39 1.27 1.02 1.10 1.53 1.75 1.63 1.51 1.07 1.19 1.31 0.98 0.68 0.71 0.67 0.42 0.62 0.32 0.27 0.08 0.02 0.01 0.00 0.00 0.02 0.22 1.44 0.29 0.68 0.93 0.68 0.72 0.57 0.89 0.64 0.44
1.37 0.95 0.87 0.49 1.21 1.67 1.13 1.20 1.70 2.32 1.79 2.25 2.19 1.54 1.37 1.06 0.90 1.00 0.72 0.68 0.61 0.71 0.64 0.56 0.36 0.13 0.04 0.02 0.01 0.01 0.38 1.01 0.30 0.26 0.20 0.95 1.58 1.17 1.01 0.88 0.52 0.25
0.45 0.29 0.28 0.42 0.35 0.60 1.32 1.98 1.71 1.30 1.70 1.95 1.66 1.59 1.51 1.07 1.01 1.05 0.58 0.50 0.72 0.96 0.71 0.53 0.59 0.48 0.25 0.17 0.18 0.23 0.87 1.09 1.16 0.56 0.35 0.41 0.73 0.58 0.72 0.70 0.27 0.06
0.15 0.16 0.20 0.31 0.48 0.19 0.54 0.74 0.92 1.27 1.47 1.09 0.91 0.99 1.04 1.24 1.00 0.82 0.59 0.60 0.52 0.46 0.50 0.45 0.51 0.74 0.99 0.38 0.42 0.50 0.46 1.08 1.60 0.90 0.62 0.48 0.30 0.35 0.43 1.10 0.73 0.11

ECMWFNIL_prec_precacc_105.txt.gz
Total_Precipitation_Accumulation
0.02 0.01 0.01 0.01 0.04 0.01 0.01 0.00 0.01 0.01 0.01 0.02 0.00 0.03 0.03 0.03 0.04 0.00 0.04 0.08 0.01 0.02 0.04 0.04 0.03 0.03 0.02 0.03 0.04 0.03 0.07 0.02 0.04 0.02 0.02 0.01 0.05 0.05 0.02 0.01 0.03 0.01
0.02 0.01 0.02 0.02 0.01 0.01 0.00 0.01 0.00 0.01 0.00 0.01 0.09 0.04 0.01 0.02 0.01 0.04 0.00 0.02 0.01 0.02 0.07 0.03 0.02 0.02 0.03 0.04 0.05 0.06 0.04 0.09 0.04 0.05 0.01 0.02 0.02 0.05 0.02 0.02 0.01 0.03
0.00 0.02 0.01 0.01 0.02 0.05 0.03 0.01 0.01 0.02 0.01 0.01 0.02 0.02 0.01 0.04 0.01 0.02 0.01 0.02 0.02 0.03 0.03 0.03 0.03 0.03 0.02 0.03 0.05 0.06 0.02 0.03 0.03 0.03 0.01 0.02 0.01 0.03 0.03 0.01 0.02 0.02
0.00 0.00 0.01 0.01 0.02 0.04 0.03 0.02 0.02 0.00 0.03 0.01 0.01 0.02 0.02 0.04 0.02 0.02 0.02 0.02 0.01 0.01 0.01 0.02 0.03 0.04 0.02 0.02 0.04 0.08 0.08 0.06 0.06 0.03 0.03 0.04 0.02 0.01 0.03 0.02 0.02 0.01
0.00 0.00 0.00 0.00 0.00 0.01 0.02 0.02 0.03 0.03 0.02 0.01 0.00 0.02 0.00 0.02 0.01 0.00 0.02 0.00 0.00 0.02 0.02 0.02 0.01 0.03 0.03 0.03 0.02 0.04 0.04 0.07 0.03 0.02 0.03 0.02 0.05 0.01 0.00 0.02 0.02 0.01
0.00 0.00 0.00 0.00 0.00 0.01 0.01 0.01 0.02 0.06 0.00 0.01 0.00 0.02 0.01 0.00 0.01 0.02 0.02 0.01 0.01 0.01 0.03 0.01 0.03 0.00 0.01 0.01 0.02 0.01 0.01 0.02 0.06 0.07 0.01 0.01 0.01 0.00 0.01 0.01 0.02 0.01
0.04 0.00 0.00 0.00 0.00 0.00 0.03 0.00 0.00 0.03 0.03 0.06 0.02 0.01 0.00 0.00 0.00 0.00 0.00 0.01 0.01 0.02 0.01 0.02 0.01 0.02 0.01 0.02 0.02 0.02 0.01 0.02 0.02 0.04 0.01 0.01 0.01 0.01 0.01 0.01 0.01 0.00
0.35 0.22 0.00 0.00 0.00 0.00 0.00 0.00 0.00 0.04 0.01 0.01 0.00 0.01 0.00 0.01 0.01 0.00 0.01 0.02 0.00 0.01 0.02 0.03 0.02 0.01 0.02 0.03 0.08 0.02 0.01 0.02 0.00 0.01 0.02 0.01 0.01 0.02 0.01 0.00 0.00 0.01
0.27 0.25 0.08 0.03 0.00 0.00 0.02 0.02 0.00 0.00 0.00 0.00 0.01 0.05 0.02 0.02 0.03 0.03 0.01 0.00 0.01 0.01 0.01 0.01 0.02 0.02 0.01 0.02 0.01 0.01 0.02 0.01 0.02 0.03 0.01 0.01 0.01 0.01 0.00 0.00 0.00 0.00
0.26 0.27 0.24 0.15 0.09 0.03 0.01 0.00 0.00 0.00 0.00 0.01 0.00 0.01 0.01 0.02 0.02 0.02 0.02 0.03 0.03 0.02 0.02 0.03 0.03 0.03 0.02 0.01 0.01 0.01 0.04 0.02 0.01 0.01 0.01 0.03 0.01 0.00 0.01 0.01 0.00 0.01
0.41 0.47 0.27 0.55 0.73 0.47 0.12 0.03 0.01 0.00 0.00 0.00 0.00 0.00 0.00 0.03 0.05 0.06 0.05 0.02 0.01 0.03 0.05 0.05 0.03 0.01 0.01 0.00 0.02 0.02 0.03 0.02 0.01 0.00 0.00 0.00 0.01 0.00 0.00 0.00 0.00 0.01
0.21 0.21 0.34 0.37 0.44 0.55 0.45 0.12 0.03 0.01 0.01 0.00 0.01 0.03 0.05 0.07 0.07 0.04 0.01 0.01 0.01 0.02 0.03 0.03 0.01 0.00 0.00 0.00 0.00 0.02 0.01 0.01 0.02 0.02 0.00 0.00 0.00 0.00 0.00 0.00 0.01 0.00
0.37 0.32 0.10 0.36 0.72 0.92 0.89 0.33 0.11 0.04 0.03 0.02 0.04 0.02 0.01 0.02 0.01 0.00 0.00 0.01 0.01 0.00 0.00 0.01 0.01 0.00 0.00 0.00 0.00 0.01 0.01 0.02 0.02 0.03 0.03 0.00 0.00 0.01 0.01 0.00 0.02 0.01
0.86 0.67 0.98 0.93 0.93 0.48 0.60 0.58 0.33 0.03 0.06 0.05 0.03 0.01 0.00 0.00 0.00 0.00 0.00 0.00 0.01 0.04 0.02 0.02 0.02 0.03 0.01 0.01 0.01 0.01 0.00 0.01 0.05 0.01 0.05 0.01 0.01 0.03 0.02 0.01 0.11 0.03
1.61 1.51 1.15 1.11 1.09 0.58 0.87 1.23 0.50 0.03 0.02 0.01 0.02 0.01 0.00 0.00 0.00 0.00 0.00 0.00 0.00 0.00 0.03 0.00 0.02 0.08 0.09 0.12 0.02 0.00 0.01 0.02 0.02 0.03 0.02 0.00 0.00 0.02 0.05 0.22 0.30 0.08
1.65 1.60 1.35 0.97 1.18 1.01 0.94 0.60 0.15 0.06 0.03 0.03 0.01 0.01 0.00 0.00 0.00 0.00 0.00 0.00 0.00 0.01 0.01 0.04 0.00 0.04 0.01 0.00 0.00 0.02 0.03 0.05 0.03 0.02 0.02 0.02 0.02 0.03 0.04 0.16 0.07 0.36
1.84 1.62 1.40 1.26 1.00 0.80 0.79 0.57 0.43 0.40 0.22 0.05 0.03 0.00 0.00 0.01 0.00 0.01 0.01 0.01 0.00 0.02 0.02 0.04 0.03 0.01 0.00 0.00 0.00 0.00 0.05 0.03 0.04 0.10 0.16 0.06 0.05 0.08 0.13 0.09 0.12 0.12
1.83 1.34 1.25 1.07 0.83 0.86 0.79 0.76 0.55 0.43 0.38 0.34 0.20 0.07 0.05 0.02 0.02 0.04 0.03 0.01 0.01 0.00 0.03 0.03 0.01 0.01 0.00 0.00 0.00 0.02 0.02 0.08 0.07 0.02 0.11 0.06 0.17 0.13 0.05 0.02 0.03 0.05
1.21 1.18 1.21 0.77 0.90 1.10 0.93 0.86 0.58 0.73 0.58 0.46 0.26 0.13 0.15 0.13 0.10 0.02 0.01 0.00 0.01 0.02 0.02 0.08 0.11 0.00 0.00 0.00 0.00 0.04 0.10 0.16 0.37 0.54 0.28 0.22 0.04 0.07 0.21 0.07 0.11 0.06
1.24 1.65 1.56 1.17 1.59 1.61 1.43 1.19 0.83 0.57 0.59 0.44 0.30 0.26 0.16 0.23 0.17 0.13 0.12 0.06 0.04 0.10 0.16 0.19 0.03 0.03 0.01 0.02 0.06 0.25 0.26 0.18 2.18 1.18 0.34 0.05 0.05 0.07 0.06 0.12 0.08 0.18
1.05 1.16 1.12 0.98 1.48 1.61 1.36 1.34 1.47 1.05 0.82 0.73 0.72 0.89 0.96 0.72 0.54 0.51 0.52 0.46 0.33 0.19 0.23 0.08 0.05 0.04 0.02 0.01 0.02 0.34 0.08 0.22 1.62 2.35 0.54 0.20 0.19 0.06 0.02 0.02 0.16 0.16
0.52 1.40 0.96 0.82 1.49 1.02 1.19 1.54 1.77 1.64 1.85 1.31 1.19 1.34 1.53 1.23 0.70 0.76 0.74 0.58 0.25 0.22 0.77 0.21 0.11 0.07 0.05 0.03 0.11 0.10 0.14 0.37 0.60 1.69 0.50 0.27 0.45 0.70 0.52 0.41 0.45 0.47
0.80 1.63 1.50 1.41 1.19 1.38 1.41 1.29 1.03 1.11 1.54 1.76 1.64 1.52 1.07 1.21 1.37 1.00 0.70 0.71 0.67 0.43 0.78 0.34 0.29 0.10 0.03 0.02 0.02 0.01 0.03 0.22 1.44 0.29 0.68 0.93 0.68 0.72 0.57 0.89 0.64 0.44
1.39 0.97 0.90 0.52 1.24 1.70 1.16 1.22 1.70 2.32 1.79 2.26 2.19 1.55 1.38 1.08 0.93 1.05 0.76 1.11 1.41 0.95 0.68 0.65 0.41 0.17 0.07 0.04 0.03 0.02 0.39 1.02 0.30 0.26 0.20 0.95 1.58 1.17 1.01 0.88 0.52 0.25
0.48 0.33 0.32 0.44 0.37 0.63 1.35 2.01 1.73 1.33 1.72 1.97 1.68 1.62 1.54 1.12 1.07 1.09 0.86 1.46 1.53 1.44 1.13 0.60 0.73 0.59 0.33 0.23 0.22 0.26 0.89 1.10 1.17 0.56 0.35 0.41 0.73 0.58 0.72 0.70 0.27 0.06
0.18 0.21 0.26 0.35 0.51 0.21 0.57 0.89 0.96 1.34 1.56 1.18 1.01 1.08 1.10 1.28 1.03 0.97 0.92 1.15 1.05 0.89 0.80 0.57 0.56 0.95 1.19 0.56 0.51 0.57 0.50 1.10 1.62 0.91 0.63 0.49 0.31 0.35 0.43 1.10 0.73 0.11

ECMWFNIL_prec_precacc_108.txt.gz
Total_Precipitation_Accumulation
0.02 0.01 0.01 0.01 0.04 0.01 0.01 0.00 0.01 0.01 0.01 0.02 0.00 0.03 0.03 0.03 0.04 0.00 0.04 0.08 0.01 0.02 0.04 0.04 0.03 0.03 0.02 0.03 0.04 0.03 0.07 0.02 0.04 0.02 0.02 0.01 0.05 0.05 0.02 0.01 0.03 0.01
0.02 0.01 0.02 0.02 0.01 0.01 0.00 0.01 0.00 0.01 0.00 0.01 0.09 0.04 0.01 0.02 0.01 0.04 0.00 0.02 0.01 0.02 0.07 0.03 0.02 0.02 0.03 0.04 0.05 0.06 0.04 0.09 0.04 0.05 0.01 0.02 0.02 0.05 0.02 0.02 0.01 0.03
0.00 0.02 0.01 0.01 0.02 0.05 0.03 0.01 0.01 0.02 0.01 0.01 0.02 0.02 0.01 0.04 0.01 0.02 0.01 0.02 0.02 0.03 0.03 0.03 0.03 0.03 0.02 0.03 0.05 0.06 0.02 0.03 0.03 0.03 0.01 0.02 0.01 0.03 0.03 0.01 0.02 0.02
0.00 0.00 0.01 0.01 0.02 0.04 0.03 0.02 0.02 0.00 0.03 0.01 0.01 0.02 0.02 0.04 0.02 0.02 0.02 0.02 0.01 0.01 0.01 0.02 0.03 0.04 0.02 0.02 0.04 0.08 0.08 0.06 0.06 0.03 0.03 0.04 0.02 0.01 0.03 0.02 0.02 0.01
0.00 0.00 0.00 0.00 0.00 0.01 0.02 0.02 0.03 0.03 0.02 0.01 0.00 0.02 0.00 0.02 0.01 0.00 0.02 0.00 0.00 0.02 0.02 0.02 0.01 0.03 0.03 0.03 0.02 0.04 0.04 0.07 0.03 0.02 0.03 0.02 0.05 0.01 0.00 0.02 0.02 0.01
0.00 0.00 0.00 0.00 0.00 0.01 0.01 0.01 0.02 0.06 0.00 0.01 0.00 0.02 0.01 0.00 0.01 0.02 0.02 0.01 0.01 0.01 0.03 0.01 0.03 0.00 0.01 0.01 0.02 0.01 0.01 0.02 0.06 0.07 0.01 0.01 0.01 0.00 0.01 0.01 0.02 0.01
0.04 0.00 0.00 0.00 0.00 0.00 0.03 0.00 0.00 0.03 0.03 0.06 0.02 0.01 0.00 0.00 0.00 0.00 0.00 0.01 0.01 0.02 0.01 0.02 0.01 0.02 0.01 0.02 0.02 0.02 0.01 0.02 0.02 0.04 0.01 0.01 0.01 0.01 0.01 0.01 0.01 0.00
0.35 0.22 0.00 0.00 0.00 0.00 0.00 0.00 0.00 0.04 0.01 0.01 0.00 0.01 0.00 0.01 0.01 0.00 0.01 0.02 0.00 0.01 0.02 0.03 0.02 0.01 0.02 0.03 0.08 0.02 0.01 0.02 0.00 0.01 0.02 0.01 0.01 0.02 0.01 0.00 0.00 0.01
0.27 0.25 0.08 0.03 0.00 0.00 0.02 0.02 0.00 0.00 0.00 0.00 0.01 0.05 0.02 0.02 0.03 0.03 0.01 0.00 0.01 0.01 0.01 0.01 0.02 0.02 0.01 0.02 0.01 0.01 0.02 0.01 0.02 0.03 0.01 0.01 0.01 0.01 0.00 0.00 0.00 0.00
0.26 0.27 0.24 0.15 0.09 0.03 0.01 0.00 0.00 0.00 0.00 0.01 0.00 0.01 0.01 0.02 0.02 0.02 0.02 0.03 0.03 0.02 0.02 0.03 0.03 0.03 0.02 0.01 0.01 0.01 0.04 0.02 0.01 0.01 0.01 0.03 0.01 0.00 0.01 0.01 0.00 0.01
0.41 0.47 0.27 0.55 0.73 0.47 0.12 0.03 0.01 0.00 0.00 0.00 0.00 0.00 0.00 0.03 0.05 0.06 0.05 0.02 0.01 0.03 0.05 0.05 0.03 0.01 0.01 0.00 0.02 0.02 0.03 0.02 0.01 0.00 0.00 0.00 0.01 0.00 0.00 0.00 0.00 0.02
0.21 0.21 0.34 0.37 0.44 0.55 0.45 0.12 0.03 0.01 0.01 0.00 0.01 0.03 0.05 0.07 0.07 0.04 0.01 0.01 0.01 0.02 0.03 0.03 0.01 0.00 0.00 0.00 0.00 0.02 0.01 0.01 0.02 0.02 0.00 0.00 0.00 0.01 0.00 0.01 0.01 0.00
0.37 0.32 0.10 0.36 0.72 0.92 0.89 0.33 0.11 0.04 0.03 0.02 0.04 0.02 0.01 0.02 0.01 0.00 0.00 0.01 0.01 0.00 0.00 0.01 0.01 0.00 0.00 0.00 0.00 0.01 0.01 0.02 0.02 0.03 0.03 0.01 0.06 0.04 0.04 0.07 0.02 0.03
0.86 0.67 0.98 0.93 0.93 0.48 0.60 0.58 0.33 0.03 0.06 0.05 0.03 0.01 0.00 0.00 0.00 0.00 0.00 0.00 0.01 0.04 0.02 0.02 0.02 0.03 0.01 0.01 0.02 0.01 0.00 0.01 0.05 0.01 0.05 0.06 0.16 0.14 0.15 0.17 0.32 0.05
1.61 1.51 1.15 1.11 1.09 0.58 0.87 1.23 0.50 0.03 0.02 0.01 0.02 0.01 0.00 0.00 0.00 0.00 0.00 0.00 0.00 0.00 0.03 0.00 0.02 0.08 0.09 0.12 0.02 0.00 0.01 0.02 0.02 0.03 0.02 0.02 0.03 0.10 0.10 0.23 0.31 0.08
1.65 1.60 1.35 0.97 1.19 1.01 0.94 0.60 0.15 0.06 0.03 0.03 0.01 0.01 0.00 0.00 0.00 0.00 0.00 0.00 0.00 0.01 0.01 0.04 0.00 0.04 0.01 0.00 0.00 0.02 0.03 0.05 0.03 0.02 0.02 0.02 0.04 0.03 0.05 0.16 0.08 0.36
1.86 1.63 1.40 1.26 1.00 0.80 0.80 0.57 0.43 0.40 0.22 0.05 0.03 0.00 0.00 0.01 0.00 0.01 0.01 0.01 0.00 0.02 0.02 0.04 0.03 0.01 0.00 0.00 0.00 0.00 0.05 0.03 0.04 0.10 0.16 0.06 0.11 0.08 0.13 0.09 0.12 0.12
1.83 1.35 1.25 1.07 0.86 0.87 0.80 0.76 0.55 0.43 0.38 0.34 0.20 0.07 0.05 0.02 0.02 0.04 0.03 0.01 0.01 0.00 0.03 0.03 0.01 0.01 0.00 0.00 0.00 0.02 0.02 0.08 0.07 0.02 0.12 0.06 0.17 0.13 0.05 0.02 0.03 0.05
1.22 1.19 1.22 0.78 0.90 1.10 0.94 0.87 0.58 0.73 0.58 0.46 0.26 0.13 0.15 0.13 0.10 0.02 0.01 0.00 0.01 0.02 0.02 0.08 0.11 0.00 0.00 0.00 0.00 0.04 0.10 0.16 0.37 0.54 0.28 0.22 0.04 0.07 0.21 0.07 0.11 0.06
1.25 1.66 1.57 1.18 1.60 1.61 1.43 1.19 0.83 0.57 0.59 0.44 0.30 0.26 0.16 0.23 0.17 0.13 0.12 0.06 0.04 0.10 0.16 0.19 0.03 0.03 0.01 0.02 0.06 0.25 0.26 0.18 2.18 1.18 0.34 0.05 0.05 0.07 0.06 0.12 0.08 0.18
1.09 1.17 1.13 0.99 1.49 1.62 1.36 1.34 1.47 1.05 0.82 0.73 0.72 0.89 0.96 0.72 0.54 0.51 0.52 0.46 0.34 0.22 0.23 0.08 0.06 0.04 0.02 0.01 0.02 0.34 0.08 0.22 1.62 2.35 0.54 0.20 0.19 0.06 0.02 0.02 0.16 0.16
0.57 1.45 0.99 0.83 1.50 1.03 1.19 1.55 1.78 1.64 1.85 1.31 1.19 1.35 1.55 1.23 0.70 0.76 0.74 0.58 0.27 0.23 0.79 0.25 0.15 0.08 0.05 0.03 0.12 0.10 0.14 0.37 0.60 1.69 0.50 0.27 0.45 0.70 0.52 0.41 0.45 0.47
0.80 1.64 1.51 1.43 1.20 1.39 1.41 1.29 1.06 1.13 1.56 1.76 1.64 1.52 1.07 1.21 1.37 1.00 0.70 0.72 0.68 0.43 0.83 0.65 0.75 0.25 0.12 0.06 0.05 0.03 0.04 0.22 1.44 0.29 0.68 0.93 0.68 0.72 0.57 0.89 0.64 0.44
1.39 0.97 0.90 0.53 1.26 1.71 1.17 1.22 1.70 2.32 1.81 2.27 2.19 1.55 1.38 1.08 0.93 1.06 0.81 1.56 1.73 0.96 0.71 0.71 0.50 0.29 0.18 0.07 0.06 0.04 0.40 1.04 0.31 0.26 0.21 0.97 1.59 1.19 1.02 0.88 0.52 0.25
0.48 0.33 0.32 0.45 0.38 0.63 1.36 2.03 1.74 1.33 1.73 1.98 1.70 1.62 1.54 1.13 1.13 1.22 1.46 2.10 1.83 1.47 1.15 0.64 0.77 0.62 0.35 0.24 0.24 0.27 0.96 1.19 1.29 0.74 0.40 0.42 0.74 0.59 0.73 0.71 0.28 0.06
0.18 0.21 0.26 0.35 0.51 0.22 0.58 0.91 1.00 1.39 1.60 1.21 1.02 1.20 1.26 1.49 1.20 2.05 1.71 1.54 1.26 0.95 1.02 0.68 0.65 1.01 1.24 0.59 0.54 0.59 0.52 1.19 1.84 1.02 0.66 0.51 0.33 0.36 0.44 1.11 0.73 0.11

ECMWFNIL_prec_precacc_111.txt.gz
Total_Precipitation_Accumulation
0.02 0.01 0.01 0.01 0.04 0.01 0.01 0.00 0.01 0.01 0.01 0.02 0.00 0.03 0.03 0.03 0.04 0.00 0.04 0.08 0.01 0.02 0.04 0.04 0.03 0.03 0.02 0.03 0.04 0.03 0.07 0.02 0.04 0.02 0.02 0.01 0.05 0.05 0.02 0.01 0.03 0.01
0.02 0.01 0.02 0.02 0.01 0.01 0.00 0.01 0.00 0.01 0.00 0.01 0.09 0.04 0.01 0.02 0.01 0.04 0.00 0.02 0.01 0.02 0.07 0.03 0.02 0.02 0.03 0.04 0.05 0.06 0.04 0.09 0.04 0.05 0.01 0.02 0.02 0.05 0.02 0.02 0.01 0.03
0.00 0.02 0.01 0.01 0.02 0.05 0.03 0.01 0.01 0.02 0.01 0.01 0.02 0.02 0.01 0.04 0.01 0.02 0.01 0.02 0.02 0.03 0.03 0.03 0.03 0.03 0.02 0.03 0.05 0.06 0.02 0.03 0.03 0.03 0.01 0.02 0.01 0.03 0.03 0.01 0.02 0.02
0.00 0.00 0.01 0.01 0.02 0.04 0.03 0.02 0.02 0.00 0.03 0.01 0.01 0.02 0.02 0.04 0.02 0.02 0.02 0.02 0.01 0.01 0.01 0.02 0.03 0.04 0.02 0.02 0.04 0.08 0.08 0.06 0.06 0.03 0.03 0.04 0.02 0.01 0.03 0.02 0.02 0.01
0.00 0.00 0.00 0.00 0.00 0.01 0.02 0.02 0.03 0.03 0.02 0.01 0.00 0.02 0.00 0.02 0.01 0.00 0.02 0.00 0.00 0.02 0.02 0.02 0.01 0.03 0.03 0.03 0.02 0.04 0.04 0.07 0.03 0.02 0.03 0.02 0.05 0.01 0.00 0.02 0.02 0.01
0.00 0.00 0.00 0.00 0.00 0.01 0.01 0.01 0.02 0.06 0.00 0.01 0.00 0.02 0.01 0.00 0.01 0.02 0.02 0.01 0.01 0.01 0.03 0.01 0.03 0.00 0.01 0.01 0.02 0.01 0.01 0.02 0.06 0.07 0.01 0.01 0.01 0.00 0.01 0.01 0.02 0.01
0.04 0.00 0.00 0.00 0.00 0.00 0.03 0.00 0.00 0.03 0.03 0.06 0.02 0.01 0.00 0.00 0.00 0.00 0.00 0.01 0.01 0.02 0.01 0.02 0.01 0.02 0.01 0.02 0.02 0.02 0.01 0.02 0.02 0.04 0.01 0.01 0.01 0.01 0.01 0.01 0.01 0.00
0.35 0.22 0.00 0.00 0.00 0.00 0.00 0.00 0.00 0.04 0.01 0.01 0.00 0.01 0.00 0.01 0.01 0.00 0.01 0.02 0.00 0.01 0.02 0.03 0.02 0.01 0.02 0.03 0.08 0.02 0.01 0.02 0.00 0.01 0.02 0.01 0.01 0.02 0.01 0.00 0.00 0.01
0.27 0.25 0.08 0.03 0.00 0.00 0.02 0.02 0.00 0.00 0.00 0.00 0.01 0.05 0.02 0.02 0.03 0.03 0.01 0.00 0.01 0.01 0.01 0.01 0.02 0.02 0.01 0.02 0.01 0.01 0.02 0.01 0.02 0.03 0.01 0.01 0.01 0.01 0.00 0.00 0.00 0.00
0.26 0.27 0.24 0.15 0.09 0.03 0.01 0.00 0.00 0.00 0.00 0.01 0.00 0.01 0.01 0.02 0.02 0.02 0.02 0.03 0.03 0.02 0.02 0.03 0.03 0.03 0.02 0.01 0.01 0.01 0.04 0.02 0.01 0.01 0.01 0.03 0.01 0.00 0.01 0.01 0.00 0.01
0.41 0.47 0.27 0.55 0.73 0.47 0.12 0.03 0.01 0.00 0.00 0.00 0.00 0.00 0.00 0.03 0.05 0.06 0.05 0.02 0.01 0.03 0.05 0.05 0.03 0.01 0.01 0.00 0.02 0.02 0.03 0.02 0.01 0.00 0.00 0.00 0.01 0.00 0.00 0.00 0.00 0.02
0.21 0.21 0.34 0.37 0.44 0.55 0.45 0.12 0.03 0.01 0.01 0.00 0.01 0.03 0.05 0.07 0.07 0.04 0.01 0.01 0.01 0.02 0.03 0.03 0.01 0.00 0.00 0.00 0.00 0.02 0.01 0.01 0.02 0.02 0.00 0.00 0.00 0.01 0.00 0.01 0.01 0.00
0.37 0.32 0.10 0.36 0.72 0.92 0.89 0.33 0.11 0.04 0.03 0.02 0.04 0.02 0.01 0.02 0.01 0.00 0.00 0.01 0.01 0.00 0.00 0.01 0.01 0.00 0.00 0.00 0.00 0.01 0.01 0.02 0.02 0.03 0.03 0.02 0.06 0.05 0.04 0.07 0.02 0.03
0.86 0.67 0.98 0.93 0.93 0.48 0.60 0.58 0.33 0.03 0.06 0.05 0.03 0.01 0.00 0.00 0.00 0.00 0.00 0.00 0.01 0.04 0.02 0.02 0.02 0.03 0.01 0.01 0.02 0.01 0.00 0.01 0.05 0.01 0.05 0.06 0.16 0.14 0.15 0.17 0.32 0.05
1.61 1.51 1.15 1.11 1.09 0.58 0.87 1.23 0.50 0.03 0.02 0.01 0.02 0.01 0.00 0.00 0.00 0.00 0.00 0.00 0.00 0.00 0.03 0.00 0.02 0.08 0.09 0.12 0.02 0.00 0.01 0.02 0.02 0.03 0.02 0.02 0.03 0.10 0.10 0.23 0.31 0.08
1.65 1.60 1.35 0.97 1.19 1.01 0.94 0.60 0.15 0.06 0.03 0.03 0.01 0.01 0.00 0.00 0.00 0.00 0.00 0.00 0.00 0.01 0.01 0.04 0.00 0.04 0.01 0.00 0.00 0.02 0.03 0.05 0.03 0.02 0.02 0.02 0.04 0.03 0.05 0.16 0.08 0.36
1.86 1.63 1.40 1.26 1.00 0.80 0.80 0.57 0.43 0.40 0.22 0.05 0.03 0.00 0.00 0.01 0.00 0.01 0.01 0.01 0.00 0.02 0.02 0.04 0.03 0.01 0.00 0.00 0.00 0.00 0.05 0.03 0.04 0.10 0.16 0.06 0.11 0.08 0.13 0.09 0.12 0.12
1.84 1.35 1.25 1.07 0.86 0.87 0.80 0.76 0.55 0.43 0.38 0.34 0.20 0.07 0.05 0.02 0.02 0.04 0.03 0.01 0.01 0.00 0.03 0.03 0.01 0.01 0.00 0.00 0.00 0.02 0.02 0.08 0.07 0.02 0.12 0.06 0.17 0.13 0.05 0.02 0.03 0.05
1.22 1.19 1.22 0.78 0.90 1.10 0.94 0.87 0.58 0.73 0.58 0.46 0.26 0.13 0.15 0.13 0.10 0.02 0.01 0.00 0.01 0.02 0.02 0.08 0.11 0.00 0.00 0.00 0.00 0.04 0.10 0.16 0.37 0.54 0.28 0.22 0.04 0.07 0.21 0.07 0.11 0.06
1.26 1.67 1.57 1.18 1.60 1.61 1.43 1.19 0.83 0.57 0.59 0.44 0.30 0.26 0.16 0.23 0.17 0.13 0.12 0.06 0.04 0.10 0.16 0.19 0.03 0.03 0.01 0.02 0.06 0.25 0.26 0.18 2.18 1.18 0.34 0.05 0.05 0.07 0.06 0.12 0.08 0.18
1.12 1.19 1.14 1.01 1.49 1.62 1.36 1.34 1.47 1.05 0.82 0.73 0.72 0.89 0.96 0.72 0.54 0.51 0.52 0.46 0.34 0.22 0.23 0.08 0.06 0.04 0.02 0.01 0.02 0.34 0.08 0.22 1.62 2.35 0.54 0.20 0.19 0.06 0.02 0.02 0.16 0.16
0.69 1.52 1.03 0.86 1.52 1.03 1.20 1.56 1.78 1.64 1.93 1.32 1.19 1.35 1.55 1.23 0.70 0.77 0.76 0.58 0.27 0.23 0.79 0.25 0.15 0.08 0.05 0.03 0.15 0.14 0.16 0.40 0.62 1.70 0.50 0.27 0.45 0.70 0.52 0.41 0.45 0.47
0.89 1.72 1.58 1.49 1.25 1.51 1.63 1.45 1.16 1.24 1.61 1.87 1.78 1.66 1.24 1.50 1.88 1.35 0.79 0.77 0.70 0.43 0.83 0.65 0.75 0.25 0.12 0.07 0.08 0.06 0.07 0.25 1.46 0.30 0.69 0.93 0.68 0.72 0.57 0.89 0.64 0.44
1.43 1.01 0.93 0.55 1.28 1.79 1.26 1.33 1.80 2.57 2.04 2.55 2.49 1.65 1.46 1.22 1.08 1.16 0.85 1.64 1.77 0.97 0.71 0.77 0.51 0.32 0.45 0.07 0.08 0.11 0.46 1.08 0.37 0.45 0.25 1.01 1.60 1.19 1.02 0.89 0.52 0.25
0.48 0.33 0.32 0.45 0.38 0.63 1.37 2.03 1.75 1.37 1.84 2.31 2.02 1.95 1.89 1.63 1.41 1.31 1.58 2.36 1.88 1.60 1.17 0.65 0.78 0.63 0.36 0.24 0.24 0.27 0.96 1.20 1.31 0.86 0.46 0.50 0.83 0.65 0.75 0.73 0.32 0.08
0.18 0.21 0.27 0.43 0.52 0.22 0.58 0.92 1.00 1.40 1.61 1.24 1.19 1.70 1.42 1.93 1.54 2.28 1.94 1.68 1.29 0.97 1.04 0.70 0.68 1.05 1.27 0.61 0.55 0.60 0.52 1.20 1.85 1.06 0.80 0.73 0.48 0.43 0.89 1.46 0.90 0.15

ECMWFNIL_prec_precacc_114.txt.gz
Total_Precipitation_Accumulation
0.02 0.01 0.01 0.01 0.04 0.01 0.01 0.00 0.01 0.01 0.01 0.02 0.00 0.03 0.03 0.03 0.04 0.00 0.04 0.08 0.01 0.02 0.04 0.04 0.03 0.03 0.02 0.03 0.04 0.03 0.07 0.02 0.04 0.02 0.02 0.01 0.05 0.05 0.02 0.01 0.03 0.01
0.02 0.01 0.02 0.02 0.01 0.01 0.00 0.01 0.00 0.01 0.00 0.01 0.09 0.04 0.01 0.02 0.01 0.04 0.00 0.02 0.01 0.02 0.07 0.03 0.02 0.02 0.03 0.04 0.05 0.06 0.04 0.09 0.04 0.05 0.01 0.02 0.02 0.05 0.02 0.02 0.01 0.03
0.00 0.02 0.01 0.01 0.02 0.05 0.03 0.01 0.01 0.02 0.01 0.01 0.02 0.02 0.01 0.04 0.01 0.02 0.01 0.02 0.02 0.03 0.03 0.03 0.03 0.03 0.02 0.03 0.05 0.06 0.02 0.03 0.03 0.03 0.01 0.02 0.01 0.03 0.03 0.01 0.02 0.02
0.00 0.00 0.01 0.01 0.02 0.04 0.03 0.02 0.02 0.00 0.03 0.01 0.01 0.02 0.02 0.04 0.02 0.02 0.02 0.02 0.01 0.01 0.01 0.02 0.03 0.04 0.02 0.02 0.04 0.08 0.08 0.06 0.06 0.03 0.03 0.04 0.02 0.01 0.03 0.02 0.02 0.01
0.00 0.00 0.00 0.00 0.00 0.01 0.02 0.02 0.03 0.03 0.02 0.01 0.00 0.02 0.00 0.02 0.01 0.00 0.02 0.00 0.00 0.02 0.02 0.02 0.01 0.03 0.03 0.03 0.02 0.04 0.04 0.07 0.03 0.02 0.03 0.02 0.05 0.01 0.00 0.02 0.02 0.01
0.00 0.00 0.00 0.00 0.00 0.01 0.01 0.01 0.02 0.06 0.00 0.01 0.00 0.02 0.01 0.00 0.01 0.02 0.02 0.01 0.01 0.01 0.03 0.01 0.03 0.00 0.01 0.01 0.02 0.01 0.01 0.02 0.06 0.07 0.01 0.01 0.01 0.00 0.01 0.01 0.02 0.01
0.04 0.00 0.00 0.00 0.00 0.00 0.03 0.00 0.00 0.03 0.03 0.06 0.02 0.01 0.00 0.00 0.00 0.00 0.00 0.01 0.01 0.02 0.01 0.02 0.01 0.02 0.01 0.02 0.02 0.02 0.01 0.02 0.02 0.04 0.01 0.01 0.01 0.01 0.01 0.01 0.01 0.00
0.35 0.22 0.00 0.00 0.00 0.00 0.00 0.00 0.00 0.04 0.01 0.01 0.00 0.01 0.00 0.01 0.01 0.00 0.01 0.02 0.00 0.01 0.02 0.03 0.02 0.01 0.02 0.03 0.08 0.02 0.01 0.02 0.00 0.01 0.02 0.01 0.01 0.02 0.01 0.00 0.00 0.01
0.27 0.25 0.08 0.03 0.00 0.00 0.02 0.02 0.00 0.00 0.00 0.00 0.01 0.05 0.02 0.02 0.03 0.03 0.01 0.00 0.01 0.01 0.01 0.01 0.02 0.02 0.01 0.02 0.01 0.01 0.02 0.01 0.02 0.03 0.01 0.01 0.01 0.01 0.00 0.00 0.00 0.00
0.26 0.27 0.24 0.15 0.09 0.03 0.01 0.00 0.00 0.00 0.00 0.01 0.00 0.01 0.01 0.02 0.02 0.02 0.02 0.03 0.03 0.02 0.02 0.03 0.03 0.03 0.02 0.01 0.01 0.01 0.04 0.02 0.01 0.01 0.01 0.03 0.01 0.00 0.01 0.01 0.00 0.01
0.41 0.47 0.27 0.55 0.73 0.47 0.12 0.03 0.01 0.00 0.00 0.00 0.00 0.00 0.00 0.03 0.05 0.06 0.05 0.02 0.01 0.03 0.05 0.05 0.03 0.01 0.01 0.00 0.02 0.02 0.03 0.02 0.01 0.00 0.00 0.00 0.01 0.00 0.00 0.00 0.00 0.02
0.21 0.21 0.34 0.37 0.44 0.55 0.45 0.12 0.03 0.01 0.01 0.00 0.01 0.03 0.05 0.07 0.07 0.04 0.01 0.01 0.01 0.02 0.03 0.03 0.01 0.00 0.00 0.00 0.00 0.02 0.01 0.01 0.02 0.02 0.00 0.00 0.00 0.01 0.00 0.01 0.01 0.00
0.37 0.32 0.10 0.36 0.72 0.92 0.89 0.33 0.11 0.04 0.03 0.02 0.04 0.02 0.01 0.02 0.01 0.00 0.00 0.01 0.01 0.00 0.00 0.01 0.01 0.00 0.00 0.00 0.00 0.01 0.01 0.02 0.02 0.03 0.03 0.02 0.06 0.05 0.04 0.07 0.02 0.03
0.86 0.67 0.98 0.93 0.93 0.48 0.60 0.58 0.33 0.03 0.06 0.05 0.03 0.01 0.00 0.00 0.00 0.00 0.00 0.00 0.01 0.04 0.02 0.02 0.02 0.03 0.01 0.01 0.02 0.01 0.00 0.01 0.05 0.01 0.05 0.06 0.16 0.14 0.15 0.17 0.32 0.05
1.61 1.51 1.15 1.11 1.09 0.58 0.87 1.23 0.50 0.03 0.02 0.01 0.02 0.01 0.00 0.00 0.00 0.00 0.00 0.00 0.00 0.00 0.03 0.00 0.02 0.08 0.09 0.12 0.02 0.00 0.01 0.02 0.02 0.03 0.02 0.02 0.03 0.10 0.10 0.23 0.31 0.08
1.65 1.60 1.35 0.97 1.19 1.01 0.94 0.60 0.15 0.06 0.03 0.03 0.01 0.01 0.00 0.00 0.00 0.00 0.00 0.00 0.00 0.01 0.01 0.04 0.00 0.04 0.01 0.00 0.00 0.02 0.03 0.05 0.03 0.02 0.02 0.02 0.04 0.03 0.05 0.16 0.08 0.36
1.86 1.63 1.40 1.26 1.00 0.80 0.80 0.57 0.43 0.40 0.22 0.05 0.03 0.00 0.00 0.01 0.00 0.01 0.01 0.01 0.00 0.02 0.02 0.04 0.03 0.01 0.00 0.00 0.00 0.00 0.05 0.03 0.04 0.10 0.16 0.06 0.11 0.08 0.13 0.09 0.12 0.12
1.84 1.35 1.25 1.07 0.86 0.87 0.80 0.76 0.55 0.43 0.38 0.34 0.20 0.07 0.05 0.02 0.02 0.04 0.03 0.01 0.01 0.00 0.03 0.03 0.01 0.01 0.00 0.00 0.00 0.02 0.02 0.08 0.07 0.02 0.12 0.06 0.17 0.13 0.05 0.02 0.03 0.05
1.22 1.19 1.22 0.78 0.90 1.10 0.94 0.87 0.58 0.73 0.58 0.46 0.26 0.14 0.16 0.16 0.12 0.02 0.01 0.00 0.01 0.02 0.02 0.08 0.11 0.00 0.00 0.00 0.00 0.04 0.10 0.16 0.37 0.54 0.28 0.22 0.04 0.07 0.21 0.07 0.11 0.06
1.26 1.67 1.57 1.18 1.60 1.61 1.43 1.19 0.83 0.57 0.59 0.44 0.34 0.33 0.18 0.25 0.22 0.14 0.13 0.06 0.04 0.10 0.16 0.19 0.03 0.03 0.01 0.02 0.06 0.25 0.26 0.18 2.18 1.18 0.34 0.05 0.05 0.07 0.06 0.12 0.08 0.18
1.16 1.19 1.14 1.01 1.49 1.62 1.36 1.34 1.47 1.07 0.85 0.77 0.78 1.02 1.24 0.89 0.69 0.56 0.53 0.46 0.34 0.23 0.23 0.08 0.06 0.04 0.02 0.01 0.02 0.34 0.08 0.22 1.62 2.35 0.54 0.20 0.19 0.06 0.02 0.02 0.16 0.16
0.76 1.56 1.05 0.86 1.52 1.04 1.20 1.56 1.83 2.02 2.49 1.87 1.67 2.03 2.17 1.76 1.15 0.81 0.80 0.63 0.30 0.28 0.80 0.25 0.15 0.08 0.05 0.03 0.15 0.14 0.16 0.40 0.62 1.70 0.50 0.27 0.45 0.70 0.52 0.41 0.45 0.47
1.04 1.84 1.63 1.56 1.34 1.55 1.65 1.49 1.51 1.65 1.85 2.20 2.33 2.20 1.72 1.76 2.18 1.38 1.07 1.09 0.92 0.58 0.85 0.66 0.75 0.25 0.12 0.07 0.08 0.06 0.07 0.25 1.46 0.30 0.69 0.93 0.68 0.72 0.57 0.89 0.64 0.44
1.55 1.19 1.47 0.98 1.54 1.89 1.76 1.83 2.62 3.08 2.49 2.94 2.74 2.00 1.77 1.30 1.21 1.30 1.01 1.70 1.83 1.02 0.75 0.80 0.53 0.33 0.45 0.07 0.08 0.11 0.46 1.08 0.37 0.46 0.25 1.01 1.60 1.19 1.02 0.89 0.54 0.25
0.62 0.43 0.39 0.52 0.44 0.71 1.41 2.13 1.86 1.40 1.97 2.46 2.15 2.06 2.17 2.05 1.54 1.43 1.76 2.48 1.97 1.68 1.24 0.70 0.81 0.65 0.37 0.25 0.24 0.27 0.97 1.20 1.31 0.91 0.50 0.52 0.90 0.67 0.75 0.74 0.81 0.27
0.29 0.28 0.30 0.46 0.54 0.23 0.59 0.92 1.00 1.40 1.61 1.38 1.50 1.72 1.45 1.96 1.58 2.34 2.00 1.73 1.34 1.01 1.07 0.72 0.70 1.06 1.27 0.61 0.55 0.60 0.52 1.20 1.85 1.11 0.81 0.74 0.58 0.64 1.00 1.51 1.00 0.30

ECMWFNIL_prec_precacc_117.txt.gz
Total_Precipitation_Accumulation
0.02 0.01 0.01 0.01 0.04 0.01 0.01 0.00 0.01 0.01 0.01 0.02 0.00 0.03 0.03 0.03 0.04 0.00 0.04 0.08 0.02 0.02 0.05 0.04 0.03 0.03 0.03 0.04 0.05 0.04 0.07 0.03 0.04 0.02 0.02 0.01 0.05 0.05 0.02 0.01 0.03 0.01
0.02 0.01 0.02 0.02 0.01 0.01 0.00 0.01 0.00 0.01 0.00 0.01 0.09 0.04 0.01 0.02 0.01 0.05 0.01 0.02 0.01 0.02 0.07 0.03 0.02 0.02 0.03 0.04 0.06 0.06 0.05 0.09 0.05 0.05 0.01 0.02 0.02 0.05 0.02 0.02 0.01 0.03
0.00 0.02 0.01 0.01 0.02 0.05 0.03 0.01 0.01 0.02 0.01 0.01 0.02 0.02 0.01 0.04 0.01 0.02 0.01 0.02 0.03 0.03 0.04 0.04 0.03 0.03 0.02 0.04 0.05 0.07 0.03 0.04 0.04 0.03 0.02 0.02 0.02 0.03 0.03 0.01 0.02 0.02
0.00 0.00 0.01 0.01 0.02 0.04 0.03 0.02 0.02 0.00 0.03 0.01 0.01 0.02 0.02 0.04 0.02 0.02 0.02 0.02 0.01 0.01 0.02 0.02 0.03 0.04 0.02 0.03 0.05 0.08 0.08 0.06 0.06 0.03 0.03 0.04 0.02 0.01 0.03 0.02 0.02 0.01
0.00 0.00 0.00 0.00 0.00 0.01 0.02 0.02 0.03 0.03 0.02 0.01 0.00 0.02 0.00 0.02 0.01 0.00 0.02 0.00 0.01 0.02 0.03 0.02 0.02 0.03 0.04 0.03 0.03 0.04 0.04 0.07 0.03 0.02 0.03 0.02 0.05 0.01 0.01 0.02 0.02 0.01
0.00 0.00 0.00 0.00 0.00 0.01 0.01 0.01 0.02 0.06 0.00 0.01 0.00 0.02 0.01 0.00 0.01 0.02 0.02 0.01 0.01 0.01 0.03 0.02 0.03 0.01 0.01 0.01 0.02 0.01 0.01 0.02 0.06 0.07 0.01 0.01 0.01 0.01 0.01 0.01 0.02 0.01
0.04 0.00 0.00 0.00 0.00 0.00 0.03 0.00 0.00 0.03 0.03 0.06 0.02 0.01 0.00 0.00 0.00 0.00 0.00 0.01 0.01 0.02 0.02 0.03 0.01 0.03 0.02 0.03 0.02 0.02 0.02 0.02 0.02 0.04 0.01 0.01 0.01 0.01 0.01 0.01 0.01 0.01
0.35 0.22 0.00 0.00 0.00 0.00 0.00 0.00 0.00 0.04 0.01 0.01 0.00 0.01 0.00 0.02 0.01 0.00 0.01 0.02 0.00 0.01 0.02 0.03 0.02 0.01 0.03 0.04 0.08 0.03 0.01 0.03 0.01 0.02 0.02 0.01 0.01 0.02 0.01 0.00 0.01 0.01
0.27 0.25 0.08 0.03 0.00 0.00 0.02 0.02 0.00 0.00 0.00 0.00 0.01 0.05 0.02 0.03 0.03 0.03 0.01 0.00 0.01 0.02 0.01 0.01 0.02 0.02 0.01 0.02 0.02 0.02 0.02 0.01 0.02 0.04 0.01 0.01 0.01 0.01 0.00 0.00 0.00 0.00
0.26 0.27 0.24 0.15 0.09 0.03 0.01 0.00 0.00 0.00 0.00 0.01 0.00 0.01 0.01 0.02 0.02 0.02 0.02 0.03 0.03 0.02 0.02 0.03 0.03 0.03 0.02 0.01 0.01 0.01 0.04 0.03 0.02 0.02 0.02 0.03 0.01 0.01 0.01 0.01 0.00 0.01
0.41 0.47 0.27 0.55 0.73 0.47 0.12 0.03 0.01 0.00 0.00 0.00 0.00 0.00 0.00 0.03 0.05 0.06 0.05 0.02 0.01 0.03 0.05 0.05 0.03 0.01 0.01 0.00 0.02 0.02 0.03 0.02 0.01 0.01 0.01 0.01 0.02 0.01 0.01 0.01 0.01 0.02
0.21 0.21 0.34 0.37 0.44 0.55 0.45 0.12 0.03 0.01 0.01 0.00 0.01 0.03 0.05 0.07 0.07 0.04 0.01 0.01 0.01 0.02 0.03 0.03 0.01 0.00 0.00 0.00 0.01 0.02 0.01 0.01 0.02 0.02 0.01 0.01 0.01 0.02 0.01 0.02 0.02 0.01
0.37 0.32 0.10 0.36 0.72 0.92 0.89 0.33 0.11 0.04 0.03 0.02 0.04 0.02 0.01 0.02 0.01 0.00 0.00 0.01 0.01 0.01 0.00 0.01 0.01 0.00 0.00 0.00 0.00 0.01 0.01 0.02 0.02 0.03 0.03 0.02 0.06 0.05 0.05 0.07 0.03 0.03
0.86 0.67 0.98 0.93 0.93 0.48 0.60 0.58 0.33 0.03 0.06 0.05 0.03 0.01 0.00 0.00 0.00 0.00 0.00 0.00 0.01 0.04 0.02 0.02 0.02 0.03 0.01 0.01 0.02 0.01 0.00 0.01 0.05 0.01 0.05 0.06 0.16 0.14 0.15 0.17 0.32 0.05
1.61 1.51 1.15 1.11 1.09 0.58 0.87 1.23 0.50 0.03 0.02 0.01 0.02 0.01 0.00 0.00 0.00 0.00 0.00 0.00 0.00 0.00 0.03 0.00 0.02 0.08 0.09 0.12 0.02 0.00 0.01 0.02 0.02 0.03 0.02 0.02 0.03 0.10 0.10 0.23 0.31 0.08
1.65 1.60 1.35 0.97 1.19 1.01 0.94 0.60 0.15 0.06 0.03 0.03 0.01 0.01 0.00 0.00 0.00 0.00 0.00 0.00 0.00 0.01 0.01 0.04 0.00 0.04 0.01 0.00 0.00 0.02 0.03 0.05 0.03 0.02 0.02 0.02 0.04 0.03 0.05 0.16 0.08 0.36
1.86 1.63 1.40 1.26 1.00 0.80 0.80 0.57 0.43 0.40 0.22 0.05 0.03 0.00 0.00 0.01 0.00 0.01 0.01 0.01 0.00 0.02 0.02 0.04 0.03 0.01 0.00 0.00 0.00 0.00 0.05 0.03 0.04 0.10 0.16 0.06 0.11 0.08 0.13 0.09 0.12 0.12
1.84 1.35 1.25 1.07 0.86 0.87 0.80 0.76 0.55 0.43 0.38 0.34 0.20 0.07 0.05 0.02 0.02 0.04 0.03 0.01 0.01 0.00 0.03 0.03 0.01 0.01 0.00 0.00 0.00 0.02 0.02 0.08 0.07 0.02 0.12 0.06 0.17 0.13 0.05 0.03 0.03 0.05
1.30 1.27 1.23 0.78 0.90 1.10 0.94 0.87 0.58 0.73 0.59 0.47 0.28 0.15 0.20 0.24 0.13 0.03 0.01 0.00 0.01 0.02 0.02 0.08 0.11 0.00 0.00 0.00 0.00 0.04 0.10 0.16 0.37 0.54 0.28 0.22 0.04 0.07 0.21 0.07 0.11 0.06
1.77 2.06 1.92 1.40 1.71 1.74 1.54 1.20 0.84 0.59 0.61 0.45 0.35 0.35 0.21 0.28 0.23 0.14 0.13 0.06 0.04 0.10 0.16 0.19 0.03 0.03 0.01 0.02 0.06 0.25 0.26 0.18 2.18 1.18 0.34 0.05 0.05 0.07 0.06 0.12 0.08 0.18
1.51 1.55 1.50 1.21 1.70 1.77 1.49 1.42 1.60 1.17 0.94 0.85 0.84 1.07 1.28 1.00 0.80 0.57 0.53 0.46 0.34 0.23 0.23 0.09 0.06 0.04 0.02 0.01 0.02 0.34 0.08 0.22 1.62 2.35 0.54 0.20 0.19 0.06 0.02 0.02 0.16 0.16
0.90 1.89 1.40 1.20 1.73 1.19 1.38 1.80 1.90 2.20 2.54 1.94 1.67 2.04 2.20 1.76 1.15 0.82 0.82 0.65 0.30 0.28 0.80 0.25 0.15 0.08 0.05 0.03 0.15 0.14 0.16 0.40 0.62 1.70 0.50 0.27 0.45 0.70 0.52 0.41 0.45 0.47
1.37 2.12 1.88 1.76 1.54 1.73 2.05 2.02 2.11 2.13 1.86 2.34 2.48 2.25 1.76 1.79 2.21 1.40 1.08 1.11 0.96 0.71 0.94 0.67 0.76 0.26 0.12 0.08 0.08 0.06 0.07 0.25 1.46 0.30 0.69 0.93 0.68 0.72 0.57 0.89 0.64 0.44
1.98 1.60 1.81 1.17 1.68 2.06 2.18 2.18 2.88 3.17 2.73 3.20 2.88 2.08 1.82 1.36 1.28 1.37 1.09 1.74 1.87 1.05 0.78 0.83 0.56 0.35 0.47 0.09 0.09 0.11 0.47 1.08 0.37 0.46 0.25 1.01 1.60 1.19 1.02 0.89 0.54 0.25
1.05 0.86 0.73 0.76 0.71 1.01 1.70 2.28 1.98 1.46 2.09 2.66 2.28 2.17 2.28 2.18 1.69 1.56 1.87 2.57 2.03 1.73 1.29 0.76 0.88 0.71 0.41 0.28 0.26 0.28 0.97 1.21 1.32 0.91 0.50 0.52 0.90 0.67 0.75 0.74 0.81 0.27
0.64 0.60 0.61 0.73 0.79 0.54 0.84 1.12 1.16 1.55 1.75 1.51 1.59 1.82 1.58 2.11 1.70 2.43 2.07 1.80 1.40 1.07 1.13 0.78 0.75 1.10 1.29 0.62 0.55 0.60 0.52 1.20 1.85 1.11 0.81 0.74 0.59 0.64 1.00 1.51 1.00 0.30

ECMWFNIL_prec_precacc_120.txt.gz
Total_Precipitation_Accumulation
0.02 0.01 0.01 0.01 0.04 0.01 0.01 0.01 0.01 0.02 0.01 0.02 0.00 0.03 0.03 0.03 0.04 0.01 0.04 0.08 0.02 0.02 0.05 0.05 0.04 0.03 0.03 0.04 0.06 0.04 0.08 0.03 0.05 0.02 0.02 0.01 0.05 0.05 0.02 0.01 0.04 0.01
0.02 0.01 0.02 0.02 0.02 0.02 0.00 0.01 0.00 0.01 0.00 0.01 0.09 0.04 0.01 0.02 0.01 0.05 0.01 0.02 0.02 0.02 0.07 0.03 0.02 0.03 0.03 0.04 0.06 0.07 0.05 0.10 0.05 0.05 0.01 0.02 0.02 0.05 0.02 0.02 0.01 0.03
0.00 0.02 0.01 0.01 0.02 0.05 0.03 0.01 0.01 0.02 0.01 0.01 0.02 0.02 0.01 0.04 0.01 0.02 0.01 0.03 0.03 0.03 0.04 0.04 0.03 0.03 0.02 0.04 0.06 0.07 0.03 0.05 0.04 0.03 0.02 0.02 0.02 0.03 0.03 0.01 0.02 0.02
0.00 0.00 0.01 0.01 0.02 0.04 0.03 0.02 0.02 0.00 0.03 0.01 0.01 0.02 0.02 0.04 0.02 0.02 0.03 0.02 0.02 0.02 0.02 0.02 0.03 0.04 0.02 0.03 0.05 0.08 0.08 0.06 0.06 0.03 0.04 0.04 0.02 0.01 0.03 0.02 0.02 0.01
0.00 0.00 0.00 0.00 0.00 0.01 0.02 0.02 0.03 0.03 0.02 0.01 0.00 0.02 0.00 0.02 0.01 0.00 0.02 0.01 0.01 0.03 0.03 0.03 0.02 0.03 0.04 0.03 0.03 0.04 0.04 0.07 0.03 0.02 0.03 0.03 0.05 0.01 0.01 0.02 0.02 0.01
0.00 0.00 0.00 0.00 0.00 0.01 0.01 0.01 0.02 0.06 0.00 0.01 0.00 0.02 0.01 0.00 0.01 0.02 0.02 0.01 0.01 0.01 0.03 0.02 0.03 0.01 0.01 0.02 0.03 0.01 0.01 0.02 0.06 0.07 0.01 0.02 0.02 0.01 0.01 0.01 0.02 0.01
0.04 0.00 0.00 0.00 0.00 0.00 0.03 0.00 0.00 0.03 0.03 0.06 0.02 0.01 0.00 0.00 0.00 0.00 0.00 0.01 0.01 0.03 0.02 0.03 0.02 0.03 0.02 0.04 0.03 0.03 0.02 0.02 0.02 0.04 0.01 0.01 0.01 0.01 0.01 0.01 0.02 0.01
0.35 0.22 0.00 0.00 0.00 0.00 0.00 0.00 0.00 0.04 0.01 0.01 0.00 0.01 0.00 0.02 0.01 0.00 0.01 0.02 0.01 0.02 0.02 0.03 0.03 0.02 0.03 0.04 0.08 0.03 0.02 0.03 0.01 0.03 0.03 0.02 0.01 0.02 0.01 0.00 0.01 0.02
0.27 0.25 0.08 0.03 0.00 0.00 0.02 0.02 0.00 0.00 0.00 0.00 0.01 0.05 0.02 0.03 0.03 0.03 0.01 0.01 0.02 0.02 0.03 0.02 0.03 0.03 0.02 0.02 0.02 0.02 0.02 0.01 0.02 0.04 0.02 0.01 0.01 0.02 0.01 0.00 0.00 0.00
0.26 0.27 0.24 0.15 0.09 0.03 0.01 0.00 0.00 0.00 0.00 0.01 0.00 0.01 0.01 0.02 0.02 0.02 0.02 0.04 0.04 0.03 0.04 0.04 0.04 0.03 0.02 0.01 0.02 0.02 0.05 0.04 0.03 0.03 0.03 0.04 0.02 0.01 0.01 0.01 0.01 0.01
0.41 0.47 0.27 0.55 0.73 0.47 0.12 0.03 0.01 0.00 0.00 0.00 0.00 0.00 0.00 0.03 0.05 0.06 0.05 0.03 0.02 0.03 0.05 0.06 0.04 0.02 0.01 0.00 0.02 0.02 0.04 0.03 0.02 0.03 0.02 0.02 0.02 0.02 0.02 0.01 0.01 0.02
0.21 0.21 0.34 0.37 0.44 0.55 0.45 0.12 0.03 0.01 0.01 0.00 0.01 0.03 0.05 0.07 0.07 0.04 0.01 0.01 0.02 0.02 0.03 0.03 0.02 0.01 0.01 0.01 0.01 0.02 0.02 0.01 0.02 0.03 0.02 0.02 0.02 0.02 0.01 0.02 0.02 0.01
0.37 0.32 0.10 0.36 0.72 0.92 0.89 0.33 0.11 0.04 0.03 0.02 0.04 0.02 0.01 0.02 0.01 0.00 0.00 0.01 0.02 0.01 0.01 0.01 0.02 0.00 0.01 0.01 0.00 0.01 0.01 0.02 0.02 0.03 0.03 0.03 0.07 0.05 0.05 0.07 0.03 0.03
0.86 0.67 0.98 0.93 0.93 0.48 0.60 0.58 0.33 0.03 0.06 0.05 0.03 0.01 0.00 0.00 0.00 0.00 0.00 0.00 0.01 0.04 0.02 0.03 0.02 0.04 0.02 0.01 0.02 0.03 0.00 0.01 0.05 0.01 0.05 0.06 0.16 0.14 0.15 0.17 0.32 0.05
1.61 1.51 1.15 1.11 1.09 0.58 0.88 1.23 0.50 0.03 0.02 0.01 0.02 0.01 0.00 0.00 0.00 0.00 0.00 0.00 0.00 0.00 0.03 0.00 0.02 0.08 0.09 0.12 0.04 0.01 0.13 0.02 0.10 0.09 0.07 0.11 0.05 0.10 0.10 0.23 0.31 0.08
1.66 1.61 1.36 0.99 1.20 1.02 0.94 0.60 0.15 0.06 0.03 0.03 0.01 0.01 0.00 0.00 0.00 0.00 0.00 0.00 0.00 0.01 0.01 0.04 0.01 0.08 0.01 0.00 0.00 0.02 0.04 0.06 0.05 0.07 0.08 0.06 0.09 0.06 0.08 0.16 0.08 0.36
1.89 1.67 1.48 1.34 1.34 0.89 0.81 0.58 0.44 0.40 0.22 0.05 0.03 0.01 0.01 0.01 0.00 0.01 0.01 0.01 0.00 0.02 0.02 0.04 0.05 0.01 0.00 0.00 0.00 0.00 0.05 0.03 0.04 0.10 0.17 0.07 0.11 0.09 0.20 0.09 0.13 0.12
1.88 1.42 1.33 1.26 1.15 1.22 1.18 0.81 0.56 0.43 0.39 0.35 0.20 0.08 0.05 0.02 0.02 0.04 0.03 0.01 0.01 0.00 0.03 0.03 0.02 0.01 0.00 0.00 0.00 0.02 0.02 0.08 0.07 0.02 0.12 0.07 0.17 0.13 0.06 0.03 0.03 0.05
1.32 1.52 1.65 1.30 1.43 1.41 1.12 0.97 0.63 0.75 0.60 0.48 0.29 0.15 0.20 0.24 0.13 0.03 0.04 0.00 0.01 0.02 0.02 0.08 0.11 0.00 0.00 0.00 0.00 0.04 0.10 0.16 0.37 0.54 0.28 0.22 0.04 0.07 0.22 0.08 0.12 0.07
1.78 2.07 1.96 1.59 1.78 1.75 1.55 1.22 0.84 0.63 0.62 0.45 0.35 0.36 0.21 0.28 0.24 0.14 0.13 0.06 0.04 0.11 0.17 0.19 0.03 0.03 0.01 0.02 0.06 0.25 0.26 0.18 2.18 1.18 0.34 0.05 0.05 0.08 0.06 0.12 0.08 0.19
1.52 1.61 1.58 1.35 1.81 1.80 1.53 1.44 1.66 1.26 1.16 0.96 0.96 1.13 1.38 1.08 0.86 0.58 0.54 0.47 0.34 0.23 0.23 0.09 0.06 0.04 0.02 0.01 0.02 0.34 0.08 0.22 1.62 2.35 0.54 0.20 0.19 0.06 0.02 0.02 0.16 0.16
0.92 1.94 1.45 1.32 1.97 1.44 1.50 1.86 1.94 2.22 2.55 1.95 1.67 2.07 2.24 1.81 1.20 0.86 0.83 0.66 0.31 0.29 0.80 0.25 0.15 0.08 0.05 0.03 0.15 0.14 0.16 0.40 0.63 1.70 0.50 0.27 0.45 0.70 0.58 0.45 0.46 0.48
1.80 2.62 2.06 1.87 1.70 1.89 2.25 2.22 2.30 2.22 1.91 2.37 2.51 2.27 1.80 1.85 2.32 1.41 1.10 1.12 0.97 0.72 0.95 0.68 0.76 0.26 0.12 0.08 0.08 0.07 0.07 0.25 1.46 0.30 0.69 0.96 0.70 0.78 0.66 0.93 0.69 0.45
2.25 1.89 1.95 1.31 1.84 2.22 2.39 2.40 3.10 3.35 2.87 3.28 2.93 2.10 1.85 1.39 1.31 1.39 1.10 1.75 1.88 1.06 0.79 0.83 0.56 0.35 0.47 0.09 0.09 0.11 0.47 1.08 0.37 0.46 0.25 1.01 1.61 1.20 1.02 0.89 0.54 0.25
1.35 1.06 0.99 1.06 0.94 1.21 1.89 2.48 2.26 1.69 2.25 2.79 2.38 2.23 2.31 2.21 1.73 1.58 1.89 2.58 2.04 1.74 1.29 0.76 0.88 0.71 0.41 0.28 0.26 0.28 0.98 1.21 1.32 0.91 0.50 0.52 0.90 0.67 0.75 0.74 0.81 0.27
1.07 1.10 1.09 1.19 1.26 1.02 1.26 1.45 1.47 1.85 2.00 1.74 1.76 1.92 1.70 2.17 1.75 2.46 2.10 1.83 1.43 1.09 1.14 0.78 0.75 1.10 1.29 0.62 0.55 0.60 0.52 1.20 1.85 1.11 0.81 0.74 0.59 0.64 1.00 1.51 1.00 0.30

ECMWFNIL_prec_precacc_123.txt.gz
Total_Precipitation_Accumulation
0.02 0.01 0.01 0.01 0.04 0.01 0.01 0.01 0.01 0.02 0.01 0.02 0.01 0.03 0.03 0.03 0.04 0.01 0.04 0.08 0.02 0.02 0.05 0.05 0.04 0.03 0.03 0.04 0.06 0.05 0.08 0.03 0.05 0.02 0.02 0.01 0.05 0.05 0.02 0.01 0.04 0.01
0.02 0.01 0.02 0.02 0.02 0.02 0.00 0.01 0.00 0.01 0.00 0.01 0.09 0.04 0.01 0.02 0.01 0.05 0.01 0.02 0.02 0.02 0.08 0.03 0.02 0.03 0.03 0.04 0.07 0.07 0.06 0.10 0.06 0.05 0.01 0.03 0.02 0.05 0.02 0.02 0.01 0.03
0.00 0.02 0.01 0.01 0.02 0.06 0.03 0.01 0.01 0.02 0.01 0.01 0.02 0.02 0.01 0.04 0.01 0.02 0.01 0.03 0.03 0.03 0.04 0.05 0.03 0.03 0.02 0.04 0.06 0.07 0.03 0.05 0.04 0.03 0.02 0.02 0.02 0.03 0.03 0.01 0.02 0.02
0.00 0.00 0.01 0.01 0.02 0.04 0.03 0.02 0.02 0.00 0.03 0.01 0.01 0.02 0.02 0.04 0.02 0.02 0.03 0.02 0.02 0.02 0.02 0.02 0.03 0.04 0.02 0.03 0.06 0.08 0.08 0.06 0.06 0.03 0.04 0.04 0.02 0.01 0.03 0.02 0.02 0.01
0.00 0.00 0.00 0.00 0.00 0.01 0.02 0.02 0.03 0.03 0.02 0.01 0.00 0.02 0.00 0.02 0.01 0.00 0.02 0.01 0.01 0.03 0.03 0.03 0.02 0.03 0.04 0.04 0.03 0.04 0.04 0.07 0.03 0.02 0.03 0.03 0.05 0.01 0.01 0.02 0.02 0.01
0.01 0.00 0.00 0.00 0.00 0.02 0.01 0.01 0.02 0.06 0.00 0.01 0.00 0.02 0.01 0.00 0.01 0.02 0.02 0.01 0.01 0.01 0.03 0.02 0.03 0.01 0.01 0.02 0.03 0.01 0.01 0.02 0.07 0.07 0.01 0.02 0.02 0.01 0.01 0.01 0.02 0.01
0.04 0.00 0.00 0.00 0.00 0.00 0.03 0.00 0.00 0.03 0.03 0.06 0.02 0.01 0.00 0.00 0.00 0.00 0.00 0.01 0.01 0.05 0.03 0.03 0.02 0.03 0.02 0.04 0.03 0.03 0.02 0.02 0.02 0.05 0.02 0.01 0.01 0.01 0.01 0.01 0.02 0.01
0.35 0.22 0.00 0.00 0.00 0.00 0.00 0.00 0.00 0.04 0.01 0.01 0.00 0.01 0.00 0.02 0.01 0.00 0.01 0.02 0.01 0.02 0.02 0.03 0.03 0.03 0.03 0.04 0.08 0.03 0.02 0.03 0.01 0.03 0.03 0.02 0.01 0.02 0.01 0.00 0.01 0.02
0.27 0.25 0.08 0.03 0.00 0.00 0.02 0.02 0.00 0.00 0.00 0.00 0.01 0.05 0.02 0.03 0.03 0.03 0.01 0.01 0.02 0.02 0.03 0.02 0.03 0.03 0.02 0.02 0.02 0.02 0.03 0.01 0.02 0.04 0.02 0.02 0.01 0.02 0.01 0.01 0.00 0.01
0.26 0.27 0.24 0.15 0.09 0.03 0.01 0.00 0.00 0.00 0.00 0.01 0.00 0.01 0.01 0.02 0.02 0.02 0.02 0.04 0.04 0.03 0.04 0.04 0.04 0.04 0.02 0.01 0.02 0.02 0.05 0.04 0.03 0.03 0.03 0.04 0.02 0.01 0.01 0.02 0.01 0.02
0.41 0.47 0.27 0.55 0.73 0.47 0.12 0.03 0.01 0.00 0.00 0.00 0.00 0.00 0.00 0.03 0.05 0.06 0.05 0.03 0.02 0.03 0.07 0.06 0.04 0.02 0.02 0.01 0.03 0.04 0.04 0.03 0.05 0.03 0.03 0.03 0.02 0.04 0.03 0.01 0.01 0.04
0.21 0.21 0.34 0.37 0.44 0.55 0.45 0.12 0.03 0.01 0.01 0.00 0.01 0.03 0.05 0.07 0.07 0.04 0.01 0.01 0.02 0.03 0.05 0.06 0.02 0.01 0.01 0.03 0.03 0.05 0.02 0.02 0.06 0.09 0.09 0.11 0.14 0.09 0.25 0.10 0.09 0.06
0.37 0.32 0.10 0.36 0.72 0.92 0.89 0.33 0.11 0.04 0.03 0.02 0.04 0.02 0.01 0.02 0.01 0.00 0.00 0.01 0.02 0.01 0.01 0.03 0.02 0.01 0.05 0.02 0.01 0.01 0.08 0.13 0.08 0.18 0.25 0.32 0.27 0.15 0.20 0.22 0.08 0.06
0.86 0.68 0.98 0.93 0.93 0.48 0.60 0.58 0.33 0.03 0.06 0.05 0.03 0.01 0.00 0.00 0.00 0.00 0.00 0.01 0.02 0.04 0.02 0.03 0.04 0.04 0.27 0.08 0.12 0.09 0.06 0.04 0.22 0.20 0.40 0.33 0.27 0.20 0.19 0.20 0.35 0.08
1.61 1.51 1.15 1.11 1.09 0.59 0.88 1.23 0.50 0.03 0.02 0.01 0.02 0.01 0.00 0.00 0.00 0.00 0.00 0.00 0.01 0.04 0.06 0.01 0.02 0.11 0.15 0.18 0.10 0.02 0.19 0.05 0.11 0.11 0.24 0.16 0.08 0.16 0.26 0.28 0.40 0.11
1.68 1.62 1.37 1.01 1.28 1.20 1.15 0.71 0.19 0.06 0.03 0.03 0.01 0.01 0.00 0.00 0.00 0.00 0.00 0.00 0.00 0.01 0.02 0.05 0.05 0.11 0.01 0.01 0.00 0.08 0.06 0.08 0.06 0.08 0.09 0.08 0.09 0.08 0.10 0.20 0.15 0.44
1.93 1.72 1.53 1.45 1.69 1.34 1.15 0.77 0.58 0.45 0.23 0.05 0.03 0.01 0.01 0.01 0.00 0.01 0.01 0.01 0.00 0.02 0.05 0.07 0.06 0.01 0.00 0.00 0.00 0.00 0.05 0.03 0.06 0.14 0.20 0.11 0.17 0.12 0.25 0.11 0.16 0.13
1.91 1.46 1.37 1.34 1.16 1.25 1.25 1.08 0.78 0.52 0.46 0.43 0.24 0.09 0.06 0.02 0.02 0.05 0.03 0.02 0.03 0.02 0.14 0.21 0.04 0.01 0.00 0.00 0.00 0.02 0.02 0.08 0.08 0.02 0.12 0.09 0.19 0.14 0.08 0.09 0.07 0.08
1.34 1.55 1.67 1.31 1.44 1.41 1.12 0.97 0.68 0.78 0.66 0.54 0.29 0.17 0.21 0.25 0.14 0.04 0.04 0.02 0.03 0.18 0.29 0.17 0.16 0.01 0.00 0.00 0.00 0.04 0.10 0.16 0.37 0.54 0.29 0.26 0.08 0.09 0.22 0.09 0.14 0.13
1.83 2.09 1.98 1.63 1.81 1.76 1.56 1.30 0.88 0.67 0.67 0.48 0.36 0.40 0.22 0.29 0.24 0.15 0.17 0.10 0.08 0.17 0.40 0.20 0.03 0.03 0.01 0.02 0.06 0.25 0.26 0.18 2.18 1.18 0.36 0.09 0.06 0.08 0.08 0.14 0.10 0.23
1.57 1.67 1.60 1.36 1.82 1.81 1.56 1.64 1.81 1.41 1.21 0.99 0.99 1.15 1.39 1.12 0.86 0.64 0.56 0.48 0.36 0.37 0.29 0.09 0.06 0.04 0.02 0.01 0.02 0.34 0.08 0.22 1.62 2.36 0.56 0.21 0.20 0.08 0.03 0.06 0.20 0.31
0.97 2.02 1.47 1.33 1.99 1.52 1.77 1.91 2.08 2.41 2.91 2.19 1.80 2.18 2.29 1.82 1.20 0.90 0.85 0.69 0.32 0.36 0.84 0.26 0.15 0.08 0.05 0.03 0.15 0.14 0.16 0.40 0.64 1.70 0.52 0.30 0.46 0.72 0.60 0.48 0.48 0.53
2.00 2.67 2.11 2.06 1.75 1.90 2.27 2.26 2.38 2.34 2.27 2.73 2.60 2.29 1.82 2.01 2.35 1.52 1.23 1.39 1.16 0.77 1.13 0.69 0.76 0.26 0.12 0.08 0.08 0.07 0.07 0.25 1.46 0.31 0.69 0.96 0.70 0.78 0.68 0.94 0.74 0.57
2.40 2.37 2.52 1.42 1.92 2.29 2.45 2.48 3.19 3.45 3.25 3.69 3.34 2.62 2.19 1.42 1.36 1.46 1.17 1.78 1.91 1.08 0.80 0.83 0.56 0.35 0.47 0.09 0.09 0.11 0.47 1.08 0.37 0.46 0.25 1.01 1.61 1.20 1.03 0.89 0.55 0.26
1.75 1.45 1.39 1.17 1.01 1.31 1.99 2.59 2.41 1.95 2.49 2.98 2.62 2.87 2.71 2.35 1.77 1.61 1.95 2.67 2.14 1.79 1.37 0.77 0.88 0.71 0.41 0.28 0.26 0.28 0.98 1.21 1.32 0.91 0.50 0.52 0.90 0.67 0.75 0.74 0.81 0.28
1.74 1.42 1.62 1.32 1.33 1.12 1.39 1.58 1.64 2.03 2.32 2.08 2.18 2.31 2.18 2.44 2.00 2.71 2.35 1.96 1.54 1.12 1.16 0.79 0.75 1.10 1.29 0.62 0.55 0.60 0.52 1.20 1.85 1.11 0.81 0.74 0.59 0.64 1.00 1.51 1.00 0.30

ECMWFNIL_prec_precacc_126.txt.gz
Total_Precipitation_Accumulation
0.02 0.01 0.01 0.01 0.04 0.01 0.01 0.01 0.01 0.02 0.02 0.04 0.02 0.04 0.03 0.03 0.05 0.01 0.05 0.09 0.02 0.02 0.05 0.05 0.04 0.03 0.03 0.04 0.06 0.05 0.08 0.03 0.05 0.02 0.02 0.01 0.06 0.05 0.02 0.02 0.04 0.02
0.02 0.01 0.02 0.02 0.02 0.02 0.00 0.02 0.00 0.01 0.00 0.02 0.10 0.07 0.01 0.02 0.01 0.05 0.01 0.03 0.03 0.02 0.08 0.04 0.02 0.03 0.03 0.04 0.08 0.07 0.06 0.11 0.08 0.09 0.02 0.04 0.04 0.05 0.02 0.02 0.01 0.03
0.00 0.02 0.01 0.01 0.02 0.06 0.03 0.02 0.01 0.02 0.01 0.02 0.03 0.02 0.03 0.04 0.01 0.02 0.01 0.03 0.03 0.04 0.04 0.05 0.03 0.04 0.02 0.04 0.06 0.08 0.03 0.05 0.04 0.03 0.02 0.02 0.02 0.03 0.03 0.01 0.02 0.02
0.00 0.00 0.01 0.01 0.02 0.04 0.03 0.02 0.02 0.00 0.03 0.01 0.01 0.02 0.02 0.05 0.02 0.02 0.03 0.02 0.02 0.02 0.03 0.03 0.03 0.05 0.02 0.03 0.06 0.08 0.08 0.07 0.07 0.04 0.04 0.05 0.02 0.02 0.03 0.02 0.02 0.01
0.00 0.00 0.00 0.00 0.00 0.01 0.02 0.02 0.03 0.03 0.02 0.01 0.00 0.02 0.00 0.02 0.01 0.00 0.02 0.01 0.01 0.03 0.03 0.04 0.04 0.03 0.05 0.04 0.04 0.06 0.05 0.09 0.05 0.03 0.03 0.03 0.05 0.01 0.01 0.02 0.02 0.01
0.01 0.00 0.00 0.00 0.00 0.03 0.02 0.02 0.03 0.06 0.01 0.01 0.00 0.02 0.01 0.00 0.01 0.02 0.02 0.02 0.02 0.01 0.03 0.05 0.03 0.01 0.01 0.02 0.03 0.01 0.01 0.03 0.08 0.08 0.02 0.02 0.03 0.01 0.01 0.02 0.02 0.02
0.05 0.01 0.03 0.00 0.01 0.02 0.04 0.01 0.01 0.03 0.04 0.06 0.02 0.01 0.00 0.01 0.01 0.00 0.01 0.01 0.03 0.07 0.04 0.05 0.02 0.03 0.02 0.04 0.03 0.04 0.02 0.02 0.02 0.05 0.03 0.04 0.02 0.01 0.02 0.02 0.03 0.01
0.35 0.22 0.00 0.00 0.00 0.02 0.00 0.01 0.02 0.04 0.01 0.01 0.00 0.01 0.00 0.03 0.02 0.05 0.01 0.02 0.02 0.03 0.04 0.03 0.03 0.03 0.03 0.04 0.10 0.03 0.03 0.07 0.05 0.05 0.03 0.02 0.01 0.02 0.01 0.00 0.01 0.02
0.27 0.25 0.08 0.03 0.00 0.00 0.02 0.02 0.00 0.00 0.00 0.00 0.01 0.05 0.02 0.03 0.03 0.04 0.03 0.01 0.02 0.03 0.03 0.02 0.03 0.03 0.03 0.03 0.02 0.03 0.03 0.06 0.06 0.08 0.07 0.07 0.05 0.04 0.11 0.04 0.02 0.02
0.26 0.28 0.24 0.15 0.09 0.03 0.01 0.00 0.00 0.00 0.00 0.01 0.00 0.01 0.02 0.02 0.02 0.02 0.03 0.05 0.07 0.04 0.04 0.04 0.04 0.05 0.03 0.01 0.02 0.06 0.05 0.08 0.09 0.11 0.11 0.06 0.05 0.04 0.07 0.04 0.04 0.07
0.41 0.47 0.28 0.55 0.73 0.47 0.12 0.03 0.01 0.02 0.01 0.00 0.00 0.00 0.01 0.04 0.05 0.06 0.06 0.05 0.02 0.03 0.08 0.07 0.04 0.03 0.03 0.01 0.04 0.10 0.08 0.15 0.17 0.13 0.09 0.06 0.10 0.14 0.18 0.07 0.06 0.05
0.21 0.21 0.34 0.37 0.44 0.55 0.45 0.12 0.05 0.01 0.02 0.00 0.01 0.03 0.05 0.07 0.07 0.04 0.01 0.02 0.02 0.03 0.05 0.06 0.02 0.02 0.01 0.05 0.05 0.06 0.08 0.06 0.19 0.11 0.13 0.12 0.18 0.10 0.26 0.12 0.10 0.06
0.37 0.32 0.10 0.36 0.73 0.92 0.89 0.33 0.11 0.04 0.03 0.02 0.04 0.03 0.02 0.02 0.01 0.01 0.00 0.01 0.03 0.02 0.02 0.03 0.03 0.02 0.06 0.03 0.03 0.05 0.09 0.14 0.08 0.18 0.25 0.32 0.27 0.15 0.20 0.22 0.08 0.06
0.86 0.69 0.99 0.93 0.93 0.48 0.60 0.58 0.33 0.03 0.06 0.05 0.04 0.02 0.00 0.00 0.01 0.01 0.01 0.01 0.03 0.05 0.03 0.04 0.04 0.08 0.28 0.08 0.12 0.09 0.09 0.04 0.22 0.20 0.40 0.33 0.27 0.20 0.19 0.20 0.35 0.08
1.61 1.52 1.16 1.12 1.09 0.59 0.88 1.23 0.50 0.03 0.02 0.02 0.02 0.02 0.02 0.01 0.00 0.00 0.01 0.01 0.01 0.05 0.06 0.04 0.06 0.12 0.15 0.18 0.10 0.02 0.19 0.05 0.12 0.13 0.24 0.16 0.08 0.16 0.26 0.28 0.40 0.11
1.68 1.62 1.39 1.02 1.33 1.21 1.15 0.71 0.19 0.06 0.03 0.03 0.01 0.01 0.01 0.01 0.01 0.01 0.00 0.00 0.01 0.01 0.03 0.06 0.06 0.15 0.02 0.01 0.00 0.08 0.06 0.08 0.06 0.08 0.10 0.08 0.09 0.08 0.10 0.20 0.16 0.44
1.94 1.73 1.53 1.50 1.69 1.34 1.15 0.77 0.58 0.45 0.23 0.05 0.03 0.01 0.01 0.01 0.01 0.02 0.03 0.02 0.05 0.06 0.07 0.09 0.13 0.01 0.00 0.00 0.00 0.00 0.05 0.04 0.06 0.14 0.20 0.11 0.17 0.12 0.25 0.11 0.16 0.15
1.95 1.54 1.41 1.35 1.16 1.25 1.25 1.08 0.78 0.52 0.46 0.43 0.24 0.09 0.07 0.03 0.02 0.07 0.26 0.20 0.17 0.02 0.14 0.22 0.05 0.03 0.00 0.00 0.00 0.02 0.02 0.08 0.08 0.02 0.12 0.09 0.19 0.15 0.08 0.10 0.09 0.10
1.43 1.75 1.76 1.32 1.44 1.41 1.12 0.97 0.68 0.78 0.66 0.54 0.29 0.17 0.21 0.29 0.14 0.05 0.15 0.12 0.26 0.61 0.60 0.22 0.16 0.01 0.01 0.01 0.01 0.04 0.10 0.16 0.37 0.54 0.29 0.26 0.08 0.09 0.23 0.11 0.20 0.18
2.09 2.36 2.13 1.75 1.85 1.77 1.56 1.30 0.88 0.67 0.67 0.48 0.36 0.40 0.22 0.29 0.24 0.32 0.30 0.58 0.45 0.21 0.41 0.20 0.03 0.03 0.01 0.02 0.06 0.25 0.26 0.18 2.18 1.18 0.36 0.11 0.07 0.09 0.21 0.17 0.13 0.27
1.70 1.78 1.70 1.50 1.99 1.86 1.66 1.69 1.81 1.42 1.22 1.00 0.99 1.17 1.41 1.20 0.87 0.93 0.76 0.89 0.68 0.42 0.29 0.09 0.06 0.04 0.02 0.01 0.02 0.34 0.08 0.22 1.62 2.36 0.57 0.25 0.23 0.09 0.09 0.10 0.27 0.37
1.42 2.22 1.82 1.69 2.24 1.92 2.02 1.99 2.13 2.43 2.93 2.20 1.80 2.20 2.32 1.89 1.29 0.97 1.11 0.96 0.44 0.40 0.85 0.26 0.15 0.08 0.05 0.03 0.15 0.14 0.16 0.40 0.64 1.72 0.56 0.34 0.55 0.76 0.69 0.50 0.50 0.56
3.22 3.14 2.62 2.83 2.17 2.05 2.40 2.33 2.50 2.49 2.33 2.84 2.68 2.46 2.01 2.23 2.69 1.71 1.27 1.49 1.24 0.80 1.15 0.71 0.76 0.26 0.12 0.08 0.08 0.07 0.07 0.25 1.46 0.31 0.74 0.98 0.71 0.79 0.68 0.95 0.74 0.59
2.94 3.16 3.61 1.54 2.01 2.42 2.61 2.70 3.37 3.72 3.36 3.73 3.39 2.70 2.44 1.84 1.51 1.50 1.20 1.83 2.01 1.12 0.85 0.96 0.79 0.35 0.47 0.09 0.09 0.11 0.47 1.08 0.37 0.46 0.25 1.01 1.61 1.20 1.03 0.89 0.56 0.27
2.77 2.15 1.80 1.22 1.24 1.41 2.09 2.82 2.62 2.26 2.53 3.12 2.65 3.27 3.54 2.84 1.96 1.69 2.01 2.73 2.24 1.83 1.43 0.83 0.89 0.71 0.41 0.28 0.26 0.28 0.98 1.21 1.32 0.91 0.50 0.52 0.90 0.67 0.75 0.74 0.81 0.28
2.28 2.09 1.99 1.40 1.39 1.18 1.42 1.68 1.76 2.20 2.36 2.16 2.27 2.52 3.13 3.50 2.69 3.02 2.45 2.11 1.72 1.21 1.23 0.85 0.80 1.12 1.30 0.62 0.55 0.60 0.52 1.20 1.85 1.11 0.81 0.74 0.59 0.64 1.00 1.51 1.00 0.30

ECMWFNIL_prec_precacc_129.txt.gz
Total_Precipitation_Accumulation
0.02 0.01 0.01 0.01 0.04 0.01 0.01 0.01 0.01 0.02 0.02 0.04 0.02 0.04 0.03 0.03 0.05 0.01 0.05 0.09 0.02 0.02 0.05 0.05 0.04 0.03 0.03 0.04 0.06 0.05 0.08 0.03 0.05 0.02 0.02 0.01 0.06 0.05 0.02 0.02 0.04 0.02
0.02 0.01 0.02 0.02 0.02 0.02 0.00 0.02 0.00 0.01 0.00 0.02 0.10 0.07 0.01 0.02 0.01 0.05 0.01 0.03 0.03 0.02 0.08 0.04 0.02 0.03 0.03 0.04 0.08 0.07 0.06 0.11 0.08 0.09 0.02 0.04 0.04 0.05 0.02 0.02 0.01 0.03
0.00 0.02 0.01 0.01 0.02 0.06 0.03 0.02 0.01 0.02 0.01 0.02 0.03 0.02 0.03 0.04 0.01 0.02 0.01 0.03 0.03 0.04 0.04 0.05 0.03 0.04 0.02 0.04 0.06 0.08 0.03 0.05 0.04 0.03 0.02 0.02 0.02 0.03 0.03 0.01 0.02 0.02
0.00 0.00 0.01 0.01 0.02 0.04 0.03 0.02 0.02 0.00 0.03 0.01 0.01 0.02 0.02 0.05 0.02 0.02 0.03 0.02 0.02 0.02 0.03 0.03 0.03 0.05 0.02 0.03 0.06 0.08 0.08 0.07 0.07 0.04 0.04 0.05 0.02 0.02 0.03 0.02 0.02 0.01
0.00 0.00 0.00 0.00 0.00 0.01 0.02 0.02 0.03 0.03 0.02 0.01 0.00 0.02 0.00 0.02 0.01 0.00 0.02 0.01 0.01 0.03 0.03 0.04 0.04 0.03 0.05 0.04 0.04 0.06 0.05 0.09 0.05 0.03 0.03 0.03 0.05 0.01 0.01 0.02 0.02 0.01
0.01 0.00 0.00 0.00 0.00 0.03 0.02 0.02 0.03 0.06 0.01 0.01 0.00 0.02 0.01 0.00 0.01 0.02 0.02 0.02 0.02 0.01 0.03 0.05 0.03 0.01 0.01 0.02 0.03 0.01 0.01 0.03 0.08 0.08 0.02 0.02 0.03 0.01 0.01 0.02 0.03 0.02
0.05 0.01 0.03 0.00 0.01 0.02 0.04 0.01 0.01 0.03 0.04 0.06 0.02 0.01 0.00 0.01 0.01 0.00 0.01 0.01 0.03 0.07 0.04 0.05 0.02 0.03 0.02 0.04 0.03 0.04 0.02 0.02 0.02 0.05 0.03 0.04 0.02 0.01 0.02 0.02 0.03 0.01
0.35 0.22 0.00 0.00 0.00 0.02 0.00 0.01 0.02 0.04 0.01 0.01 0.00 0.01 0.01 0.03 0.02 0.05 0.01 0.02 0.02 0.03 0.04 0.03 0.03 0.03 0.03 0.04 0.10 0.03 0.03 0.07 0.06 0.06 0.03 0.02 0.01 0.02 0.01 0.00 0.01 0.02
0.27 0.25 0.08 0.03 0.00 0.00 0.02 0.02 0.00 0.00 0.00 0.00 0.01 0.05 0.02 0.03 0.03 0.04 0.03 0.01 0.02 0.03 0.03 0.02 0.03 0.03 0.03 0.03 0.03 0.03 0.03 0.06 0.06 0.08 0.07 0.07 0.05 0.04 0.11 0.04 0.02 0.02
0.26 0.28 0.24 0.15 0.09 0.03 0.01 0.00 0.00 0.01 0.00 0.01 0.00 0.01 0.02 0.02 0.02 0.02 0.03 0.05 0.07 0.04 0.04 0.04 0.04 0.05 0.03 0.02 0.02 0.06 0.05 0.08 0.09 0.11 0.11 0.06 0.05 0.04 0.07 0.04 0.04 0.07
0.41 0.47 0.28 0.55 0.73 0.47 0.12 0.03 0.01 0.02 0.01 0.01 0.00 0.00 0.01 0.04 0.05 0.06 0.06 0.05 0.02 0.03 0.08 0.07 0.04 0.03 0.03 0.01 0.04 0.10 0.08 0.15 0.17 0.13 0.09 0.06 0.10 0.14 0.18 0.07 0.06 0.05
0.21 0.21 0.34 0.37 0.44 0.55 0.45 0.12 0.05 0.02 0.02 0.00 0.01 0.03 0.06 0.07 0.07 0.05 0.01 0.02 0.02 0.03 0.05 0.06 0.02 0.02 0.01 0.05 0.05 0.06 0.08 0.06 0.19 0.11 0.13 0.12 0.18 0.10 0.26 0.12 0.10 0.06
0.37 0.32 0.10 0.36 0.73 0.92 0.89 0.33 0.11 0.04 0.03 0.02 0.04 0.03 0.02 0.02 0.01 0.01 0.00 0.01 0.03 0.02 0.02 0.03 0.03 0.02 0.06 0.03 0.03 0.05 0.09 0.14 0.08 0.18 0.25 0.32 0.27 0.15 0.20 0.22 0.08 0.06
0.86 0.69 0.99 0.93 0.93 0.48 0.60 0.58 0.33 0.03 0.06 0.05 0.04 0.02 0.01 0.01 0.01 0.01 0.02 0.01 0.09 0.10 0.06 0.06 0.12 0.10 0.28 0.08 0.12 0.09 0.09 0.04 0.22 0.20 0.40 0.33 0.27 0.20 0.19 0.20 0.35 0.08
1.61 1.52 1.16 1.12 1.09 0.59 0.88 1.23 0.50 0.03 0.02 0.02 0.02 0.02 0.02 0.01 0.01 0.01 0.05 0.16 0.35 0.69 0.72 0.49 0.37 0.17 0.15 0.18 0.10 0.02 0.19 0.05 0.12 0.13 0.24 0.16 0.08 0.16 0.26 0.28 0.40 0.11
1.68 1.62 1.39 1.02 1.33 1.21 1.15 0.71 0.19 0.06 0.03 0.03 0.02 0.02 0.01 0.01 0.03 0.02 0.01 0.02 0.14 0.40 0.29 0.28 0.07 0.15 0.02 0.01 0.00 0.08 0.06 0.08 0.06 0.08 0.10 0.08 0.09 0.08 0.10 0.20 0.16 0.44
1.94 1.73 1.53 1.50 1.69 1.34 1.15 0.77 0.58 0.45 0.23 0.05 0.03 0.01 0.01 0.01 0.01 0.03 0.18 0.03 0.10 0.19 0.13 0.19 0.16 0.02 0.00 0.00 0.00 0.00 0.05 0.04 0.06 0.14 0.20 0.11 0.17 0.12 0.25 0.11 0.16 0.15
1.95 1.54 1.41 1.35 1.16 1.25 1.25 1.08 0.78 0.52 0.46 0.43 0.24 0.09 0.07 0.03 0.05 0.09 0.26 0.21 0.20 0.06 0.18 0.27 0.07 0.03 0.00 0.00 0.00 0.02 0.02 0.08 0.08 0.02 0.12 0.09 0.19 0.15 0.08 0.10 0.09 0.10
1.82 1.97 1.79 1.32 1.44 1.41 1.12 0.97 0.68 0.78 0.66 0.54 0.29 0.17 0.21 0.29 0.19 0.05 0.16 0.12 0.27 0.62 0.60 0.23 0.17 0.01 0.01 0.01 0.01 0.04 0.10 0.16 0.37 0.54 0.29 0.26 0.08 0.09 0.23 0.11 0.20 0.18
2.80 2.57 2.16 1.75 1.85 1.77 1.56 1.30 0.88 0.67 0.67 0.48 0.36 0.40 0.22 0.29 0.24 0.32 0.30 0.58 0.46 0.21 0.41 0.20 0.04 0.03 0.01 0.02 0.06 0.25 0.26 0.18 2.18 1.18 0.36 0.11 0.07 0.09 0.21 0.18 0.13 0.27
1.97 2.05 1.80 1.50 1.99 1.86 1.66 1.70 1.81 1.42 1.22 1.00 0.99 1.17 1.41 1.20 0.87 0.93 0.76 0.89 0.68 0.42 0.29 0.10 0.06 0.04 0.02 0.01 0.02 0.34 0.08 0.22 1.62 2.36 0.57 0.25 0.23 0.10 0.12 0.18 0.34 0.50
1.51 2.27 1.85 1.69 2.24 1.92 2.02 1.99 2.13 2.43 2.95 2.23 1.83 2.20 2.32 1.89 1.29 0.97 1.11 0.96 0.44 0.40 0.85 0.26 0.15 0.08 0.05 0.03 0.15 0.14 0.16 0.40 0.64 1.72 0.56 0.34 0.55 0.76 0.71 0.54 0.52 0.56
3.32 3.16 2.63 2.83 2.17 2.05 2.40 2.34 2.52 2.55 2.51 2.97 2.90 2.56 2.06 2.26 2.69 1.71 1.27 1.49 1.24 0.80 1.15 0.72 0.77 0.26 0.12 0.08 0.08 0.07 0.07 0.25 1.46 0.31 0.74 0.98 0.71 0.79 0.68 0.95 0.74 0.59
2.96 3.17 3.61 1.54 2.01 2.42 2.61 2.70 3.38 3.78 3.43 3.86 3.48 2.82 2.60 2.15 1.72 1.53 1.21 1.83 2.01 1.13 0.86 0.97 0.79 0.35 0.47 0.09 0.09 0.11 0.47 1.08 0.37 0.46 0.25 1.01 1.61 1.20 1.03 0.89 0.56 0.27
2.79 2.16 1.80 1.22 1.24 1.42 2.10 2.83 2.64 2.33 2.58 3.20 2.78 3.45 3.74 3.05 2.36 1.84 2.05 2.73 2.25 1.84 1.46 0.89 0.90 0.72 0.42 0.29 0.26 0.28 0.98 1.21 1.32 0.91 0.50 0.52 0.90 0.67 0.75 0.74 0.81 0.28
2.31 2.10 2.00 1.42 1.40 1.19 1.44 1.70 1.81 2.29 2.48 2.43 2.66 2.79 3.21 3.84 3.58 3.23 2.54 2.45 1.99 1.35 1.30 1.04 0.87 1.13 1.30 0.62 0.55 0.60 0.52 1.20 1.85 1.11 0.81 0.74 0.59 0.64 1.00 1.51 1.00 0.30

ECMWFNIL_prec_precacc_132.txt.gz
Total_Precipitation_Accumulation
0.02 0.01 0.01 0.01 0.04 0.01 0.01 0.01 0.01 0.02 0.02 0.04 0.02 0.04 0.03 0.03 0.05 0.01 0.05 0.09 0.02 0.02 0.05 0.05 0.04 0.03 0.03 0.04 0.06 0.05 0.08 0.03 0.05 0.02 0.02 0.01 0.06 0.05 0.02 0.02 0.04 0.02
0.02 0.01 0.02 0.02 0.02 0.02 0.00 0.02 0.00 0.01 0.00 0.02 0.10 0.07 0.01 0.02 0.01 0.05 0.01 0.03 0.03 0.02 0.08 0.04 0.02 0.03 0.03 0.04 0.08 0.07 0.06 0.11 0.08 0.09 0.02 0.04 0.04 0.05 0.02 0.02 0.01 0.03
0.00 0.02 0.01 0.01 0.02 0.06 0.03 0.02 0.01 0.02 0.01 0.02 0.03 0.02 0.03 0.04 0.01 0.02 0.01 0.03 0.03 0.04 0.04 0.05 0.03 0.04 0.02 0.04 0.06 0.08 0.03 0.05 0.04 0.03 0.02 0.02 0.02 0.03 0.03 0.01 0.02 0.02
0.00 0.00 0.01 0.01 0.02 0.04 0.03 0.02 0.02 0.00 0.03 0.01 0.01 0.02 0.02 0.05 0.02 0.02 0.03 0.02 0.02 0.02 0.03 0.03 0.03 0.05 0.02 0.03 0.06 0.08 0.08 0.07 0.07 0.04 0.04 0.05 0.02 0.02 0.03 0.02 0.02 0.01
0.00 0.00 0.00 0.00 0.00 0.01 0.02 0.02 0.03 0.03 0.02 0.01 0.00 0.02 0.00 0.02 0.01 0.00 0.02 0.01 0.01 0.03 0.03 0.04 0.04 0.03 0.05 0.04 0.04 0.06 0.05 0.09 0.05 0.03 0.03 0.03 0.05 0.01 0.01 0.02 0.02 0.01
0.01 0.00 0.00 0.00 0.00 0.03 0.02 0.02 0.03 0.06 0.01 0.01 0.00 0.02 0.01 0.00 0.01 0.02 0.02 0.02 0.02 0.01 0.03 0.05 0.03 0.01 0.01 0.02 0.03 0.01 0.01 0.03 0.08 0.08 0.02 0.02 0.03 0.01 0.01 0.02 0.03 0.02
0.05 0.01 0.03 0.00 0.01 0.02 0.04 0.01 0.01 0.03 0.04 0.06 0.02 0.01 0.00 0.01 0.01 0.00 0.01 0.01 0.03 0.07 0.04 0.05 0.02 0.03 0.02 0.04 0.03 0.04 0.02 0.02 0.02 0.05 0.03 0.04 0.02 0.01 0.02 0.02 0.03 0.01
0.35 0.22 0.00 0.00 0.00 0.02 0.00 0.01 0.02 0.04 0.01 0.01 0.00 0.01 0.01 0.03 0.02 0.05 0.01 0.02 0.02 0.03 0.04 0.03 0.03 0.03 0.03 0.04 0.10 0.03 0.03 0.07 0.06 0.06 0.03 0.02 0.01 0.02 0.01 0.00 0.01 0.02
0.27 0.25 0.08 0.03 0.00 0.00 0.02 0.02 0.00 0.00 0.00 0.00 0.01 0.05 0.02 0.03 0.03 0.04 0.03 0.01 0.02 0.03 0.03 0.02 0.03 0.03 0.03 0.03 0.03 0.03 0.03 0.06 0.06 0.08 0.07 0.07 0.05 0.04 0.11 0.04 0.02 0.02
0.26 0.28 0.24 0.15 0.09 0.03 0.01 0.00 0.00 0.01 0.00 0.01 0.00 0.01 0.02 0.02 0.02 0.02 0.03 0.05 0.07 0.04 0.04 0.04 0.04 0.05 0.03 0.02 0.02 0.06 0.05 0.08 0.09 0.11 0.11 0.06 0.05 0.04 0.07 0.04 0.04 0.07
0.41 0.47 0.28 0.55 0.73 0.47 0.12 0.03 0.01 0.02 0.01 0.01 0.00 0.00 0.01 0.04 0.05 0.06 0.07 0.08 0.17 0.34 0.32 0.41 0.35 0.28 0.12 0.08 0.04 0.10 0.08 0.15 0.17 0.13 0.09 0.06 0.10 0.14 0.18 0.07 0.06 0.05
0.21 0.21 0.34 0.37 0.44 0.55 0.45 0.12 0.05 0.02 0.02 0.00 0.01 0.03 0.06 0.08 0.09 0.26 0.35 0.56 0.70 0.47 0.48 0.50 0.32 0.46 0.36 0.33 0.38 0.29 0.22 0.07 0.19 0.11 0.13 0.12 0.18 0.10 0.26 0.12 0.10 0.06
0.37 0.32 0.10 0.36 0.73 0.92 0.89 0.33 0.11 0.04 0.03 0.02 0.04 0.03 0.03 0.06 0.04 0.31 0.54 0.45 0.38 0.62 0.61 0.43 0.72 0.72 0.36 0.48 0.20 0.21 0.11 0.14 0.08 0.18 0.25 0.32 0.27 0.15 0.20 0.22 0.08 0.06
0.86 0.69 0.99 0.93 0.93 0.48 0.60 0.58 0.33 0.03 0.06 0.05 0.04 0.02 0.04 0.07 0.06 0.16 0.18 0.06 0.31 0.70 0.63 0.73 0.73 0.30 0.45 0.20 0.14 0.11 0.12 0.05 0.22 0.20 0.40 0.33 0.27 0.20 0.19 0.20 0.35 0.08
1.61 1.52 1.16 1.12 1.09 0.59 0.88 1.23 0.50 0.03 0.02 0.02 0.02 0.02 0.02 0.02 0.02 0.02 0.06 0.16 0.35 0.69 0.74 0.52 0.39 0.18 0.16 0.18 0.10 0.02 0.19 0.05 0.12 0.13 0.24 0.16 0.08 0.16 0.26 0.28 0.40 0.11
1.68 1.62 1.39 1.02 1.33 1.21 1.15 0.71 0.19 0.06 0.03 0.03 0.02 0.02 0.01 0.01 0.03 0.02 0.01 0.02 0.14 0.40 0.30 0.29 0.08 0.15 0.02 0.01 0.00 0.08 0.06 0.08 0.06 0.08 0.10 0.08 0.09 0.08 0.10 0.20 0.16 0.44
1.94 1.73 1.53 1.50 1.69 1.34 1.15 0.77 0.58 0.45 0.23 0.05 0.03 0.01 0.01 0.01 0.01 0.03 0.18 0.03 0.10 0.19 0.13 0.19 0.16 0.02 0.00 0.00 0.00 0.00 0.05 0.04 0.06 0.14 0.20 0.11 0.17 0.12 0.25 0.11 0.16 0.15
1.95 1.54 1.41 1.35 1.16 1.25 1.25 1.08 0.78 0.52 0.46 0.43 0.24 0.09 0.07 0.03 0.05 0.09 0.26 0.21 0.20 0.06 0.18 0.27 0.07 0.03 0.00 0.00 0.00 0.02 0.02 0.08 0.08 0.02 0.12 0.09 0.19 0.15 0.08 0.10 0.09 0.10
1.83 2.08 2.02 1.36 1.44 1.42 1.12 0.97 0.68 0.78 0.66 0.54 0.29 0.17 0.21 0.29 0.19 0.05 0.16 0.12 0.27 0.62 0.60 0.23 0.17 0.01 0.01 0.01 0.01 0.04 0.10 0.16 0.37 0.54 0.29 0.26 0.08 0.09 0.23 0.11 0.20 0.18
2.81 2.57 2.16 1.75 1.85 1.77 1.57 1.30 0.88 0.67 0.67 0.48 0.36 0.40 0.22 0.29 0.24 0.32 0.30 0.58 0.46 0.21 0.41 0.20 0.04 0.03 0.01 0.02 0.06 0.25 0.26 0.18 2.18 1.18 0.36 0.11 0.07 0.09 0.21 0.18 0.13 0.27
1.97 2.05 1.80 1.50 1.99 1.86 1.66 1.70 1.82 1.42 1.22 1.00 0.99 1.17 1.41 1.20 0.87 0.93 0.76 0.89 0.68 0.42 0.29 0.10 0.06 0.04 0.02 0.01 0.02 0.34 0.08 0.22 1.62 2.36 0.57 0.25 0.23 0.10 0.12 0.18 0.34 0.50
1.52 2.27 1.85 1.69 2.24 1.92 2.02 1.99 2.13 2.43 2.95 2.23 1.83 2.20 2.33 1.89 1.29 0.97 1.11 0.96 0.44 0.40 0.85 0.26 0.15 0.08 0.05 0.03 0.15 0.14 0.16 0.40 0.64 1.72 0.56 0.34 0.55 0.76 0.71 0.54 0.52 0.56
3.35 3.19 2.64 2.84 2.17 2.05 2.40 2.34 2.52 2.56 2.52 2.98 2.92 2.56 2.06 2.33 2.73 1.71 1.27 1.49 1.24 0.80 1.15 0.72 0.77 0.26 0.12 0.08 0.08 0.07 0.07 0.25 1.46 0.31 0.74 0.98 0.71 0.80 0.68 0.95 0.74 0.59
2.99 3.20 3.63 1.55 2.01 2.43 2.61 2.72 3.41 3.85 3.60 4.03 3.70 3.15 2.77 2.20 1.74 1.53 1.21 1.83 2.01 1.13 0.86 0.97 0.79 0.35 0.47 0.09 0.09 0.11 0.47 1.08 0.37 0.46 0.27 1.11 1.66 1.22 1.03 0.89 0.56 0.27
2.81 2.19 1.82 1.24 1.25 1.42 2.10 2.84 2.65 2.39 2.86 3.60 3.26 4.19 4.63 3.60 2.62 1.88 2.08 2.80 2.26 1.85 1.46 0.90 0.92 0.72 0.43 0.29 0.26 0.28 0.98 1.21 1.35 1.09 0.54 0.60 0.95 0.67 0.75 0.74 0.81 0.28
2.35 2.14 2.02 1.43 1.41 1.20 1.44 1.72 1.86 2.46 3.01 2.96 2.80 2.91 3.42 3.92 3.74 3.31 2.58 2.52 2.01 1.38 1.36 1.22 1.23 1.18 1.30 0.62 0.55 0.60 0.54 1.21 1.93 1.24 1.25 0.97 0.67 0.68 1.00 1.51 1.00 0.30

ECMWFNIL_prec_precacc_135.txt.gz
Total_Precipitation_Accumulation
0.02 0.01 0.01 0.01 0.04 0.01 0.01 0.01 0.01 0.02 0.02 0.04 0.02 0.04 0.03 0.03 0.05 0.01 0.05 0.09 0.02 0.02 0.05 0.05 0.04 0.03 0.03 0.04 0.06 0.05 0.08 0.03 0.05 0.02 0.02 0.01 0.06 0.05 0.02 0.02 0.04 0.02
0.02 0.01 0.02 0.02 0.02 0.02 0.00 0.02 0.00 0.01 0.00 0.02 0.10 0.07 0.01 0.02 0.01 0.05 0.01 0.03 0.03 0.02 0.08 0.04 0.02 0.03 0.03 0.04 0.08 0.07 0.06 0.11 0.08 0.09 0.02 0.04 0.04 0.05 0.02 0.02 0.01 0.03
0.00 0.02 0.01 0.01 0.02 0.06 0.03 0.02 0.01 0.02 0.01 0.02 0.03 0.02 0.03 0.04 0.01 0.02 0.01 0.03 0.03 0.04 0.04 0.05 0.03 0.04 0.02 0.04 0.06 0.08 0.03 0.05 0.04 0.03 0.02 0.02 0.02 0.03 0.03 0.01 0.02 0.02
0.00 0.00 0.01 0.01 0.02 0.04 0.03 0.02 0.02 0.00 0.03 0.01 0.01 0.02 0.02 0.05 0.02 0.02 0.03 0.02 0.02 0.02 0.03 0.03 0.03 0.05 0.02 0.03 0.06 0.08 0.08 0.07 0.07 0.04 0.04 0.05 0.02 0.02 0.03 0.02 0.02 0.01
0.00 0.00 0.00 0.00 0.00 0.01 0.02 0.02 0.03 0.03 0.02 0.01 0.00 0.02 0.00 0.02 0.01 0.00 0.02 0.01 0.01 0.03 0.03 0.04 0.04 0.03 0.05 0.04 0.04 0.06 0.05 0.09 0.05 0.03 0.03 0.03 0.05 0.01 0.01 0.02 0.02 0.01
0.01 0.00 0.00 0.00 0.00 0.03 0.02 0.02 0.03 0.06 0.01 0.01 0.00 0.02 0.01 0.00 0.01 0.02 0.02 0.02 0.02 0.01 0.03 0.05 0.03 0.01 0.01 0.02 0.03 0.01 0.01 0.03 0.08 0.08 0.02 0.02 0.03 0.01 0.01 0.02 0.03 0.02
0.05 0.01 0.03 0.00 0.01 0.02 0.04 0.01 0.01 0.03 0.04 0.06 0.02 0.01 0.00 0.01 0.01 0.00 0.01 0.01 0.03 0.07 0.04 0.05 0.02 0.03 0.04 0.08 0.10 0.08 0.02 0.02 0.02 0.05 0.03 0.04 0.02 0.01 0.02 0.02 0.03 0.01
0.35 0.22 0.00 0.00 0.00 0.02 0.00 0.01 0.02 0.04 0.01 0.01 0.00 0.01 0.01 0.03 0.02 0.05 0.01 0.02 0.04 0.05 0.07 0.05 0.05 0.03 0.12 0.15 0.24 0.14 0.06 0.08 0.06 0.06 0.03 0.02 0.01 0.02 0.01 0.00 0.01 0.02
0.27 0.25 0.08 0.03 0.00 0.00 0.02 0.02 0.00 0.00 0.00 0.00 0.01 0.05 0.02 0.03 0.03 0.08 0.11 0.05 0.08 0.09 0.11 0.06 0.33 0.19 0.31 0.10 0.19 0.15 0.06 0.09 0.07 0.08 0.07 0.07 0.05 0.04 0.11 0.04 0.02 0.02
0.26 0.28 0.24 0.15 0.09 0.03 0.01 0.00 0.00 0.01 0.00 0.01 0.00 0.01 0.02 0.03 0.06 0.06 0.14 0.26 0.47 0.31 0.23 0.21 0.12 0.24 0.32 0.22 0.14 0.09 0.06 0.09 0.09 0.12 0.11 0.06 0.05 0.04 0.07 0.04 0.04 0.07
0.41 0.47 0.28 0.55 0.73 0.47 0.12 0.03 0.01 0.02 0.01 0.01 0.00 0.00 0.01 0.04 0.13 0.12 0.31 0.53 0.63 0.55 0.37 0.46 0.37 0.34 0.15 0.13 0.08 0.12 0.10 0.16 0.17 0.13 0.09 0.08 0.11 0.14 0.18 0.07 0.06 0.05
0.21 0.21 0.34 0.37 0.44 0.55 0.45 0.12 0.05 0.02 0.02 0.00 0.01 0.03 0.06 0.09 0.29 0.33 0.41 0.65 0.71 0.48 0.49 0.51 0.32 0.47 0.37 0.34 0.39 0.29 0.25 0.09 0.21 0.16 0.18 0.23 0.18 0.10 0.26 0.12 0.10 0.06
0.37 0.32 0.10 0.36 0.73 0.92 0.89 0.33 0.11 0.04 0.03 0.02 0.04 0.03 0.03 0.06 0.04 0.31 0.54 0.45 0.39 0.63 0.61 0.43 0.72 0.73 0.37 0.48 0.20 0.21 0.11 0.16 0.26 0.34 0.34 0.33 0.27 0.16 0.20 0.22 0.08 0.06
0.86 0.69 0.99 0.93 0.93 0.48 0.60 0.58 0.33 0.03 0.06 0.05 0.04 0.02 0.04 0.07 0.06 0.16 0.18 0.06 0.31 0.70 0.63 0.73 0.74 0.30 0.45 0.20 0.14 0.11 0.12 0.06 0.22 0.21 0.40 0.33 0.27 0.20 0.19 0.20 0.35 0.08
1.61 1.52 1.16 1.12 1.09 0.59 0.88 1.23 0.50 0.03 0.02 0.02 0.02 0.02 0.02 0.02 0.02 0.02 0.06 0.16 0.35 0.69 0.74 0.52 0.40 0.18 0.16 0.18 0.10 0.02 0.19 0.05 0.12 0.14 0.24 0.16 0.08 0.16 0.26 0.28 0.40 0.11
1.68 1.62 1.39 1.02 1.33 1.21 1.15 0.71 0.19 0.06 0.03 0.03 0.02 0.02 0.01 0.01 0.03 0.02 0.01 0.02 0.14 0.40 0.30 0.29 0.08 0.15 0.02 0.01 0.00 0.08 0.06 0.08 0.06 0.08 0.10 0.08 0.09 0.08 0.10 0.20 0.16 0.44
1.94 1.73 1.53 1.50 1.69 1.34 1.15 0.77 0.58 0.45 0.23 0.05 0.03 0.01 0.01 0.01 0.01 0.03 0.18 0.03 0.10 0.19 0.13 0.19 0.16 0.02 0.00 0.00 0.00 0.00 0.05 0.04 0.06 0.14 0.20 0.11 0.17 0.12 0.25 0.11 0.16 0.15
1.95 1.54 1.41 1.35 1.16 1.25 1.25 1.08 0.78 0.52 0.46 0.43 0.24 0.09 0.07 0.03 0.05 0.09 0.26 0.21 0.20 0.06 0.18 0.27 0.07 0.03 0.00 0.00 0.00 0.02 0.02 0.08 0.08 0.02 0.12 0.09 0.19 0.16 0.08 0.10 0.09 0.10
1.83 2.08 2.02 1.36 1.44 1.42 1.12 0.97 0.68 0.78 0.66 0.54 0.29 0.17 0.21 0.29 0.19 0.05 0.16 0.12 0.27 0.62 0.60 0.23 0.17 0.01 0.01 0.01 0.01 0.04 0.10 0.18 0.40 0.54 0.29 0.26 0.15 0.23 0.27 0.11 0.20 0.18
2.81 2.57 2.16 1.75 1.85 1.77 1.57 1.30 0.88 0.67 0.67 0.48 0.36 0.40 0.22 0.29 0.24 0.32 0.30 0.58 0.46 0.21 0.41 0.20 0.04 0.03 0.01 0.02 0.06 0.25 0.26 0.18 2.19 1.24 0.71 0.93 0.58 0.42 0.42 0.35 0.34 0.31
1.97 2.05 1.80 1.50 1.99 1.86 1.66 1.70 1.82 1.42 1.22 1.00 0.99 1.17 1.41 1.20 0.87 0.94 0.76 0.89 0.68 0.42 0.29 0.10 0.06 0.04 0.02 0.01 0.02 0.34 0.08 0.22 1.63 2.46 0.65 0.42 0.49 0.56 0.59 0.33 0.82 0.79
1.52 2.27 1.85 1.69 2.24 1.92 2.02 1.99 2.13 2.43 2.95 2.23 1.84 2.22 2.35 1.92 1.31 1.00 1.16 0.97 0.44 0.40 0.85 0.26 0.15 0.08 0.05 0.03 0.15 0.14 0.16 0.40 0.68 1.77 0.59 0.35 0.64 0.96 1.25 1.47 0.64 0.56
3.35 3.19 2.65 2.84 2.17 2.05 2.40 2.34 2.52 2.56 2.53 2.99 2.93 2.58 2.17 2.55 2.78 1.82 2.44 2.48 1.24 0.82 1.15 0.72 0.77 0.26 0.12 0.08 0.08 0.09 0.07 0.25 1.46 0.31 0.74 0.99 0.73 0.92 1.00 1.32 0.83 0.91
3.20 3.45 3.69 1.55 2.01 2.43 2.61 2.72 3.41 3.85 3.61 4.07 3.97 3.64 3.30 2.35 1.79 1.56 1.58 2.05 2.01 1.15 0.86 0.97 0.79 0.35 0.47 0.09 0.09 0.11 0.47 1.08 0.37 0.46 0.27 1.11 1.92 1.48 1.14 0.99 0.60 0.29
3.79 3.05 2.61 1.92 1.60 1.48 2.10 2.86 2.65 2.39 2.86 3.60 3.28 4.29 4.85 3.61 2.63 1.89 2.10 2.81 2.29 1.91 1.47 0.91 0.97 0.79 0.43 0.29 0.26 0.28 0.98 1.21 1.35 1.09 0.54 0.78 1.52 1.03 0.84 0.76 0.84 0.29
3.08 2.92 2.47 1.81 1.77 1.67 1.85 2.17 2.54 3.17 4.17 3.03 2.87 3.02 3.47 3.94 3.79 3.42 2.66 2.60 2.12 1.81 1.44 1.30 1.35 1.18 1.31 0.62 0.55 0.60 0.85 1.71 1.93 1.25 1.37 1.26 0.99 1.43 1.49 1.77 1.40 0.59

ECMWFNIL_prec_precacc_138.txt.gz
Total_Precipitation_Accumulation
0.02 0.01 0.01 0.01 0.04 0.01 0.01 0.01 0.01 0.02 0.02 0.04 0.02 0.04 0.03 0.03 0.05 0.01 0.05 0.09 0.02 0.02 0.05 0.05 0.04 0.03 0.03 0.04 0.06 0.05 0.08 0.03 0.05 0.02 0.02 0.01 0.06 0.05 0.02 0.02 0.04 0.02
0.02 0.01 0.02 0.02 0.02 0.02 0.00 0.02 0.00 0.01 0.00 0.02 0.10 0.07 0.01 0.02 0.01 0.05 0.01 0.03 0.03 0.02 0.08 0.04 0.02 0.03 0.03 0.04 0.08 0.07 0.06 0.11 0.08 0.09 0.02 0.04 0.04 0.05 0.02 0.02 0.01 0.03
0.00 0.02 0.01 0.01 0.02 0.06 0.03 0.02 0.01 0.02 0.01 0.02 0.03 0.02 0.03 0.04 0.01 0.02 0.01 0.03 0.03 0.04 0.04 0.05 0.03 0.04 0.02 0.04 0.06 0.08 0.03 0.05 0.04 0.03 0.02 0.02 0.02 0.03 0.03 0.01 0.02 0.02
0.00 0.00 0.01 0.01 0.02 0.04 0.03 0.02 0.02 0.00 0.03 0.01 0.01 0.02 0.02 0.05 0.02 0.02 0.03 0.02 0.02 0.02 0.03 0.03 0.03 0.05 0.02 0.03 0.06 0.08 0.08 0.07 0.07 0.04 0.04 0.05 0.02 0.02 0.03 0.02 0.02 0.01
0.00 0.00 0.00 0.00 0.00 0.01 0.02 0.02 0.03 0.03 0.02 0.01 0.00 0.02 0.00 0.02 0.01 0.00 0.02 0.01 0.01 0.03 0.03 0.04 0.04 0.03 0.05 0.04 0.04 0.06 0.05 0.09 0.05 0.03 0.03 0.03 0.05 0.01 0.01 0.02 0.02 0.01
0.01 0.00 0.00 0.00 0.00 0.03 0.02 0.02 0.03 0.06 0.01 0.01 0.00 0.02 0.01 0.00 0.01 0.02 0.02 0.02 0.02 0.01 0.03 0.05 0.03 0.01 0.01 0.02 0.03 0.01 0.01 0.03 0.08 0.08 0.02 0.02 0.03 0.01 0.01 0.02 0.03 0.02
0.05 0.01 0.03 0.00 0.01 0.02 0.04 0.01 0.01 0.03 0.04 0.06 0.02 0.01 0.00 0.01 0.01 0.00 0.01 0.01 0.03 0.07 0.04 0.05 0.02 0.03 0.04 0.08 0.10 0.08 0.03 0.02 0.02 0.05 0.03 0.04 0.02 0.01 0.02 0.02 0.03 0.01
0.35 0.22 0.00 0.00 0.00 0.02 0.00 0.01 0.02 0.04 0.01 0.01 0.00 0.01 0.01 0.03 0.02 0.05 0.01 0.02 0.04 0.05 0.07 0.05 0.05 0.03 0.12 0.15 0.24 0.14 0.06 0.08 0.07 0.06 0.03 0.02 0.01 0.02 0.01 0.00 0.01 0.02
0.27 0.25 0.08 0.03 0.00 0.00 0.02 0.02 0.00 0.00 0.00 0.00 0.01 0.05 0.02 0.03 0.03 0.08 0.11 0.05 0.08 0.09 0.11 0.06 0.33 0.19 0.31 0.10 0.19 0.15 0.06 0.09 0.07 0.09 0.08 0.08 0.05 0.04 0.11 0.04 0.02 0.02
0.26 0.28 0.24 0.15 0.09 0.03 0.01 0.00 0.00 0.01 0.00 0.01 0.00 0.01 0.02 0.03 0.06 0.06 0.14 0.26 0.47 0.31 0.23 0.21 0.12 0.24 0.32 0.22 0.14 0.09 0.06 0.09 0.09 0.12 0.12 0.06 0.05 0.04 0.07 0.04 0.04 0.07
0.41 0.47 0.28 0.55 0.73 0.47 0.12 0.03 0.01 0.02 0.01 0.01 0.00 0.00 0.01 0.04 0.13 0.12 0.31 0.53 0.63 0.55 0.38 0.46 0.37 0.34 0.15 0.13 0.08 0.12 0.10 0.16 0.17 0.13 0.09 0.08 0.12 0.15 0.18 0.07 0.06 0.05
0.21 0.21 0.34 0.37 0.44 0.55 0.45 0.12 0.05 0.02 0.02 0.00 0.01 0.03 0.06 0.09 0.29 0.33 0.41 0.65 0.71 0.49 0.49 0.51 0.32 0.47 0.37 0.34 0.39 0.29 0.25 0.09 0.21 0.16 0.18 0.23 0.18 0.10 0.26 0.12 0.10 0.06
0.37 0.32 0.10 0.36 0.73 0.92 0.89 0.33 0.11 0.04 0.03 0.02 0.04 0.03 0.03 0.06 0.04 0.31 0.54 0.45 0.39 0.63 0.61 0.43 0.72 0.73 0.37 0.48 0.20 0.21 0.11 0.16 0.26 0.34 0.34 0.33 0.27 0.16 0.20 0.22 0.08 0.06
0.86 0.69 0.99 0.93 0.93 0.48 0.60 0.58 0.33 0.03 0.06 0.05 0.04 0.02 0.04 0.07 0.06 0.16 0.18 0.06 0.31 0.70 0.63 0.73 0.74 0.30 0.45 0.20 0.14 0.11 0.12 0.06 0.22 0.21 0.40 0.33 0.27 0.20 0.19 0.20 0.35 0.08
1.61 1.52 1.16 1.12 1.09 0.59 0.88 1.23 0.50 0.03 0.02 0.02 0.02 0.02 0.02 0.02 0.02 0.02 0.06 0.16 0.35 0.69 0.74 0.52 0.40 0.18 0.16 0.18 0.10 0.02 0.19 0.05 0.12 0.14 0.24 0.16 0.08 0.16 0.31 0.41 0.42 0.16
1.68 1.62 1.39 1.02 1.33 1.21 1.15 0.71 0.19 0.06 0.03 0.03 0.02 0.02 0.01 0.01 0.03 0.02 0.01 0.02 0.14 0.40 0.30 0.29 0.08 0.15 0.02 0.01 0.00 0.08 0.06 0.08 0.06 0.08 0.10 0.08 0.10 0.28 0.32 0.34 0.33 0.63
1.94 1.73 1.53 1.50 1.69 1.34 1.15 0.77 0.58 0.45 0.23 0.05 0.03 0.01 0.01 0.01 0.01 0.03 0.18 0.03 0.10 0.19 0.13 0.19 0.16 0.02 0.00 0.00 0.00 0.00 0.05 0.04 0.06 0.14 0.23 0.25 0.53 0.56 0.58 0.59 0.55 0.48
1.95 1.54 1.41 1.35 1.16 1.25 1.25 1.08 0.78 0.52 0.46 0.43 0.24 0.09 0.07 0.03 0.05 0.09 0.26 0.21 0.20 0.06 0.18 0.27 0.07 0.03 0.00 0.00 0.00 0.02 0.02 0.08 0.08 0.03 0.35 0.42 0.70 0.58 0.49 0.56 0.42 0.14
1.83 2.08 2.02 1.36 1.44 1.42 1.12 0.97 0.68 0.78 0.66 0.54 0.29 0.17 0.21 0.29 0.19 0.05 0.16 0.12 0.27 0.62 0.60 0.23 0.17 0.01 0.01 0.01 0.01 0.04 0.10 0.18 0.40 0.74 1.13 1.08 0.92 1.03 0.88 0.49 0.45 0.33
2.81 2.57 2.16 1.75 1.85 1.77 1.57 1.30 0.88 0.67 0.67 0.48 0.36 0.40 0.22 0.29 0.25 0.32 0.30 0.58 0.46 0.21 0.41 0.20 0.04 0.03 0.01 0.02 0.06 0.25 0.26 0.18 2.20 1.62 1.02 1.01 0.81 0.75 0.78 0.73 0.77 0.56
1.97 2.05 1.80 1.50 1.99 1.86 1.66 1.70 1.82 1.42 1.22 1.00 0.99 1.17 1.41 1.20 0.87 0.94 0.76 0.89 0.68 0.42 0.29 0.10 0.06 0.04 0.02 0.01 0.02 0.34 0.08 0.22 1.71 2.62 0.82 0.65 0.65 0.69 0.76 0.54 0.86 0.82
1.53 2.28 1.87 1.72 2.26 1.94 2.03 1.99 2.13 2.43 2.95 2.23 1.84 2.22 2.35 1.92 1.31 1.00 1.33 0.97 0.44 0.40 0.85 0.26 0.15 0.08 0.05 0.03 0.15 0.14 0.16 0.40 0.73 1.92 0.67 0.39 0.66 0.96 1.25 1.47 0.64 0.57
3.79 3.57 2.85 3.19 2.27 2.08 2.42 2.34 2.52 2.56 2.53 2.99 2.93 2.58 2.17 2.55 2.78 1.82 2.44 2.60 1.24 0.82 1.15 0.72 0.77 0.26 0.12 0.08 0.08 0.09 0.07 0.25 1.46 0.31 0.74 0.99 0.73 0.92 1.00 1.40 1.11 1.27
3.35 4.18 4.64 2.22 2.46 2.52 2.64 2.73 3.41 3.85 3.61 4.07 3.97 3.64 3.31 3.16 1.83 1.56 1.62 2.15 2.02 1.15 0.87 0.97 0.79 0.36 0.47 0.09 0.09 0.11 0.47 1.08 0.39 0.47 0.27 1.11 1.92 1.51 1.35 1.45 1.57 0.56
3.80 3.08 2.65 2.00 1.98 1.94 2.59 3.12 2.90 2.49 2.86 3.60 3.29 4.29 4.85 3.62 2.69 2.01 2.68 3.59 2.31 1.91 1.48 0.91 0.97 0.79 0.43 0.29 0.26 0.28 0.98 1.21 1.35 1.10 0.57 0.81 1.54 1.04 0.91 0.90 0.90 0.32
3.08 2.93 2.48 1.86 1.90 1.90 2.17 2.62 2.86 3.42 5.29 4.20 3.59 3.88 4.47 3.97 3.94 3.43 2.68 2.84 2.24 1.85 1.44 1.31 1.35 1.19 1.31 0.62 0.55 0.60 0.85 1.74 1.94 1.27 1.47 1.65 1.40 1.56 1.65 1.82 1.71 1.22

ECMWFNIL_prec_precacc_141.txt.gz
Total_Precipitation_Accumulation
0.02 0.01 0.01 0.01 0.04 0.01 0.01 0.01 0.01 0.02 0.02 0.04 0.02 0.04 0.03 0.03 0.05 0.01 0.05 0.09 0.02 0.02 0.05 0.05 0.04 0.03 0.03 0.04 0.06 0.05 0.08 0.03 0.05 0.02 0.02 0.01 0.07 0.05 0.02 0.02 0.04 0.02
0.02 0.01 0.02 0.02 0.02 0.02 0.00 0.02 0.00 0.01 0.00 0.02 0.10 0.07 0.01 0.02 0.01 0.05 0.01 0.03 0.03 0.02 0.08 0.04 0.02 0.03 0.03 0.04 0.08 0.07 0.06 0.11 0.09 0.09 0.02 0.04 0.04 0.05 0.02 0.02 0.01 0.03
0.00 0.02 0.01 0.01 0.02 0.06 0.03 0.02 0.01 0.02 0.01 0.02 0.03 0.02 0.03 0.04 0.01 0.02 0.01 0.03 0.03 0.04 0.04 0.05 0.03 0.04 0.02 0.04 0.06 0.08 0.03 0.05 0.04 0.03 0.02 0.02 0.02 0.03 0.03 0.01 0.02 0.02
0.00 0.00 0.01 0.01 0.02 0.04 0.03 0.02 0.02 0.00 0.03 0.01 0.01 0.02 0.02 0.05 0.02 0.02 0.03 0.02 0.02 0.02 0.03 0.03 0.03 0.05 0.02 0.03 0.06 0.08 0.08 0.07 0.07 0.04 0.04 0.05 0.03 0.02 0.03 0.02 0.02 0.01
0.00 0.00 0.00 0.00 0.00 0.01 0.02 0.02 0.03 0.03 0.02 0.01 0.00 0.02 0.00 0.02 0.01 0.00 0.02 0.01 0.01 0.03 0.04 0.04 0.04 0.03 0.05 0.04 0.04 0.06 0.05 0.09 0.05 0.03 0.03 0.03 0.05 0.01 0.01 0.02 0.02 0.01
0.01 0.00 0.00 0.00 0.00 0.03 0.02 0.02 0.03 0.06 0.01 0.01 0.00 0.02 0.01 0.00 0.01 0.02 0.02 0.02 0.02 0.01 0.03 0.05 0.03 0.01 0.01 0.02 0.03 0.01 0.01 0.03 0.08 0.08 0.02 0.02 0.03 0.01 0.01 0.02 0.03 0.02
0.05 0.01 0.03 0.00 0.01 0.02 0.04 0.01 0.01 0.03 0.04 0.06 0.02 0.01 0.00 0.01 0.01 0.00 0.01 0.01 0.03 0.07 0.04 0.05 0.02 0.03 0.04 0.08 0.10 0.08 0.03 0.02 0.02 0.05 0.04 0.05 0.03 0.01 0.02 0.02 0.03 0.02
0.35 0.22 0.00 0.00 0.00 0.02 0.00 0.01 0.02 0.04 0.01 0.01 0.00 0.01 0.01 0.03 0.02 0.05 0.01 0.02 0.04 0.05 0.07 0.05 0.05 0.03 0.12 0.15 0.24 0.14 0.06 0.08 0.07 0.06 0.03 0.02 0.01 0.03 0.01 0.01 0.01 0.02
0.27 0.25 0.08 0.03 0.00 0.00 0.02 0.02 0.00 0.00 0.00 0.00 0.01 0.05 0.02 0.03 0.03 0.08 0.11 0.05 0.08 0.09 0.11 0.06 0.33 0.19 0.31 0.10 0.19 0.15 0.06 0.09 0.07 0.09 0.08 0.08 0.05 0.04 0.11 0.05 0.02 0.03
0.26 0.28 0.24 0.15 0.09 0.03 0.01 0.00 0.00 0.01 0.00 0.01 0.00 0.01 0.02 0.03 0.06 0.06 0.14 0.26 0.47 0.31 0.23 0.21 0.12 0.24 0.32 0.22 0.14 0.09 0.06 0.09 0.09 0.12 0.12 0.06 0.05 0.04 0.07 0.05 0.06 0.14
0.41 0.47 0.28 0.55 0.73 0.47 0.12 0.03 0.01 0.02 0.01 0.01 0.00 0.00 0.01 0.04 0.13 0.12 0.31 0.53 0.63 0.55 0.38 0.46 0.37 0.34 0.15 0.13 0.08 0.12 0.10 0.16 0.17 0.13 0.09 0.08 0.13 0.15 0.34 0.30 0.31 0.22
0.21 0.21 0.34 0.37 0.44 0.55 0.45 0.12 0.05 0.02 0.02 0.00 0.01 0.03 0.06 0.09 0.29 0.33 0.41 0.65 0.71 0.49 0.49 0.51 0.32 0.47 0.37 0.34 0.39 0.29 0.25 0.09 0.21 0.16 0.18 0.23 0.18 0.13 0.48 0.47 0.25 0.29
0.37 0.32 0.10 0.36 0.73 0.92 0.89 0.33 0.11 0.04 0.03 0.02 0.04 0.03 0.03 0.06 0.04 0.31 0.54 0.45 0.39 0.63 0.61 0.43 0.72 0.73 0.37 0.49 0.32 0.26 0.12 0.16 0.26 0.34 0.34 0.33 0.28 0.19 0.43 0.43 0.53 0.40
0.86 0.69 0.99 0.93 0.93 0.48 0.60 0.58 0.33 0.03 0.06 0.05 0.04 0.02 0.04 0.07 0.06 0.16 0.18 0.06 0.31 0.70 0.63 0.73 0.74 0.30 0.48 0.67 0.59 0.20 0.12 0.06 0.22 0.21 0.40 0.34 0.27 0.27 0.52 0.44 0.57 0.25
1.61 1.52 1.16 1.12 1.09 0.59 0.88 1.23 0.50 0.03 0.02 0.02 0.02 0.02 0.02 0.02 0.02 0.02 0.06 0.16 0.35 0.69 0.74 0.52 0.40 0.19 0.47 0.49 0.32 0.14 0.21 0.06 0.13 0.16 0.25 0.17 0.08 0.17 0.57 0.57 0.49 0.37
1.68 1.62 1.39 1.02 1.33 1.21 1.15 0.71 0.19 0.06 0.03 0.03 0.02 0.02 0.01 0.01 0.03 0.02 0.01 0.02 0.14 0.40 0.30 0.29 0.11 0.35 0.14 0.03 0.10 0.24 0.21 0.09 0.06 0.08 0.10 0.08 0.11 0.37 0.35 0.35 0.33 0.64
1.94 1.73 1.53 1.50 1.69 1.34 1.15 0.77 0.58 0.45 0.23 0.05 0.03 0.01 0.01 0.01 0.01 0.03 0.18 0.03 0.10 0.19 0.13 0.19 0.30 0.02 0.00 0.02 0.09 0.03 0.16 0.14 0.12 0.14 0.23 0.25 0.54 0.56 0.59 0.59 0.56 0.49
1.95 1.54 1.41 1.35 1.16 1.25 1.25 1.08 0.78 0.52 0.46 0.43 0.24 0.09 0.07 0.03 0.05 0.09 0.26 0.21 0.20 0.06 0.18 0.27 0.07 0.03 0.00 0.01 0.03 0.30 0.05 0.08 0.17 0.12 0.35 0.43 0.70 0.58 0.49 0.56 0.42 0.16
1.83 2.08 2.02 1.36 1.44 1.42 1.12 0.97 0.68 0.78 0.66 0.54 0.29 0.17 0.21 0.29 0.19 0.05 0.16 0.12 0.27 0.62 0.60 0.23 0.17 0.01 0.01 0.01 0.63 0.46 0.17 0.21 0.49 0.74 1.19 1.11 0.94 1.03 0.88 0.50 0.48 0.37
2.81 2.57 2.16 1.75 1.85 1.77 1.57 1.30 0.88 0.67 0.67 0.48 0.36 0.40 0.22 0.29 0.25 0.32 0.30 0.58 0.46 0.21 0.41 0.20 0.04 0.03 0.01 0.02 0.06 0.31 0.27 0.18 2.20 1.63 1.04 1.03 0.83 0.75 0.78 0.73 0.78 0.57
1.97 2.05 1.80 1.50 1.99 1.86 1.66 1.70 1.82 1.42 1.22 1.00 0.99 1.17 1.41 1.20 0.87 0.94 0.76 0.89 0.68 0.42 0.29 0.10 0.06 0.04 0.02 0.01 0.02 0.34 0.08 0.23 1.71 2.62 0.82 0.65 0.66 0.69 0.76 0.54 0.86 0.82
1.53 2.28 1.87 1.72 2.26 1.94 2.04 1.99 2.13 2.43 2.95 2.23 1.84 2.22 2.35 1.92 1.31 1.00 1.33 0.97 0.44 0.40 0.85 0.26 0.15 0.08 0.05 0.03 0.15 0.14 0.16 0.40 0.73 1.92 0.68 0.40 0.66 0.96 1.25 1.47 0.64 0.57
3.79 3.57 2.85 3.19 2.27 2.08 2.43 2.34 2.52 2.56 2.53 2.99 2.93 2.58 2.17 2.55 2.78 1.82 2.44 2.60 1.24 0.82 1.15 0.72 0.77 0.26 0.12 0.08 0.08 0.09 0.07 0.26 1.50 0.31 0.74 0.99 0.73 0.92 1.00 1.40 1.13 1.28
3.35 4.18 4.64 2.22 2.46 2.52 2.64 2.73 3.41 3.85 3.61 4.07 3.97 3.64 3.31 3.16 1.83 1.56 1.62 2.15 2.02 1.19 0.87 0.97 0.79 0.36 0.47 0.09 0.09 0.11 0.47 1.10 0.39 0.47 0.27 1.11 1.92 1.51 1.35 1.49 1.59 0.71
3.80 3.08 2.65 2.00 1.98 1.94 2.59 3.12 2.90 2.49 2.86 3.60 3.29 4.29 4.85 3.62 2.69 2.01 2.68 3.85 2.31 1.91 1.48 1.03 0.97 0.79 0.43 0.29 0.26 0.28 0.98 1.21 1.35 1.10 0.57 0.81 1.55 1.07 1.03 1.23 1.12 0.33
3.09 2.94 2.49 1.87 1.90 1.91 2.18 2.63 2.87 3.43 5.30 4.61 4.41 4.01 5.88 5.35 5.72 4.09 2.68 2.86 2.24 1.85 1.45 1.31 1.35 1.19 1.31 0.62 0.55 0.60 0.85 1.74 1.94 1.27 1.47 1.65 1.41 1.58 1.73 1.83 1.73 1.26

ECMWFNIL_prec_precacc_144.txt.gz
Total_Precipitation_Accumulation
0.02 0.01 0.01 0.01 0.04 0.01 0.01 0.01 0.01 0.02 0.02 0.04 0.02 0.04 0.03 0.03 0.05 0.01 0.05 0.09 0.02 0.02 0.05 0.05 0.04 0.03 0.03 0.04 0.06 0.05 0.08 0.03 0.05 0.02 0.02 0.02 0.07 0.06 0.02 0.02 0.04 0.02
0.02 0.01 0.02 0.02 0.02 0.02 0.00 0.02 0.00 0.01 0.00 0.02 0.10 0.07 0.01 0.02 0.01 0.05 0.01 0.03 0.03 0.02 0.08 0.04 0.02 0.03 0.03 0.04 0.08 0.07 0.06 0.11 0.09 0.09 0.02 0.04 0.04 0.05 0.02 0.02 0.01 0.03
0.00 0.02 0.01 0.01 0.02 0.06 0.03 0.02 0.01 0.02 0.01 0.02 0.03 0.02 0.03 0.04 0.01 0.02 0.01 0.03 0.03 0.04 0.04 0.05 0.03 0.04 0.02 0.04 0.06 0.08 0.03 0.06 0.04 0.03 0.02 0.02 0.02 0.03 0.03 0.01 0.02 0.02
0.00 0.00 0.01 0.01 0.02 0.04 0.03 0.02 0.02 0.00 0.03 0.01 0.01 0.02 0.02 0.05 0.02 0.02 0.03 0.02 0.02 0.02 0.03 0.03 0.03 0.05 0.02 0.03 0.06 0.08 0.08 0.07 0.07 0.04 0.04 0.05 0.03 0.02 0.03 0.02 0.02 0.02
0.00 0.00 0.00 0.00 0.00 0.01 0.02 0.02 0.03 0.03 0.02 0.01 0.00 0.02 0.00 0.02 0.01 0.00 0.02 0.01 0.01 0.03 0.04 0.04 0.04 0.03 0.05 0.04 0.04 0.06 0.05 0.09 0.05 0.03 0.03 0.03 0.05 0.01 0.01 0.02 0.02 0.01
0.01 0.00 0.00 0.00 0.00 0.03 0.02 0.02 0.03 0.06 0.01 0.01 0.00 0.02 0.01 0.00 0.01 0.02 0.02 0.02 0.02 0.01 0.03 0.05 0.03 0.01 0.01 0.02 0.03 0.01 0.01 0.03 0.08 0.08 0.02 0.03 0.03 0.01 0.01 0.02 0.03 0.02
0.05 0.01 0.03 0.00 0.01 0.02 0.04 0.01 0.01 0.03 0.04 0.06 0.02 0.01 0.00 0.01 0.01 0.00 0.01 0.01 0.03 0.07 0.04 0.05 0.02 0.03 0.04 0.08 0.11 0.09 0.03 0.03 0.03 0.05 0.05 0.05 0.03 0.02 0.02 0.02 0.03 0.02
0.35 0.22 0.00 0.00 0.00 0.02 0.00 0.01 0.02 0.04 0.01 0.01 0.00 0.01 0.01 0.03 0.02 0.05 0.01 0.02 0.04 0.05 0.07 0.05 0.05 0.03 0.12 0.15 0.25 0.14 0.06 0.09 0.07 0.07 0.05 0.03 0.02 0.03 0.02 0.02 0.02 0.05
0.27 0.25 0.08 0.03 0.00 0.00 0.02 0.02 0.00 0.00 0.00 0.00 0.01 0.05 0.02 0.03 0.03 0.08 0.11 0.05 0.08 0.09 0.11 0.06 0.33 0.19 0.31 0.11 0.20 0.15 0.07 0.10 0.09 0.09 0.09 0.10 0.07 0.06 0.12 0.09 0.10 0.19
0.26 0.28 0.24 0.15 0.09 0.03 0.01 0.00 0.00 0.01 0.00 0.01 0.00 0.01 0.02 0.03 0.06 0.06 0.14 0.26 0.47 0.31 0.23 0.21 0.12 0.24 0.33 0.23 0.15 0.11 0.11 0.20 0.25 0.25 0.22 0.15 0.12 0.06 0.22 0.23 0.25 0.34
0.41 0.47 0.28 0.55 0.73 0.47 0.12 0.03 0.01 0.02 0.01 0.01 0.00 0.00 0.01 0.04 0.13 0.12 0.31 0.53 0.63 0.55 0.38 0.46 0.37 0.34 0.16 0.14 0.09 0.21 0.31 0.35 0.48 0.41 0.33 0.21 0.22 0.25 0.43 0.31 0.31 0.22
0.21 0.21 0.34 0.37 0.44 0.55 0.45 0.12 0.05 0.02 0.02 0.00 0.01 0.03 0.06 0.09 0.29 0.33 0.41 0.65 0.71 0.49 0.49 0.51 0.32 0.47 0.37 0.37 0.53 0.45 0.36 0.16 0.26 0.25 0.29 0.33 0.22 0.16 0.48 0.47 0.25 0.30
0.37 0.32 0.10 0.36 0.73 0.92 0.89 0.33 0.11 0.04 0.03 0.02 0.04 0.03 0.03 0.06 0.04 0.31 0.54 0.45 0.39 0.63 0.61 0.43 0.72 0.73 0.38 0.56 0.53 0.30 0.13 0.17 0.29 0.37 0.41 0.38 0.32 0.19 0.43 0.43 0.54 0.41
0.86 0.69 0.99 0.93 0.93 0.48 0.60 0.58 0.33 0.03 0.06 0.05 0.04 0.02 0.04 0.07 0.06 0.16 0.18 0.07 0.31 0.70 0.63 0.73 0.74 0.31 0.49 0.72 0.60 0.20 0.12 0.08 0.23 0.24 0.44 0.35 0.28 0.27 0.52 0.44 0.57 0.25
1.61 1.52 1.16 1.12 1.09 0.59 0.88 1.23 0.50 0.03 0.02 0.02 0.02 0.02 0.02 0.02 0.02 0.02 0.06 0.16 0.35 0.69 0.74 0.52 0.40 0.20 0.47 0.49 0.32 0.14 0.21 0.07 0.13 0.17 0.25 0.18 0.09 0.18 0.58 0.58 0.50 0.37
1.68 1.62 1.39 1.02 1.33 1.21 1.15 0.71 0.19 0.06 0.03 0.03 0.02 0.02 0.01 0.01 0.03 0.02 0.01 0.02 0.14 0.40 0.30 0.29 0.11 0.35 0.14 0.03 0.10 0.24 0.21 0.09 0.06 0.08 0.11 0.09 0.12 0.38 0.36 0.35 0.33 0.64
1.94 1.73 1.53 1.50 1.69 1.34 1.15 0.77 0.58 0.45 0.23 0.05 0.03 0.01 0.01 0.01 0.01 0.03 0.18 0.03 0.10 0.19 0.13 0.19 0.30 0.02 0.00 0.02 0.09 0.09 0.19 0.14 0.12 0.15 0.24 0.26 0.55 0.57 0.60 0.60 0.56 0.49
1.96 1.54 1.41 1.35 1.16 1.25 1.25 1.08 0.78 0.52 0.46 0.43 0.24 0.09 0.07 0.03 0.05 0.09 0.26 0.21 0.20 0.06 0.18 0.27 0.07 0.03 0.00 0.01 0.03 0.30 0.06 0.08 0.17 0.13 0.36 0.45 0.72 0.60 0.51 0.58 0.44 0.16
1.85 2.10 2.03 1.36 1.44 1.42 1.12 0.97 0.68 0.78 0.66 0.54 0.29 0.17 0.21 0.29 0.19 0.05 0.16 0.12 0.27 0.62 0.60 0.23 0.17 0.01 0.01 0.01 0.63 0.46 0.17 0.21 0.49 0.74 1.20 1.12 0.96 1.08 0.91 0.52 0.49 0.37
2.81 2.59 2.18 1.77 1.86 1.77 1.57 1.30 0.88 0.67 0.67 0.48 0.36 0.40 0.22 0.29 0.25 0.32 0.30 0.58 0.46 0.21 0.41 0.20 0.04 0.03 0.01 0.02 0.06 0.31 0.27 0.18 2.20 1.63 1.05 1.04 0.87 0.79 0.81 0.75 0.80 0.59
1.97 2.06 1.81 1.52 2.01 1.87 1.67 1.70 1.82 1.42 1.22 1.00 0.99 1.17 1.41 1.20 0.87 0.94 0.76 0.89 0.68 0.42 0.29 0.10 0.06 0.04 0.02 0.01 0.02 0.34 0.08 0.23 1.71 2.62 0.83 0.67 0.67 0.71 0.78 0.55 0.86 0.82
1.54 2.28 1.87 1.73 2.28 1.95 2.05 2.00 2.13 2.43 2.96 2.23 1.84 2.22 2.35 1.92 1.32 1.00 1.34 0.97 0.44 0.40 0.85 0.26 0.15 0.08 0.05 0.03 0.15 0.14 0.16 0.42 0.73 1.93 0.69 0.42 0.67 0.97 1.25 1.47 0.64 0.58
3.80 3.58 2.86 3.19 2.29 2.10 2.44 2.35 2.52 2.56 2.53 2.99 2.94 2.58 2.18 2.55 2.78 1.83 2.45 2.61 1.25 0.82 1.15 0.72 0.77 0.26 0.12 0.08 0.08 0.09 0.09 0.27 1.52 0.34 0.76 1.00 0.82 0.92 1.00 1.52 1.21 1.34
3.36 4.19 4.65 2.23 2.48 2.53 2.65 2.74 3.42 3.86 3.61 4.07 3.98 3.64 3.31 3.16 1.83 1.56 1.62 2.15 2.02 1.19 0.87 0.97 0.79 0.36 0.47 0.09 0.09 0.11 0.48 1.13 0.44 0.50 0.80 1.13 1.93 1.53 1.37 1.51 1.59 0.71
3.83 3.10 2.67 2.02 2.03 1.96 2.60 3.13 2.91 2.50 2.87 3.61 3.30 4.30 4.86 3.62 2.69 2.01 2.68 3.85 2.31 1.91 1.48 1.03 0.97 0.79 0.43 0.29 0.26 0.28 0.98 1.22 1.36 1.11 0.57 0.94 1.65 1.17 1.17 1.32 1.16 0.33
3.11 2.95 2.50 1.89 1.92 1.92 2.20 2.65 2.89 3.44 5.31 4.63 4.43 4.01 5.88 5.36 5.72 4.09 2.68 2.86 2.24 1.85 1.45 1.31 1.35 1.19 1.31 0.62 0.56 0.60 0.88 1.77 2.00 1.32 1.48 1.65 1.41 1.58 1.75 1.84 1.73 1.26